<?xml version="1.0" encoding="UTF-8" standalone="no" ?>
<gpx xmlns="http://www.topografix.com/GPX/1/1" xmlns:xsi="http://www.w3.org/2001/XMLSchema-instance" xsi:schemaLocation="http://www.topografix.com/GPX/1/1 http://www.topografix.com/GPX/1/1/gpx.xsd" version="1.1" creator="VisuGPX - https://www.visugpx.com">
  <metadata>
    <name>Rando bethoncourt</name>
    <desc><![CDATA[Rando bethoncourt des 36 km depart sous la neige]]></desc>
  </metadata>
  <wpt lat="47.58525" lon="6.73683">
    <ele>342</ele>
    <name><![CDATA[Pause à 14/04/2019 à 11:05]]></name>
    <desc><![CDATA[Pause de 7min 54s]]></desc>
  </wpt>
  <wpt lat="47.58514" lon="6.7371">
    <ele>344</ele>
    <name><![CDATA[Pause à 14/04/2019 à 11:01]]></name>
    <desc><![CDATA[Pause de 3min 6s]]></desc>
  </wpt>
  <wpt lat="47.53231" lon="6.71789">
    <ele>342</ele>
    <name><![CDATA[Pause à 14/04/2019 à 9:40]]></name>
    <desc><![CDATA[Pause de 12min 18s]]></desc>
  </wpt>
  <wpt lat="47.53078" lon="6.7936">
    <ele>324</ele>
    <name><![CDATA[Pause à 14/04/2019 à 8:44]]></name>
    <desc><![CDATA[Pause de 4min 49s]]></desc>
  </wpt>
  <wpt lat="47.58223" lon="6.71935">
    <ele>500</ele>
    <name><![CDATA[Pause à 14/04/2019 à 10:48]]></name>
    <desc><![CDATA[Pause de 3min 46s]]></desc>
  </wpt>
  <wpt lat="47.53049" lon="6.79407">
    <ele>316</ele>
    <name><![CDATA[Pause à 14/04/2019 à 8:51]]></name>
    <desc><![CDATA[Pause de 2min 46s]]></desc>
  </wpt>
  <trk>
    <name><![CDATA[Rando bethoncourt]]></name>
    <trkseg>
      <trkpt lat="47.53096" lon="6.7937">
        <ele>379</ele>
        <time>2019-04-14T06:42:18Z</time>
      </trkpt>
      <trkpt lat="47.53079" lon="6.79365">
        <ele>362</ele>
        <time>2019-04-14T06:42:24Z</time>
      </trkpt>
      <trkpt lat="47.53068" lon="6.79361">
        <ele>340</ele>
        <time>2019-04-14T06:42:29Z</time>
      </trkpt>
      <trkpt lat="47.53078" lon="6.7936">
        <ele>324</ele>
        <time>2019-04-14T06:42:37Z</time>
      </trkpt>
      <trkpt lat="47.53087" lon="6.79355">
        <ele>303</ele>
        <time>2019-04-14T06:42:45Z</time>
      </trkpt>
      <trkpt lat="47.53087" lon="6.79355">
        <ele>287</ele>
        <time>2019-04-14T06:43:14Z</time>
      </trkpt>
      <trkpt lat="47.53087" lon="6.79355">
        <ele>280</ele>
        <time>2019-04-14T06:43:15Z</time>
      </trkpt>
      <trkpt lat="47.53087" lon="6.79355">
        <ele>284</ele>
        <time>2019-04-14T06:43:44Z</time>
      </trkpt>
      <trkpt lat="47.53087" lon="6.79355">
        <ele>291</ele>
        <time>2019-04-14T06:43:45Z</time>
      </trkpt>
      <trkpt lat="47.53087" lon="6.79355">
        <ele>295</ele>
        <time>2019-04-14T06:44:14Z</time>
      </trkpt>
      <trkpt lat="47.53087" lon="6.79355">
        <ele>297</ele>
        <time>2019-04-14T06:44:15Z</time>
      </trkpt>
      <trkpt lat="47.53099" lon="6.7934">
        <ele>310</ele>
        <time>2019-04-14T06:47:26Z</time>
      </trkpt>
      <trkpt lat="47.53101" lon="6.79342">
        <ele>311</ele>
        <time>2019-04-14T06:47:44Z</time>
      </trkpt>
      <trkpt lat="47.531" lon="6.79342">
        <ele>311</ele>
        <time>2019-04-14T06:47:45Z</time>
      </trkpt>
      <trkpt lat="47.53096" lon="6.79346">
        <ele>311</ele>
        <time>2019-04-14T06:47:50Z</time>
      </trkpt>
      <trkpt lat="47.53098" lon="6.79352">
        <ele>311</ele>
        <time>2019-04-14T06:48:03Z</time>
      </trkpt>
      <trkpt lat="47.53095" lon="6.7936">
        <ele>312</ele>
        <time>2019-04-14T06:48:18Z</time>
      </trkpt>
      <trkpt lat="47.53091" lon="6.79369">
        <ele>312</ele>
        <time>2019-04-14T06:48:23Z</time>
      </trkpt>
      <trkpt lat="47.5309" lon="6.79378">
        <ele>312</ele>
        <time>2019-04-14T06:48:28Z</time>
      </trkpt>
      <trkpt lat="47.53088" lon="6.79388">
        <ele>313</ele>
        <time>2019-04-14T06:48:33Z</time>
      </trkpt>
      <trkpt lat="47.53082" lon="6.79397">
        <ele>313</ele>
        <time>2019-04-14T06:48:38Z</time>
      </trkpt>
      <trkpt lat="47.53077" lon="6.79403">
        <ele>314</ele>
        <time>2019-04-14T06:48:43Z</time>
      </trkpt>
      <trkpt lat="47.53072" lon="6.79408">
        <ele>315</ele>
        <time>2019-04-14T06:48:48Z</time>
      </trkpt>
      <trkpt lat="47.53058" lon="6.79409">
        <ele>316</ele>
        <time>2019-04-14T06:48:53Z</time>
      </trkpt>
      <trkpt lat="47.5305" lon="6.79407">
        <ele>316</ele>
        <time>2019-04-14T06:48:58Z</time>
      </trkpt>
      <trkpt lat="47.53046" lon="6.79409">
        <ele>317</ele>
        <time>2019-04-14T06:49:14Z</time>
      </trkpt>
      <trkpt lat="47.53046" lon="6.7941">
        <ele>317</ele>
        <time>2019-04-14T06:49:15Z</time>
      </trkpt>
      <trkpt lat="47.53051" lon="6.79407">
        <ele>317</ele>
        <time>2019-04-14T06:49:37Z</time>
      </trkpt>
      <trkpt lat="47.53053" lon="6.79401">
        <ele>317</ele>
        <time>2019-04-14T06:49:59Z</time>
      </trkpt>
      <trkpt lat="47.53053" lon="6.79401">
        <ele>317</ele>
        <time>2019-04-14T06:50:01Z</time>
      </trkpt>
      <trkpt lat="47.53048" lon="6.79405">
        <ele>317</ele>
        <time>2019-04-14T06:50:12Z</time>
      </trkpt>
      <trkpt lat="47.53041" lon="6.79408">
        <ele>317</ele>
        <time>2019-04-14T06:50:17Z</time>
      </trkpt>
      <trkpt lat="47.53045" lon="6.79412">
        <ele>317</ele>
        <time>2019-04-14T06:50:33Z</time>
      </trkpt>
      <trkpt lat="47.53049" lon="6.79407">
        <ele>317</ele>
        <time>2019-04-14T06:50:45Z</time>
      </trkpt>
      <trkpt lat="47.53028" lon="6.79384">
        <ele>319</ele>
        <time>2019-04-14T06:51:44Z</time>
      </trkpt>
      <trkpt lat="47.53027" lon="6.79365">
        <ele>320</ele>
        <time>2019-04-14T06:51:49Z</time>
      </trkpt>
      <trkpt lat="47.53027" lon="6.79345">
        <ele>320</ele>
        <time>2019-04-14T06:51:54Z</time>
      </trkpt>
      <trkpt lat="47.53025" lon="6.79326">
        <ele>321</ele>
        <time>2019-04-14T06:51:59Z</time>
      </trkpt>
      <trkpt lat="47.53022" lon="6.79304">
        <ele>322</ele>
        <time>2019-04-14T06:52:04Z</time>
      </trkpt>
      <trkpt lat="47.5302" lon="6.79279">
        <ele>322</ele>
        <time>2019-04-14T06:52:09Z</time>
      </trkpt>
      <trkpt lat="47.53019" lon="6.79255">
        <ele>323</ele>
        <time>2019-04-14T06:52:14Z</time>
      </trkpt>
      <trkpt lat="47.53017" lon="6.79233">
        <ele>324</ele>
        <time>2019-04-14T06:52:19Z</time>
      </trkpt>
      <trkpt lat="47.53019" lon="6.79208">
        <ele>325</ele>
        <time>2019-04-14T06:52:24Z</time>
      </trkpt>
      <trkpt lat="47.53024" lon="6.79184">
        <ele>325</ele>
        <time>2019-04-14T06:52:29Z</time>
      </trkpt>
      <trkpt lat="47.5303" lon="6.79162">
        <ele>326</ele>
        <time>2019-04-14T06:52:34Z</time>
      </trkpt>
      <trkpt lat="47.53034" lon="6.7914">
        <ele>326</ele>
        <time>2019-04-14T06:52:39Z</time>
      </trkpt>
      <trkpt lat="47.5304" lon="6.79117">
        <ele>326</ele>
        <time>2019-04-14T06:52:44Z</time>
      </trkpt>
      <trkpt lat="47.53048" lon="6.79097">
        <ele>326</ele>
        <time>2019-04-14T06:52:49Z</time>
      </trkpt>
      <trkpt lat="47.53059" lon="6.79079">
        <ele>326</ele>
        <time>2019-04-14T06:52:54Z</time>
      </trkpt>
      <trkpt lat="47.53075" lon="6.79062">
        <ele>325</ele>
        <time>2019-04-14T06:52:59Z</time>
      </trkpt>
      <trkpt lat="47.5309" lon="6.79048">
        <ele>326</ele>
        <time>2019-04-14T06:53:04Z</time>
      </trkpt>
      <trkpt lat="47.53108" lon="6.79033">
        <ele>326</ele>
        <time>2019-04-14T06:53:09Z</time>
      </trkpt>
      <trkpt lat="47.53122" lon="6.79017">
        <ele>326</ele>
        <time>2019-04-14T06:53:14Z</time>
      </trkpt>
      <trkpt lat="47.53136" lon="6.79">
        <ele>326</ele>
        <time>2019-04-14T06:53:19Z</time>
      </trkpt>
      <trkpt lat="47.53151" lon="6.78984">
        <ele>325</ele>
        <time>2019-04-14T06:53:24Z</time>
      </trkpt>
      <trkpt lat="47.53165" lon="6.78971">
        <ele>325</ele>
        <time>2019-04-14T06:53:29Z</time>
      </trkpt>
      <trkpt lat="47.53181" lon="6.78959">
        <ele>325</ele>
        <time>2019-04-14T06:53:34Z</time>
      </trkpt>
      <trkpt lat="47.53197" lon="6.78942">
        <ele>326</ele>
        <time>2019-04-14T06:53:39Z</time>
      </trkpt>
      <trkpt lat="47.53215" lon="6.7893">
        <ele>327</ele>
        <time>2019-04-14T06:53:44Z</time>
      </trkpt>
      <trkpt lat="47.53233" lon="6.78918">
        <ele>328</ele>
        <time>2019-04-14T06:53:49Z</time>
      </trkpt>
      <trkpt lat="47.53254" lon="6.78906">
        <ele>328</ele>
        <time>2019-04-14T06:53:54Z</time>
      </trkpt>
      <trkpt lat="47.53272" lon="6.78891">
        <ele>329</ele>
        <time>2019-04-14T06:53:59Z</time>
      </trkpt>
      <trkpt lat="47.53291" lon="6.78879">
        <ele>329</ele>
        <time>2019-04-14T06:54:04Z</time>
      </trkpt>
      <trkpt lat="47.53311" lon="6.78871">
        <ele>329</ele>
        <time>2019-04-14T06:54:09Z</time>
      </trkpt>
      <trkpt lat="47.53333" lon="6.78864">
        <ele>329</ele>
        <time>2019-04-14T06:54:14Z</time>
      </trkpt>
      <trkpt lat="47.53352" lon="6.78856">
        <ele>329</ele>
        <time>2019-04-14T06:54:19Z</time>
      </trkpt>
      <trkpt lat="47.53371" lon="6.78846">
        <ele>329</ele>
        <time>2019-04-14T06:54:24Z</time>
      </trkpt>
      <trkpt lat="47.53391" lon="6.78838">
        <ele>329</ele>
        <time>2019-04-14T06:54:29Z</time>
      </trkpt>
      <trkpt lat="47.53408" lon="6.78831">
        <ele>330</ele>
        <time>2019-04-14T06:54:34Z</time>
      </trkpt>
      <trkpt lat="47.53427" lon="6.78824">
        <ele>330</ele>
        <time>2019-04-14T06:54:39Z</time>
      </trkpt>
      <trkpt lat="47.53445" lon="6.78816">
        <ele>330</ele>
        <time>2019-04-14T06:54:44Z</time>
      </trkpt>
      <trkpt lat="47.53463" lon="6.78804">
        <ele>330</ele>
        <time>2019-04-14T06:54:49Z</time>
      </trkpt>
      <trkpt lat="47.53476" lon="6.78792">
        <ele>331</ele>
        <time>2019-04-14T06:54:54Z</time>
      </trkpt>
      <trkpt lat="47.5349" lon="6.78772">
        <ele>331</ele>
        <time>2019-04-14T06:54:59Z</time>
      </trkpt>
      <trkpt lat="47.535" lon="6.7875">
        <ele>332</ele>
        <time>2019-04-14T06:55:04Z</time>
      </trkpt>
      <trkpt lat="47.53506" lon="6.78722">
        <ele>332</ele>
        <time>2019-04-14T06:55:09Z</time>
      </trkpt>
      <trkpt lat="47.53508" lon="6.78691">
        <ele>333</ele>
        <time>2019-04-14T06:55:14Z</time>
      </trkpt>
      <trkpt lat="47.53508" lon="6.78663">
        <ele>334</ele>
        <time>2019-04-14T06:55:19Z</time>
      </trkpt>
      <trkpt lat="47.53507" lon="6.78638">
        <ele>336</ele>
        <time>2019-04-14T06:55:24Z</time>
      </trkpt>
      <trkpt lat="47.53505" lon="6.78614">
        <ele>337</ele>
        <time>2019-04-14T06:55:29Z</time>
      </trkpt>
      <trkpt lat="47.53505" lon="6.78589">
        <ele>339</ele>
        <time>2019-04-14T06:55:34Z</time>
      </trkpt>
      <trkpt lat="47.53505" lon="6.78561">
        <ele>340</ele>
        <time>2019-04-14T06:55:39Z</time>
      </trkpt>
      <trkpt lat="47.53503" lon="6.78529">
        <ele>340</ele>
        <time>2019-04-14T06:55:44Z</time>
      </trkpt>
      <trkpt lat="47.53503" lon="6.78496">
        <ele>338</ele>
        <time>2019-04-14T06:55:49Z</time>
      </trkpt>
      <trkpt lat="47.53504" lon="6.78462">
        <ele>336</ele>
        <time>2019-04-14T06:55:54Z</time>
      </trkpt>
      <trkpt lat="47.53511" lon="6.78428">
        <ele>332</ele>
        <time>2019-04-14T06:55:59Z</time>
      </trkpt>
      <trkpt lat="47.5352" lon="6.7839">
        <ele>329</ele>
        <time>2019-04-14T06:56:04Z</time>
      </trkpt>
      <trkpt lat="47.53531" lon="6.78353">
        <ele>326</ele>
        <time>2019-04-14T06:56:09Z</time>
      </trkpt>
      <trkpt lat="47.53541" lon="6.78321">
        <ele>325</ele>
        <time>2019-04-14T06:56:14Z</time>
      </trkpt>
      <trkpt lat="47.53553" lon="6.78286">
        <ele>324</ele>
        <time>2019-04-14T06:56:19Z</time>
      </trkpt>
      <trkpt lat="47.53567" lon="6.78252">
        <ele>324</ele>
        <time>2019-04-14T06:56:24Z</time>
      </trkpt>
      <trkpt lat="47.53581" lon="6.78221">
        <ele>324</ele>
        <time>2019-04-14T06:56:29Z</time>
      </trkpt>
      <trkpt lat="47.53593" lon="6.78195">
        <ele>324</ele>
        <time>2019-04-14T06:56:34Z</time>
      </trkpt>
      <trkpt lat="47.53616" lon="6.78171">
        <ele>325</ele>
        <time>2019-04-14T06:56:39Z</time>
      </trkpt>
      <trkpt lat="47.53638" lon="6.78148">
        <ele>325</ele>
        <time>2019-04-14T06:56:44Z</time>
      </trkpt>
      <trkpt lat="47.53663" lon="6.78124">
        <ele>326</ele>
        <time>2019-04-14T06:56:49Z</time>
      </trkpt>
      <trkpt lat="47.53685" lon="6.78102">
        <ele>327</ele>
        <time>2019-04-14T06:56:54Z</time>
      </trkpt>
      <trkpt lat="47.53702" lon="6.78083">
        <ele>327</ele>
        <time>2019-04-14T06:56:59Z</time>
      </trkpt>
      <trkpt lat="47.53696" lon="6.78054">
        <ele>327</ele>
        <time>2019-04-14T06:57:04Z</time>
      </trkpt>
      <trkpt lat="47.53691" lon="6.78033">
        <ele>327</ele>
        <time>2019-04-14T06:57:09Z</time>
      </trkpt>
      <trkpt lat="47.53687" lon="6.78011">
        <ele>327</ele>
        <time>2019-04-14T06:57:14Z</time>
      </trkpt>
      <trkpt lat="47.53685" lon="6.7799">
        <ele>328</ele>
        <time>2019-04-14T06:57:19Z</time>
      </trkpt>
      <trkpt lat="47.53683" lon="6.77964">
        <ele>329</ele>
        <time>2019-04-14T06:57:24Z</time>
      </trkpt>
      <trkpt lat="47.53679" lon="6.77944">
        <ele>330</ele>
        <time>2019-04-14T06:57:29Z</time>
      </trkpt>
      <trkpt lat="47.53677" lon="6.77926">
        <ele>332</ele>
        <time>2019-04-14T06:57:34Z</time>
      </trkpt>
      <trkpt lat="47.53674" lon="6.77903">
        <ele>333</ele>
        <time>2019-04-14T06:57:39Z</time>
      </trkpt>
      <trkpt lat="47.53669" lon="6.77882">
        <ele>335</ele>
        <time>2019-04-14T06:57:44Z</time>
      </trkpt>
      <trkpt lat="47.53667" lon="6.77863">
        <ele>337</ele>
        <time>2019-04-14T06:57:49Z</time>
      </trkpt>
      <trkpt lat="47.53663" lon="6.77845">
        <ele>339</ele>
        <time>2019-04-14T06:57:54Z</time>
      </trkpt>
      <trkpt lat="47.53659" lon="6.77819">
        <ele>340</ele>
        <time>2019-04-14T06:57:59Z</time>
      </trkpt>
      <trkpt lat="47.53656" lon="6.77797">
        <ele>342</ele>
        <time>2019-04-14T06:58:04Z</time>
      </trkpt>
      <trkpt lat="47.53648" lon="6.77778">
        <ele>344</ele>
        <time>2019-04-14T06:58:09Z</time>
      </trkpt>
      <trkpt lat="47.53639" lon="6.77755">
        <ele>346</ele>
        <time>2019-04-14T06:58:14Z</time>
      </trkpt>
      <trkpt lat="47.53632" lon="6.77738">
        <ele>348</ele>
        <time>2019-04-14T06:58:19Z</time>
      </trkpt>
      <trkpt lat="47.5362" lon="6.7772">
        <ele>350</ele>
        <time>2019-04-14T06:58:24Z</time>
      </trkpt>
      <trkpt lat="47.53609" lon="6.77704">
        <ele>351</ele>
        <time>2019-04-14T06:58:29Z</time>
      </trkpt>
      <trkpt lat="47.53599" lon="6.77686">
        <ele>352</ele>
        <time>2019-04-14T06:58:34Z</time>
      </trkpt>
      <trkpt lat="47.53594" lon="6.77671">
        <ele>353</ele>
        <time>2019-04-14T06:58:39Z</time>
      </trkpt>
      <trkpt lat="47.53583" lon="6.77652">
        <ele>354</ele>
        <time>2019-04-14T06:58:44Z</time>
      </trkpt>
      <trkpt lat="47.53571" lon="6.77631">
        <ele>355</ele>
        <time>2019-04-14T06:58:49Z</time>
      </trkpt>
      <trkpt lat="47.53562" lon="6.77616">
        <ele>356</ele>
        <time>2019-04-14T06:58:54Z</time>
      </trkpt>
      <trkpt lat="47.53553" lon="6.776">
        <ele>357</ele>
        <time>2019-04-14T06:58:59Z</time>
      </trkpt>
      <trkpt lat="47.53543" lon="6.77582">
        <ele>358</ele>
        <time>2019-04-14T06:59:04Z</time>
      </trkpt>
      <trkpt lat="47.53536" lon="6.77565">
        <ele>359</ele>
        <time>2019-04-14T06:59:09Z</time>
      </trkpt>
      <trkpt lat="47.53531" lon="6.77543">
        <ele>360</ele>
        <time>2019-04-14T06:59:14Z</time>
      </trkpt>
      <trkpt lat="47.53526" lon="6.77522">
        <ele>360</ele>
        <time>2019-04-14T06:59:19Z</time>
      </trkpt>
      <trkpt lat="47.53519" lon="6.77502">
        <ele>361</ele>
        <time>2019-04-14T06:59:24Z</time>
      </trkpt>
      <trkpt lat="47.5351" lon="6.77484">
        <ele>361</ele>
        <time>2019-04-14T06:59:29Z</time>
      </trkpt>
      <trkpt lat="47.53494" lon="6.77467">
        <ele>362</ele>
        <time>2019-04-14T06:59:34Z</time>
      </trkpt>
      <trkpt lat="47.53484" lon="6.77453">
        <ele>362</ele>
        <time>2019-04-14T06:59:39Z</time>
      </trkpt>
      <trkpt lat="47.53473" lon="6.77431">
        <ele>363</ele>
        <time>2019-04-14T06:59:44Z</time>
      </trkpt>
      <trkpt lat="47.53462" lon="6.77411">
        <ele>364</ele>
        <time>2019-04-14T06:59:49Z</time>
      </trkpt>
      <trkpt lat="47.53451" lon="6.77394">
        <ele>365</ele>
        <time>2019-04-14T06:59:54Z</time>
      </trkpt>
      <trkpt lat="47.53444" lon="6.77371">
        <ele>366</ele>
        <time>2019-04-14T06:59:59Z</time>
      </trkpt>
      <trkpt lat="47.53436" lon="6.77352">
        <ele>367</ele>
        <time>2019-04-14T07:00:04Z</time>
      </trkpt>
      <trkpt lat="47.5343" lon="6.77329">
        <ele>368</ele>
        <time>2019-04-14T07:00:09Z</time>
      </trkpt>
      <trkpt lat="47.53419" lon="6.77303">
        <ele>369</ele>
        <time>2019-04-14T07:00:14Z</time>
      </trkpt>
      <trkpt lat="47.5341" lon="6.77281">
        <ele>369</ele>
        <time>2019-04-14T07:00:19Z</time>
      </trkpt>
      <trkpt lat="47.534" lon="6.77256">
        <ele>369</ele>
        <time>2019-04-14T07:00:24Z</time>
      </trkpt>
      <trkpt lat="47.53389" lon="6.77228">
        <ele>370</ele>
        <time>2019-04-14T07:00:29Z</time>
      </trkpt>
      <trkpt lat="47.53386" lon="6.77204">
        <ele>370</ele>
        <time>2019-04-14T07:00:34Z</time>
      </trkpt>
      <trkpt lat="47.53388" lon="6.77178">
        <ele>370</ele>
        <time>2019-04-14T07:00:39Z</time>
      </trkpt>
      <trkpt lat="47.53392" lon="6.77161">
        <ele>371</ele>
        <time>2019-04-14T07:00:44Z</time>
      </trkpt>
      <trkpt lat="47.53393" lon="6.77134">
        <ele>371</ele>
        <time>2019-04-14T07:00:49Z</time>
      </trkpt>
      <trkpt lat="47.53389" lon="6.77117">
        <ele>371</ele>
        <time>2019-04-14T07:00:54Z</time>
      </trkpt>
      <trkpt lat="47.53387" lon="6.77092">
        <ele>370</ele>
        <time>2019-04-14T07:00:59Z</time>
      </trkpt>
      <trkpt lat="47.53386" lon="6.77067">
        <ele>370</ele>
        <time>2019-04-14T07:01:04Z</time>
      </trkpt>
      <trkpt lat="47.53384" lon="6.77047">
        <ele>370</ele>
        <time>2019-04-14T07:01:09Z</time>
      </trkpt>
      <trkpt lat="47.53381" lon="6.77029">
        <ele>370</ele>
        <time>2019-04-14T07:01:14Z</time>
      </trkpt>
      <trkpt lat="47.53383" lon="6.77007">
        <ele>370</ele>
        <time>2019-04-14T07:01:19Z</time>
      </trkpt>
      <trkpt lat="47.53379" lon="6.76986">
        <ele>370</ele>
        <time>2019-04-14T07:01:24Z</time>
      </trkpt>
      <trkpt lat="47.53375" lon="6.76969">
        <ele>370</ele>
        <time>2019-04-14T07:01:29Z</time>
      </trkpt>
      <trkpt lat="47.53372" lon="6.76954">
        <ele>371</ele>
        <time>2019-04-14T07:01:34Z</time>
      </trkpt>
      <trkpt lat="47.53366" lon="6.76937">
        <ele>371</ele>
        <time>2019-04-14T07:01:39Z</time>
      </trkpt>
      <trkpt lat="47.53358" lon="6.76921">
        <ele>372</ele>
        <time>2019-04-14T07:01:44Z</time>
      </trkpt>
      <trkpt lat="47.53355" lon="6.76909">
        <ele>372</ele>
        <time>2019-04-14T07:01:49Z</time>
      </trkpt>
      <trkpt lat="47.53359" lon="6.76893">
        <ele>373</ele>
        <time>2019-04-14T07:01:54Z</time>
      </trkpt>
      <trkpt lat="47.53357" lon="6.7687">
        <ele>373</ele>
        <time>2019-04-14T07:01:59Z</time>
      </trkpt>
      <trkpt lat="47.53353" lon="6.76849">
        <ele>374</ele>
        <time>2019-04-14T07:02:04Z</time>
      </trkpt>
      <trkpt lat="47.53346" lon="6.76829">
        <ele>375</ele>
        <time>2019-04-14T07:02:09Z</time>
      </trkpt>
      <trkpt lat="47.53338" lon="6.76811">
        <ele>376</ele>
        <time>2019-04-14T07:02:14Z</time>
      </trkpt>
      <trkpt lat="47.53327" lon="6.76795">
        <ele>377</ele>
        <time>2019-04-14T07:02:19Z</time>
      </trkpt>
      <trkpt lat="47.53305" lon="6.76776">
        <ele>378</ele>
        <time>2019-04-14T07:02:24Z</time>
      </trkpt>
      <trkpt lat="47.53282" lon="6.76761">
        <ele>378</ele>
        <time>2019-04-14T07:02:29Z</time>
      </trkpt>
      <trkpt lat="47.5326" lon="6.76748">
        <ele>378</ele>
        <time>2019-04-14T07:02:34Z</time>
      </trkpt>
      <trkpt lat="47.53244" lon="6.76741">
        <ele>377</ele>
        <time>2019-04-14T07:02:39Z</time>
      </trkpt>
      <trkpt lat="47.53222" lon="6.76723">
        <ele>377</ele>
        <time>2019-04-14T07:02:44Z</time>
      </trkpt>
      <trkpt lat="47.53205" lon="6.76708">
        <ele>376</ele>
        <time>2019-04-14T07:02:49Z</time>
      </trkpt>
      <trkpt lat="47.53186" lon="6.76687">
        <ele>376</ele>
        <time>2019-04-14T07:02:54Z</time>
      </trkpt>
      <trkpt lat="47.53172" lon="6.76672">
        <ele>375</ele>
        <time>2019-04-14T07:02:59Z</time>
      </trkpt>
      <trkpt lat="47.53153" lon="6.76653">
        <ele>374</ele>
        <time>2019-04-14T07:03:04Z</time>
      </trkpt>
      <trkpt lat="47.53137" lon="6.76629">
        <ele>372</ele>
        <time>2019-04-14T07:03:09Z</time>
      </trkpt>
      <trkpt lat="47.5314" lon="6.766">
        <ele>371</ele>
        <time>2019-04-14T07:03:14Z</time>
      </trkpt>
      <trkpt lat="47.53144" lon="6.76579">
        <ele>370</ele>
        <time>2019-04-14T07:03:19Z</time>
      </trkpt>
      <trkpt lat="47.53148" lon="6.76555">
        <ele>370</ele>
        <time>2019-04-14T07:03:24Z</time>
      </trkpt>
      <trkpt lat="47.53157" lon="6.76524">
        <ele>371</ele>
        <time>2019-04-14T07:03:29Z</time>
      </trkpt>
      <trkpt lat="47.5316" lon="6.76504">
        <ele>372</ele>
        <time>2019-04-14T07:03:34Z</time>
      </trkpt>
      <trkpt lat="47.53166" lon="6.76479">
        <ele>373</ele>
        <time>2019-04-14T07:03:39Z</time>
      </trkpt>
      <trkpt lat="47.53171" lon="6.76456">
        <ele>373</ele>
        <time>2019-04-14T07:03:44Z</time>
      </trkpt>
      <trkpt lat="47.53173" lon="6.76436">
        <ele>373</ele>
        <time>2019-04-14T07:03:49Z</time>
      </trkpt>
      <trkpt lat="47.53177" lon="6.76412">
        <ele>373</ele>
        <time>2019-04-14T07:03:54Z</time>
      </trkpt>
      <trkpt lat="47.53186" lon="6.76389">
        <ele>373</ele>
        <time>2019-04-14T07:03:59Z</time>
      </trkpt>
      <trkpt lat="47.53191" lon="6.76358">
        <ele>373</ele>
        <time>2019-04-14T07:04:04Z</time>
      </trkpt>
      <trkpt lat="47.53195" lon="6.76332">
        <ele>373</ele>
        <time>2019-04-14T07:04:09Z</time>
      </trkpt>
      <trkpt lat="47.53199" lon="6.76305">
        <ele>373</ele>
        <time>2019-04-14T07:04:14Z</time>
      </trkpt>
      <trkpt lat="47.53206" lon="6.76275">
        <ele>373</ele>
        <time>2019-04-14T07:04:19Z</time>
      </trkpt>
      <trkpt lat="47.53211" lon="6.7625">
        <ele>373</ele>
        <time>2019-04-14T07:04:24Z</time>
      </trkpt>
      <trkpt lat="47.53217" lon="6.76214">
        <ele>373</ele>
        <time>2019-04-14T07:04:29Z</time>
      </trkpt>
      <trkpt lat="47.53211" lon="6.76187">
        <ele>372</ele>
        <time>2019-04-14T07:04:34Z</time>
      </trkpt>
      <trkpt lat="47.53204" lon="6.76158">
        <ele>371</ele>
        <time>2019-04-14T07:04:39Z</time>
      </trkpt>
      <trkpt lat="47.53206" lon="6.76144">
        <ele>371</ele>
        <time>2019-04-14T07:04:44Z</time>
      </trkpt>
      <trkpt lat="47.53212" lon="6.76122">
        <ele>370</ele>
        <time>2019-04-14T07:04:49Z</time>
      </trkpt>
      <trkpt lat="47.53215" lon="6.76096">
        <ele>370</ele>
        <time>2019-04-14T07:04:54Z</time>
      </trkpt>
      <trkpt lat="47.53214" lon="6.7608">
        <ele>370</ele>
        <time>2019-04-14T07:04:59Z</time>
      </trkpt>
      <trkpt lat="47.5321" lon="6.76055">
        <ele>370</ele>
        <time>2019-04-14T07:05:04Z</time>
      </trkpt>
      <trkpt lat="47.53211" lon="6.76029">
        <ele>371</ele>
        <time>2019-04-14T07:05:09Z</time>
      </trkpt>
      <trkpt lat="47.53207" lon="6.76004">
        <ele>371</ele>
        <time>2019-04-14T07:05:14Z</time>
      </trkpt>
      <trkpt lat="47.53202" lon="6.75977">
        <ele>372</ele>
        <time>2019-04-14T07:05:19Z</time>
      </trkpt>
      <trkpt lat="47.53198" lon="6.75947">
        <ele>372</ele>
        <time>2019-04-14T07:05:24Z</time>
      </trkpt>
      <trkpt lat="47.53191" lon="6.75918">
        <ele>373</ele>
        <time>2019-04-14T07:05:29Z</time>
      </trkpt>
      <trkpt lat="47.53179" lon="6.75907">
        <ele>373</ele>
        <time>2019-04-14T07:05:34Z</time>
      </trkpt>
      <trkpt lat="47.53162" lon="6.75916">
        <ele>374</ele>
        <time>2019-04-14T07:05:39Z</time>
      </trkpt>
      <trkpt lat="47.53141" lon="6.75921">
        <ele>374</ele>
        <time>2019-04-14T07:05:44Z</time>
      </trkpt>
      <trkpt lat="47.53125" lon="6.75925">
        <ele>375</ele>
        <time>2019-04-14T07:05:49Z</time>
      </trkpt>
      <trkpt lat="47.53109" lon="6.75931">
        <ele>375</ele>
        <time>2019-04-14T07:05:54Z</time>
      </trkpt>
      <trkpt lat="47.53091" lon="6.75935">
        <ele>376</ele>
        <time>2019-04-14T07:05:59Z</time>
      </trkpt>
      <trkpt lat="47.53073" lon="6.75941">
        <ele>377</ele>
        <time>2019-04-14T07:06:04Z</time>
      </trkpt>
      <trkpt lat="47.53056" lon="6.75943">
        <ele>378</ele>
        <time>2019-04-14T07:06:09Z</time>
      </trkpt>
      <trkpt lat="47.53038" lon="6.7595">
        <ele>378</ele>
        <time>2019-04-14T07:06:14Z</time>
      </trkpt>
      <trkpt lat="47.53022" lon="6.75954">
        <ele>379</ele>
        <time>2019-04-14T07:06:19Z</time>
      </trkpt>
      <trkpt lat="47.53003" lon="6.7596">
        <ele>380</ele>
        <time>2019-04-14T07:06:24Z</time>
      </trkpt>
      <trkpt lat="47.52982" lon="6.75967">
        <ele>380</ele>
        <time>2019-04-14T07:06:29Z</time>
      </trkpt>
      <trkpt lat="47.52969" lon="6.75974">
        <ele>381</ele>
        <time>2019-04-14T07:06:34Z</time>
      </trkpt>
      <trkpt lat="47.5296" lon="6.75969">
        <ele>382</ele>
        <time>2019-04-14T07:06:39Z</time>
      </trkpt>
      <trkpt lat="47.52942" lon="6.75972">
        <ele>382</ele>
        <time>2019-04-14T07:06:44Z</time>
      </trkpt>
      <trkpt lat="47.5293" lon="6.75952">
        <ele>383</ele>
        <time>2019-04-14T07:06:49Z</time>
      </trkpt>
      <trkpt lat="47.52927" lon="6.75916">
        <ele>382</ele>
        <time>2019-04-14T07:06:54Z</time>
      </trkpt>
      <trkpt lat="47.52919" lon="6.75891">
        <ele>382</ele>
        <time>2019-04-14T07:06:59Z</time>
      </trkpt>
      <trkpt lat="47.52908" lon="6.75864">
        <ele>382</ele>
        <time>2019-04-14T07:07:04Z</time>
      </trkpt>
      <trkpt lat="47.52904" lon="6.75847">
        <ele>382</ele>
        <time>2019-04-14T07:07:09Z</time>
      </trkpt>
      <trkpt lat="47.52917" lon="6.75838">
        <ele>382</ele>
        <time>2019-04-14T07:07:14Z</time>
      </trkpt>
      <trkpt lat="47.52918" lon="6.7583">
        <ele>382</ele>
        <time>2019-04-14T07:07:19Z</time>
      </trkpt>
      <trkpt lat="47.52918" lon="6.75807">
        <ele>381</ele>
        <time>2019-04-14T07:07:24Z</time>
      </trkpt>
      <trkpt lat="47.52922" lon="6.75791">
        <ele>381</ele>
        <time>2019-04-14T07:07:29Z</time>
      </trkpt>
      <trkpt lat="47.52936" lon="6.75781">
        <ele>381</ele>
        <time>2019-04-14T07:07:34Z</time>
      </trkpt>
      <trkpt lat="47.52954" lon="6.75772">
        <ele>381</ele>
        <time>2019-04-14T07:07:39Z</time>
      </trkpt>
      <trkpt lat="47.52973" lon="6.75757">
        <ele>381</ele>
        <time>2019-04-14T07:07:44Z</time>
      </trkpt>
      <trkpt lat="47.5299" lon="6.75724">
        <ele>381</ele>
        <time>2019-04-14T07:07:49Z</time>
      </trkpt>
      <trkpt lat="47.53004" lon="6.75692">
        <ele>380</ele>
        <time>2019-04-14T07:07:54Z</time>
      </trkpt>
      <trkpt lat="47.53014" lon="6.75655">
        <ele>379</ele>
        <time>2019-04-14T07:07:59Z</time>
      </trkpt>
      <trkpt lat="47.53004" lon="6.75616">
        <ele>376</ele>
        <time>2019-04-14T07:08:04Z</time>
      </trkpt>
      <trkpt lat="47.52986" lon="6.75602">
        <ele>373</ele>
        <time>2019-04-14T07:08:09Z</time>
      </trkpt>
      <trkpt lat="47.52982" lon="6.75582">
        <ele>370</ele>
        <time>2019-04-14T07:08:14Z</time>
      </trkpt>
      <trkpt lat="47.52988" lon="6.75564">
        <ele>367</ele>
        <time>2019-04-14T07:08:19Z</time>
      </trkpt>
      <trkpt lat="47.53" lon="6.75554">
        <ele>365</ele>
        <time>2019-04-14T07:08:24Z</time>
      </trkpt>
      <trkpt lat="47.53009" lon="6.75545">
        <ele>364</ele>
        <time>2019-04-14T07:08:29Z</time>
      </trkpt>
      <trkpt lat="47.5302" lon="6.75542">
        <ele>365</ele>
        <time>2019-04-14T07:08:34Z</time>
      </trkpt>
      <trkpt lat="47.53033" lon="6.75543">
        <ele>365</ele>
        <time>2019-04-14T07:08:39Z</time>
      </trkpt>
      <trkpt lat="47.53043" lon="6.75534">
        <ele>366</ele>
        <time>2019-04-14T07:08:44Z</time>
      </trkpt>
      <trkpt lat="47.53051" lon="6.75524">
        <ele>366</ele>
        <time>2019-04-14T07:08:49Z</time>
      </trkpt>
      <trkpt lat="47.53063" lon="6.75513">
        <ele>367</ele>
        <time>2019-04-14T07:08:54Z</time>
      </trkpt>
      <trkpt lat="47.5307" lon="6.75503">
        <ele>368</ele>
        <time>2019-04-14T07:08:59Z</time>
      </trkpt>
      <trkpt lat="47.53077" lon="6.75494">
        <ele>368</ele>
        <time>2019-04-14T07:09:04Z</time>
      </trkpt>
      <trkpt lat="47.53085" lon="6.75485">
        <ele>369</ele>
        <time>2019-04-14T07:09:09Z</time>
      </trkpt>
      <trkpt lat="47.53092" lon="6.75479">
        <ele>370</ele>
        <time>2019-04-14T07:09:14Z</time>
      </trkpt>
      <trkpt lat="47.53102" lon="6.75471">
        <ele>371</ele>
        <time>2019-04-14T07:09:19Z</time>
      </trkpt>
      <trkpt lat="47.53109" lon="6.75466">
        <ele>372</ele>
        <time>2019-04-14T07:09:24Z</time>
      </trkpt>
      <trkpt lat="47.53114" lon="6.75459">
        <ele>373</ele>
        <time>2019-04-14T07:09:29Z</time>
      </trkpt>
      <trkpt lat="47.53122" lon="6.75454">
        <ele>374</ele>
        <time>2019-04-14T07:09:34Z</time>
      </trkpt>
      <trkpt lat="47.53132" lon="6.7545">
        <ele>376</ele>
        <time>2019-04-14T07:09:39Z</time>
      </trkpt>
      <trkpt lat="47.53138" lon="6.75447">
        <ele>378</ele>
        <time>2019-04-14T07:09:44Z</time>
      </trkpt>
      <trkpt lat="47.53144" lon="6.75444">
        <ele>380</ele>
        <time>2019-04-14T07:09:49Z</time>
      </trkpt>
      <trkpt lat="47.53152" lon="6.75432">
        <ele>382</ele>
        <time>2019-04-14T07:09:54Z</time>
      </trkpt>
      <trkpt lat="47.53159" lon="6.75421">
        <ele>383</ele>
        <time>2019-04-14T07:09:59Z</time>
      </trkpt>
      <trkpt lat="47.53166" lon="6.75413">
        <ele>384</ele>
        <time>2019-04-14T07:10:04Z</time>
      </trkpt>
      <trkpt lat="47.53171" lon="6.75406">
        <ele>385</ele>
        <time>2019-04-14T07:10:09Z</time>
      </trkpt>
      <trkpt lat="47.53178" lon="6.75397">
        <ele>385</ele>
        <time>2019-04-14T07:10:14Z</time>
      </trkpt>
      <trkpt lat="47.53183" lon="6.75392">
        <ele>385</ele>
        <time>2019-04-14T07:10:19Z</time>
      </trkpt>
      <trkpt lat="47.53186" lon="6.75381">
        <ele>385</ele>
        <time>2019-04-14T07:10:24Z</time>
      </trkpt>
      <trkpt lat="47.53192" lon="6.75383">
        <ele>385</ele>
        <time>2019-04-14T07:10:29Z</time>
      </trkpt>
      <trkpt lat="47.53202" lon="6.75388">
        <ele>385</ele>
        <time>2019-04-14T07:10:34Z</time>
      </trkpt>
      <trkpt lat="47.53207" lon="6.75391">
        <ele>386</ele>
        <time>2019-04-14T07:10:39Z</time>
      </trkpt>
      <trkpt lat="47.53219" lon="6.75397">
        <ele>387</ele>
        <time>2019-04-14T07:10:44Z</time>
      </trkpt>
      <trkpt lat="47.5323" lon="6.75398">
        <ele>388</ele>
        <time>2019-04-14T07:10:49Z</time>
      </trkpt>
      <trkpt lat="47.53235" lon="6.75394">
        <ele>389</ele>
        <time>2019-04-14T07:10:54Z</time>
      </trkpt>
      <trkpt lat="47.53239" lon="6.75386">
        <ele>390</ele>
        <time>2019-04-14T07:10:59Z</time>
      </trkpt>
      <trkpt lat="47.53249" lon="6.75377">
        <ele>391</ele>
        <time>2019-04-14T07:11:04Z</time>
      </trkpt>
      <trkpt lat="47.53255" lon="6.75364">
        <ele>392</ele>
        <time>2019-04-14T07:11:09Z</time>
      </trkpt>
      <trkpt lat="47.5326" lon="6.75355">
        <ele>393</ele>
        <time>2019-04-14T07:11:14Z</time>
      </trkpt>
      <trkpt lat="47.53265" lon="6.75351">
        <ele>393</ele>
        <time>2019-04-14T07:11:19Z</time>
      </trkpt>
      <trkpt lat="47.53271" lon="6.75347">
        <ele>394</ele>
        <time>2019-04-14T07:11:24Z</time>
      </trkpt>
      <trkpt lat="47.53275" lon="6.75341">
        <ele>395</ele>
        <time>2019-04-14T07:11:29Z</time>
      </trkpt>
      <trkpt lat="47.53281" lon="6.75338">
        <ele>396</ele>
        <time>2019-04-14T07:11:34Z</time>
      </trkpt>
      <trkpt lat="47.53288" lon="6.75334">
        <ele>397</ele>
        <time>2019-04-14T07:11:39Z</time>
      </trkpt>
      <trkpt lat="47.53293" lon="6.7533">
        <ele>398</ele>
        <time>2019-04-14T07:11:44Z</time>
      </trkpt>
      <trkpt lat="47.53299" lon="6.75329">
        <ele>400</ele>
        <time>2019-04-14T07:11:49Z</time>
      </trkpt>
      <trkpt lat="47.53304" lon="6.75327">
        <ele>400</ele>
        <time>2019-04-14T07:11:54Z</time>
      </trkpt>
      <trkpt lat="47.5331" lon="6.75324">
        <ele>401</ele>
        <time>2019-04-14T07:11:59Z</time>
      </trkpt>
      <trkpt lat="47.53317" lon="6.75319">
        <ele>402</ele>
        <time>2019-04-14T07:12:04Z</time>
      </trkpt>
      <trkpt lat="47.53325" lon="6.75314">
        <ele>402</ele>
        <time>2019-04-14T07:12:09Z</time>
      </trkpt>
      <trkpt lat="47.53329" lon="6.75312">
        <ele>403</ele>
        <time>2019-04-14T07:12:14Z</time>
      </trkpt>
      <trkpt lat="47.53335" lon="6.75309">
        <ele>404</ele>
        <time>2019-04-14T07:12:19Z</time>
      </trkpt>
      <trkpt lat="47.53344" lon="6.75307">
        <ele>405</ele>
        <time>2019-04-14T07:12:24Z</time>
      </trkpt>
      <trkpt lat="47.53351" lon="6.75304">
        <ele>405</ele>
        <time>2019-04-14T07:12:29Z</time>
      </trkpt>
      <trkpt lat="47.53358" lon="6.75297">
        <ele>406</ele>
        <time>2019-04-14T07:12:34Z</time>
      </trkpt>
      <trkpt lat="47.53366" lon="6.75293">
        <ele>407</ele>
        <time>2019-04-14T07:12:39Z</time>
      </trkpt>
      <trkpt lat="47.53373" lon="6.7529">
        <ele>408</ele>
        <time>2019-04-14T07:12:44Z</time>
      </trkpt>
      <trkpt lat="47.53384" lon="6.75285">
        <ele>409</ele>
        <time>2019-04-14T07:12:49Z</time>
      </trkpt>
      <trkpt lat="47.53392" lon="6.75283">
        <ele>410</ele>
        <time>2019-04-14T07:12:54Z</time>
      </trkpt>
      <trkpt lat="47.53398" lon="6.75278">
        <ele>411</ele>
        <time>2019-04-14T07:12:59Z</time>
      </trkpt>
      <trkpt lat="47.53407" lon="6.75274">
        <ele>412</ele>
        <time>2019-04-14T07:13:04Z</time>
      </trkpt>
      <trkpt lat="47.53418" lon="6.75266">
        <ele>413</ele>
        <time>2019-04-14T07:13:09Z</time>
      </trkpt>
      <trkpt lat="47.53428" lon="6.7526">
        <ele>414</ele>
        <time>2019-04-14T07:13:14Z</time>
      </trkpt>
      <trkpt lat="47.53441" lon="6.75258">
        <ele>415</ele>
        <time>2019-04-14T07:13:19Z</time>
      </trkpt>
      <trkpt lat="47.53449" lon="6.75258">
        <ele>416</ele>
        <time>2019-04-14T07:13:24Z</time>
      </trkpt>
      <trkpt lat="47.53458" lon="6.75258">
        <ele>417</ele>
        <time>2019-04-14T07:13:29Z</time>
      </trkpt>
      <trkpt lat="47.53471" lon="6.7526">
        <ele>418</ele>
        <time>2019-04-14T07:13:34Z</time>
      </trkpt>
      <trkpt lat="47.53485" lon="6.75259">
        <ele>419</ele>
        <time>2019-04-14T07:13:39Z</time>
      </trkpt>
      <trkpt lat="47.53496" lon="6.75258">
        <ele>420</ele>
        <time>2019-04-14T07:13:44Z</time>
      </trkpt>
      <trkpt lat="47.53509" lon="6.75258">
        <ele>421</ele>
        <time>2019-04-14T07:13:49Z</time>
      </trkpt>
      <trkpt lat="47.53518" lon="6.7526">
        <ele>422</ele>
        <time>2019-04-14T07:13:54Z</time>
      </trkpt>
      <trkpt lat="47.53535" lon="6.75259">
        <ele>423</ele>
        <time>2019-04-14T07:13:59Z</time>
      </trkpt>
      <trkpt lat="47.53547" lon="6.75262">
        <ele>424</ele>
        <time>2019-04-14T07:14:04Z</time>
      </trkpt>
      <trkpt lat="47.53552" lon="6.75259">
        <ele>424</ele>
        <time>2019-04-14T07:14:09Z</time>
      </trkpt>
      <trkpt lat="47.53561" lon="6.75254">
        <ele>425</ele>
        <time>2019-04-14T07:14:14Z</time>
      </trkpt>
      <trkpt lat="47.53572" lon="6.75254">
        <ele>425</ele>
        <time>2019-04-14T07:14:19Z</time>
      </trkpt>
      <trkpt lat="47.53583" lon="6.75252">
        <ele>426</ele>
        <time>2019-04-14T07:14:24Z</time>
      </trkpt>
      <trkpt lat="47.53592" lon="6.75246">
        <ele>426</ele>
        <time>2019-04-14T07:14:29Z</time>
      </trkpt>
      <trkpt lat="47.53604" lon="6.75238">
        <ele>426</ele>
        <time>2019-04-14T07:14:34Z</time>
      </trkpt>
      <trkpt lat="47.53614" lon="6.75232">
        <ele>426</ele>
        <time>2019-04-14T07:14:39Z</time>
      </trkpt>
      <trkpt lat="47.53623" lon="6.75232">
        <ele>426</ele>
        <time>2019-04-14T07:14:44Z</time>
      </trkpt>
      <trkpt lat="47.53629" lon="6.75229">
        <ele>427</ele>
        <time>2019-04-14T07:14:49Z</time>
      </trkpt>
      <trkpt lat="47.53636" lon="6.75224">
        <ele>427</ele>
        <time>2019-04-14T07:14:54Z</time>
      </trkpt>
      <trkpt lat="47.53643" lon="6.75221">
        <ele>426</ele>
        <time>2019-04-14T07:14:59Z</time>
      </trkpt>
      <trkpt lat="47.53651" lon="6.75218">
        <ele>426</ele>
        <time>2019-04-14T07:15:04Z</time>
      </trkpt>
      <trkpt lat="47.53656" lon="6.75217">
        <ele>426</ele>
        <time>2019-04-14T07:15:09Z</time>
      </trkpt>
      <trkpt lat="47.53662" lon="6.75214">
        <ele>427</ele>
        <time>2019-04-14T07:15:14Z</time>
      </trkpt>
      <trkpt lat="47.53666" lon="6.75204">
        <ele>427</ele>
        <time>2019-04-14T07:15:19Z</time>
      </trkpt>
      <trkpt lat="47.53666" lon="6.75194">
        <ele>427</ele>
        <time>2019-04-14T07:15:24Z</time>
      </trkpt>
      <trkpt lat="47.53672" lon="6.75185">
        <ele>428</ele>
        <time>2019-04-14T07:15:29Z</time>
      </trkpt>
      <trkpt lat="47.53677" lon="6.75176">
        <ele>428</ele>
        <time>2019-04-14T07:15:34Z</time>
      </trkpt>
      <trkpt lat="47.53679" lon="6.75168">
        <ele>428</ele>
        <time>2019-04-14T07:15:40Z</time>
      </trkpt>
      <trkpt lat="47.53684" lon="6.75157">
        <ele>428</ele>
        <time>2019-04-14T07:15:45Z</time>
      </trkpt>
      <trkpt lat="47.53688" lon="6.75148">
        <ele>428</ele>
        <time>2019-04-14T07:15:50Z</time>
      </trkpt>
      <trkpt lat="47.53692" lon="6.75136">
        <ele>428</ele>
        <time>2019-04-14T07:15:55Z</time>
      </trkpt>
      <trkpt lat="47.53695" lon="6.75128">
        <ele>428</ele>
        <time>2019-04-14T07:16:00Z</time>
      </trkpt>
      <trkpt lat="47.53698" lon="6.7512">
        <ele>428</ele>
        <time>2019-04-14T07:16:05Z</time>
      </trkpt>
      <trkpt lat="47.53703" lon="6.75108">
        <ele>429</ele>
        <time>2019-04-14T07:16:10Z</time>
      </trkpt>
      <trkpt lat="47.5371" lon="6.75096">
        <ele>429</ele>
        <time>2019-04-14T07:16:15Z</time>
      </trkpt>
      <trkpt lat="47.53719" lon="6.75082">
        <ele>429</ele>
        <time>2019-04-14T07:16:20Z</time>
      </trkpt>
      <trkpt lat="47.53729" lon="6.75063">
        <ele>429</ele>
        <time>2019-04-14T07:16:25Z</time>
      </trkpt>
      <trkpt lat="47.53729" lon="6.7504">
        <ele>429</ele>
        <time>2019-04-14T07:16:30Z</time>
      </trkpt>
      <trkpt lat="47.53719" lon="6.7503">
        <ele>429</ele>
        <time>2019-04-14T07:16:35Z</time>
      </trkpt>
      <trkpt lat="47.53717" lon="6.75025">
        <ele>429</ele>
        <time>2019-04-14T07:16:59Z</time>
      </trkpt>
      <trkpt lat="47.53717" lon="6.75025">
        <ele>429</ele>
        <time>2019-04-14T07:17:01Z</time>
      </trkpt>
      <trkpt lat="47.53717" lon="6.75025">
        <ele>429</ele>
        <time>2019-04-14T07:17:29Z</time>
      </trkpt>
      <trkpt lat="47.53717" lon="6.75025">
        <ele>428</ele>
        <time>2019-04-14T07:17:31Z</time>
      </trkpt>
      <trkpt lat="47.53718" lon="6.75024">
        <ele>428</ele>
        <time>2019-04-14T07:17:59Z</time>
      </trkpt>
      <trkpt lat="47.53718" lon="6.75024">
        <ele>428</ele>
        <time>2019-04-14T07:18:01Z</time>
      </trkpt>
      <trkpt lat="47.53714" lon="6.75019">
        <ele>428</ele>
        <time>2019-04-14T07:18:23Z</time>
      </trkpt>
      <trkpt lat="47.53709" lon="6.75011">
        <ele>428</ele>
        <time>2019-04-14T07:18:28Z</time>
      </trkpt>
      <trkpt lat="47.53698" lon="6.74997">
        <ele>428</ele>
        <time>2019-04-14T07:18:33Z</time>
      </trkpt>
      <trkpt lat="47.53685" lon="6.74981">
        <ele>428</ele>
        <time>2019-04-14T07:18:38Z</time>
      </trkpt>
      <trkpt lat="47.53675" lon="6.74966">
        <ele>427</ele>
        <time>2019-04-14T07:18:43Z</time>
      </trkpt>
      <trkpt lat="47.53662" lon="6.74953">
        <ele>427</ele>
        <time>2019-04-14T07:18:48Z</time>
      </trkpt>
      <trkpt lat="47.53649" lon="6.7494">
        <ele>427</ele>
        <time>2019-04-14T07:18:53Z</time>
      </trkpt>
      <trkpt lat="47.53637" lon="6.74924">
        <ele>427</ele>
        <time>2019-04-14T07:18:58Z</time>
      </trkpt>
      <trkpt lat="47.53627" lon="6.7491">
        <ele>428</ele>
        <time>2019-04-14T07:19:03Z</time>
      </trkpt>
      <trkpt lat="47.53616" lon="6.74895">
        <ele>428</ele>
        <time>2019-04-14T07:19:08Z</time>
      </trkpt>
      <trkpt lat="47.53605" lon="6.7488">
        <ele>428</ele>
        <time>2019-04-14T07:19:13Z</time>
      </trkpt>
      <trkpt lat="47.53593" lon="6.74866">
        <ele>428</ele>
        <time>2019-04-14T07:19:18Z</time>
      </trkpt>
      <trkpt lat="47.53582" lon="6.74855">
        <ele>429</ele>
        <time>2019-04-14T07:19:23Z</time>
      </trkpt>
      <trkpt lat="47.53573" lon="6.74837">
        <ele>429</ele>
        <time>2019-04-14T07:19:28Z</time>
      </trkpt>
      <trkpt lat="47.53563" lon="6.74822">
        <ele>429</ele>
        <time>2019-04-14T07:19:33Z</time>
      </trkpt>
      <trkpt lat="47.5355" lon="6.74811">
        <ele>430</ele>
        <time>2019-04-14T07:19:38Z</time>
      </trkpt>
      <trkpt lat="47.53539" lon="6.74797">
        <ele>431</ele>
        <time>2019-04-14T07:19:43Z</time>
      </trkpt>
      <trkpt lat="47.53527" lon="6.7478">
        <ele>431</ele>
        <time>2019-04-14T07:19:48Z</time>
      </trkpt>
      <trkpt lat="47.53516" lon="6.74765">
        <ele>432</ele>
        <time>2019-04-14T07:19:53Z</time>
      </trkpt>
      <trkpt lat="47.53507" lon="6.74747">
        <ele>433</ele>
        <time>2019-04-14T07:19:58Z</time>
      </trkpt>
      <trkpt lat="47.53495" lon="6.74726">
        <ele>434</ele>
        <time>2019-04-14T07:20:03Z</time>
      </trkpt>
      <trkpt lat="47.53481" lon="6.74702">
        <ele>435</ele>
        <time>2019-04-14T07:20:08Z</time>
      </trkpt>
      <trkpt lat="47.5347" lon="6.74683">
        <ele>435</ele>
        <time>2019-04-14T07:20:13Z</time>
      </trkpt>
      <trkpt lat="47.53458" lon="6.7466">
        <ele>435</ele>
        <time>2019-04-14T07:20:18Z</time>
      </trkpt>
      <trkpt lat="47.53446" lon="6.74636">
        <ele>436</ele>
        <time>2019-04-14T07:20:23Z</time>
      </trkpt>
      <trkpt lat="47.53433" lon="6.7462">
        <ele>436</ele>
        <time>2019-04-14T07:20:28Z</time>
      </trkpt>
      <trkpt lat="47.53418" lon="6.74604">
        <ele>436</ele>
        <time>2019-04-14T07:20:33Z</time>
      </trkpt>
      <trkpt lat="47.53397" lon="6.74595">
        <ele>436</ele>
        <time>2019-04-14T07:20:38Z</time>
      </trkpt>
      <trkpt lat="47.53379" lon="6.74586">
        <ele>436</ele>
        <time>2019-04-14T07:20:43Z</time>
      </trkpt>
      <trkpt lat="47.53363" lon="6.74576">
        <ele>436</ele>
        <time>2019-04-14T07:20:48Z</time>
      </trkpt>
      <trkpt lat="47.53341" lon="6.74563">
        <ele>436</ele>
        <time>2019-04-14T07:20:53Z</time>
      </trkpt>
      <trkpt lat="47.53324" lon="6.74542">
        <ele>436</ele>
        <time>2019-04-14T07:20:58Z</time>
      </trkpt>
      <trkpt lat="47.53292" lon="6.74521">
        <ele>436</ele>
        <time>2019-04-14T07:21:03Z</time>
      </trkpt>
      <trkpt lat="47.53262" lon="6.74502">
        <ele>436</ele>
        <time>2019-04-14T07:21:08Z</time>
      </trkpt>
      <trkpt lat="47.53234" lon="6.74486">
        <ele>435</ele>
        <time>2019-04-14T07:21:13Z</time>
      </trkpt>
      <trkpt lat="47.53199" lon="6.74458">
        <ele>434</ele>
        <time>2019-04-14T07:21:18Z</time>
      </trkpt>
      <trkpt lat="47.53172" lon="6.74451">
        <ele>432</ele>
        <time>2019-04-14T07:21:23Z</time>
      </trkpt>
      <trkpt lat="47.53153" lon="6.74437">
        <ele>429</ele>
        <time>2019-04-14T07:21:28Z</time>
      </trkpt>
      <trkpt lat="47.53119" lon="6.74411">
        <ele>426</ele>
        <time>2019-04-14T07:21:33Z</time>
      </trkpt>
      <trkpt lat="47.53088" lon="6.7438">
        <ele>423</ele>
        <time>2019-04-14T07:21:38Z</time>
      </trkpt>
      <trkpt lat="47.5306" lon="6.74355">
        <ele>419</ele>
        <time>2019-04-14T07:21:43Z</time>
      </trkpt>
      <trkpt lat="47.53029" lon="6.74323">
        <ele>416</ele>
        <time>2019-04-14T07:21:48Z</time>
      </trkpt>
      <trkpt lat="47.52997" lon="6.74296">
        <ele>412</ele>
        <time>2019-04-14T07:21:53Z</time>
      </trkpt>
      <trkpt lat="47.5297" lon="6.74271">
        <ele>410</ele>
        <time>2019-04-14T07:21:58Z</time>
      </trkpt>
      <trkpt lat="47.52945" lon="6.74247">
        <ele>407</ele>
        <time>2019-04-14T07:22:03Z</time>
      </trkpt>
      <trkpt lat="47.52917" lon="6.74222">
        <ele>404</ele>
        <time>2019-04-14T07:22:08Z</time>
      </trkpt>
      <trkpt lat="47.52899" lon="6.74192">
        <ele>401</ele>
        <time>2019-04-14T07:22:13Z</time>
      </trkpt>
      <trkpt lat="47.52884" lon="6.74163">
        <ele>399</ele>
        <time>2019-04-14T07:22:18Z</time>
      </trkpt>
      <trkpt lat="47.52866" lon="6.74126">
        <ele>397</ele>
        <time>2019-04-14T07:22:23Z</time>
      </trkpt>
      <trkpt lat="47.5285" lon="6.7409">
        <ele>395</ele>
        <time>2019-04-14T07:22:28Z</time>
      </trkpt>
      <trkpt lat="47.52834" lon="6.74073">
        <ele>394</ele>
        <time>2019-04-14T07:22:33Z</time>
      </trkpt>
      <trkpt lat="47.52827" lon="6.74079">
        <ele>393</ele>
        <time>2019-04-14T07:22:38Z</time>
      </trkpt>
      <trkpt lat="47.52808" lon="6.74079">
        <ele>393</ele>
        <time>2019-04-14T07:22:43Z</time>
      </trkpt>
      <trkpt lat="47.52782" lon="6.74081">
        <ele>393</ele>
        <time>2019-04-14T07:22:48Z</time>
      </trkpt>
      <trkpt lat="47.52747" lon="6.74067">
        <ele>391</ele>
        <time>2019-04-14T07:22:53Z</time>
      </trkpt>
      <trkpt lat="47.52711" lon="6.74047">
        <ele>390</ele>
        <time>2019-04-14T07:22:58Z</time>
      </trkpt>
      <trkpt lat="47.52684" lon="6.74039">
        <ele>388</ele>
        <time>2019-04-14T07:23:03Z</time>
      </trkpt>
      <trkpt lat="47.52677" lon="6.74022">
        <ele>386</ele>
        <time>2019-04-14T07:23:08Z</time>
      </trkpt>
      <trkpt lat="47.52677" lon="6.73992">
        <ele>385</ele>
        <time>2019-04-14T07:23:13Z</time>
      </trkpt>
      <trkpt lat="47.52679" lon="6.73965">
        <ele>384</ele>
        <time>2019-04-14T07:23:18Z</time>
      </trkpt>
      <trkpt lat="47.52685" lon="6.73938">
        <ele>382</ele>
        <time>2019-04-14T07:23:23Z</time>
      </trkpt>
      <trkpt lat="47.52691" lon="6.73916">
        <ele>381</ele>
        <time>2019-04-14T07:23:28Z</time>
      </trkpt>
      <trkpt lat="47.52697" lon="6.73891">
        <ele>381</ele>
        <time>2019-04-14T07:23:33Z</time>
      </trkpt>
      <trkpt lat="47.52705" lon="6.73858">
        <ele>380</ele>
        <time>2019-04-14T07:23:38Z</time>
      </trkpt>
      <trkpt lat="47.52713" lon="6.73825">
        <ele>379</ele>
        <time>2019-04-14T07:23:43Z</time>
      </trkpt>
      <trkpt lat="47.5272" lon="6.73785">
        <ele>378</ele>
        <time>2019-04-14T07:23:48Z</time>
      </trkpt>
      <trkpt lat="47.52723" lon="6.73745">
        <ele>376</ele>
        <time>2019-04-14T07:23:53Z</time>
      </trkpt>
      <trkpt lat="47.52729" lon="6.73711">
        <ele>374</ele>
        <time>2019-04-14T07:23:58Z</time>
      </trkpt>
      <trkpt lat="47.52744" lon="6.73671">
        <ele>372</ele>
        <time>2019-04-14T07:24:03Z</time>
      </trkpt>
      <trkpt lat="47.52766" lon="6.73644">
        <ele>369</ele>
        <time>2019-04-14T07:24:08Z</time>
      </trkpt>
      <trkpt lat="47.52792" lon="6.73597">
        <ele>366</ele>
        <time>2019-04-14T07:24:13Z</time>
      </trkpt>
      <trkpt lat="47.52791" lon="6.73554">
        <ele>363</ele>
        <time>2019-04-14T07:24:18Z</time>
      </trkpt>
      <trkpt lat="47.52773" lon="6.73532">
        <ele>361</ele>
        <time>2019-04-14T07:24:23Z</time>
      </trkpt>
      <trkpt lat="47.52751" lon="6.73524">
        <ele>358</ele>
        <time>2019-04-14T07:24:28Z</time>
      </trkpt>
      <trkpt lat="47.52738" lon="6.73495">
        <ele>357</ele>
        <time>2019-04-14T07:24:33Z</time>
      </trkpt>
      <trkpt lat="47.52736" lon="6.73464">
        <ele>357</ele>
        <time>2019-04-14T07:24:38Z</time>
      </trkpt>
      <trkpt lat="47.52735" lon="6.73429">
        <ele>357</ele>
        <time>2019-04-14T07:24:43Z</time>
      </trkpt>
      <trkpt lat="47.52737" lon="6.73393">
        <ele>358</ele>
        <time>2019-04-14T07:24:48Z</time>
      </trkpt>
      <trkpt lat="47.52741" lon="6.73356">
        <ele>358</ele>
        <time>2019-04-14T07:24:53Z</time>
      </trkpt>
      <trkpt lat="47.52745" lon="6.73323">
        <ele>358</ele>
        <time>2019-04-14T07:24:58Z</time>
      </trkpt>
      <trkpt lat="47.52748" lon="6.7329">
        <ele>358</ele>
        <time>2019-04-14T07:25:03Z</time>
      </trkpt>
      <trkpt lat="47.52753" lon="6.73252">
        <ele>358</ele>
        <time>2019-04-14T07:25:08Z</time>
      </trkpt>
      <trkpt lat="47.52759" lon="6.73214">
        <ele>358</ele>
        <time>2019-04-14T07:25:13Z</time>
      </trkpt>
      <trkpt lat="47.52765" lon="6.73178">
        <ele>358</ele>
        <time>2019-04-14T07:25:18Z</time>
      </trkpt>
      <trkpt lat="47.52771" lon="6.73146">
        <ele>358</ele>
        <time>2019-04-14T07:25:23Z</time>
      </trkpt>
      <trkpt lat="47.5278" lon="6.73116">
        <ele>358</ele>
        <time>2019-04-14T07:25:28Z</time>
      </trkpt>
      <trkpt lat="47.52797" lon="6.73095">
        <ele>358</ele>
        <time>2019-04-14T07:25:33Z</time>
      </trkpt>
      <trkpt lat="47.52816" lon="6.73087">
        <ele>358</ele>
        <time>2019-04-14T07:25:38Z</time>
      </trkpt>
      <trkpt lat="47.52836" lon="6.73079">
        <ele>358</ele>
        <time>2019-04-14T07:25:43Z</time>
      </trkpt>
      <trkpt lat="47.52852" lon="6.73068">
        <ele>357</ele>
        <time>2019-04-14T07:25:48Z</time>
      </trkpt>
      <trkpt lat="47.52862" lon="6.73047">
        <ele>357</ele>
        <time>2019-04-14T07:25:53Z</time>
      </trkpt>
      <trkpt lat="47.52874" lon="6.73013">
        <ele>357</ele>
        <time>2019-04-14T07:25:58Z</time>
      </trkpt>
      <trkpt lat="47.52888" lon="6.7299">
        <ele>357</ele>
        <time>2019-04-14T07:26:03Z</time>
      </trkpt>
      <trkpt lat="47.52912" lon="6.72964">
        <ele>355</ele>
        <time>2019-04-14T07:26:08Z</time>
      </trkpt>
      <trkpt lat="47.52931" lon="6.72918">
        <ele>354</ele>
        <time>2019-04-14T07:26:13Z</time>
      </trkpt>
      <trkpt lat="47.52929" lon="6.72858">
        <ele>351</ele>
        <time>2019-04-14T07:26:18Z</time>
      </trkpt>
      <trkpt lat="47.52915" lon="6.72811">
        <ele>347</ele>
        <time>2019-04-14T07:26:23Z</time>
      </trkpt>
      <trkpt lat="47.52901" lon="6.72795">
        <ele>343</ele>
        <time>2019-04-14T07:26:28Z</time>
      </trkpt>
      <trkpt lat="47.52881" lon="6.72782">
        <ele>340</ele>
        <time>2019-04-14T07:26:33Z</time>
      </trkpt>
      <trkpt lat="47.52865" lon="6.72769">
        <ele>339</ele>
        <time>2019-04-14T07:26:38Z</time>
      </trkpt>
      <trkpt lat="47.52845" lon="6.72754">
        <ele>338</ele>
        <time>2019-04-14T07:26:43Z</time>
      </trkpt>
      <trkpt lat="47.52824" lon="6.72748">
        <ele>338</ele>
        <time>2019-04-14T07:26:48Z</time>
      </trkpt>
      <trkpt lat="47.528" lon="6.72761">
        <ele>339</ele>
        <time>2019-04-14T07:26:53Z</time>
      </trkpt>
      <trkpt lat="47.52781" lon="6.7278">
        <ele>339</ele>
        <time>2019-04-14T07:26:58Z</time>
      </trkpt>
      <trkpt lat="47.52763" lon="6.72797">
        <ele>340</ele>
        <time>2019-04-14T07:27:03Z</time>
      </trkpt>
      <trkpt lat="47.5274" lon="6.72815">
        <ele>341</ele>
        <time>2019-04-14T07:27:08Z</time>
      </trkpt>
      <trkpt lat="47.52713" lon="6.72834">
        <ele>341</ele>
        <time>2019-04-14T07:27:13Z</time>
      </trkpt>
      <trkpt lat="47.52683" lon="6.72837">
        <ele>341</ele>
        <time>2019-04-14T07:27:18Z</time>
      </trkpt>
      <trkpt lat="47.52666" lon="6.72818">
        <ele>341</ele>
        <time>2019-04-14T07:27:23Z</time>
      </trkpt>
      <trkpt lat="47.52659" lon="6.72792">
        <ele>340</ele>
        <time>2019-04-14T07:27:28Z</time>
      </trkpt>
      <trkpt lat="47.52652" lon="6.72779">
        <ele>340</ele>
        <time>2019-04-14T07:27:33Z</time>
      </trkpt>
      <trkpt lat="47.52643" lon="6.72775">
        <ele>340</ele>
        <time>2019-04-14T07:27:38Z</time>
      </trkpt>
      <trkpt lat="47.52633" lon="6.72774">
        <ele>340</ele>
        <time>2019-04-14T07:27:43Z</time>
      </trkpt>
      <trkpt lat="47.52623" lon="6.72772">
        <ele>340</ele>
        <time>2019-04-14T07:27:48Z</time>
      </trkpt>
      <trkpt lat="47.52613" lon="6.7277">
        <ele>341</ele>
        <time>2019-04-14T07:27:53Z</time>
      </trkpt>
      <trkpt lat="47.52602" lon="6.72764">
        <ele>341</ele>
        <time>2019-04-14T07:27:58Z</time>
      </trkpt>
      <trkpt lat="47.52592" lon="6.72766">
        <ele>342</ele>
        <time>2019-04-14T07:28:03Z</time>
      </trkpt>
      <trkpt lat="47.52578" lon="6.72771">
        <ele>342</ele>
        <time>2019-04-14T07:28:08Z</time>
      </trkpt>
      <trkpt lat="47.52564" lon="6.72773">
        <ele>343</ele>
        <time>2019-04-14T07:28:13Z</time>
      </trkpt>
      <trkpt lat="47.52555" lon="6.72779">
        <ele>344</ele>
        <time>2019-04-14T07:28:18Z</time>
      </trkpt>
      <trkpt lat="47.52545" lon="6.72789">
        <ele>346</ele>
        <time>2019-04-14T07:28:23Z</time>
      </trkpt>
      <trkpt lat="47.52534" lon="6.72802">
        <ele>347</ele>
        <time>2019-04-14T07:28:28Z</time>
      </trkpt>
      <trkpt lat="47.52525" lon="6.72812">
        <ele>348</ele>
        <time>2019-04-14T07:28:33Z</time>
      </trkpt>
      <trkpt lat="47.52516" lon="6.72825">
        <ele>348</ele>
        <time>2019-04-14T07:28:38Z</time>
      </trkpt>
      <trkpt lat="47.52506" lon="6.72836">
        <ele>349</ele>
        <time>2019-04-14T07:28:43Z</time>
      </trkpt>
      <trkpt lat="47.52494" lon="6.72843">
        <ele>350</ele>
        <time>2019-04-14T07:28:48Z</time>
      </trkpt>
      <trkpt lat="47.52481" lon="6.72849">
        <ele>350</ele>
        <time>2019-04-14T07:28:53Z</time>
      </trkpt>
      <trkpt lat="47.52466" lon="6.72851">
        <ele>351</ele>
        <time>2019-04-14T07:28:58Z</time>
      </trkpt>
      <trkpt lat="47.52452" lon="6.72853">
        <ele>352</ele>
        <time>2019-04-14T07:29:03Z</time>
      </trkpt>
      <trkpt lat="47.52436" lon="6.72853">
        <ele>352</ele>
        <time>2019-04-14T07:29:08Z</time>
      </trkpt>
      <trkpt lat="47.52421" lon="6.72852">
        <ele>353</ele>
        <time>2019-04-14T07:29:13Z</time>
      </trkpt>
      <trkpt lat="47.52406" lon="6.72851">
        <ele>353</ele>
        <time>2019-04-14T07:29:18Z</time>
      </trkpt>
      <trkpt lat="47.5239" lon="6.72852">
        <ele>354</ele>
        <time>2019-04-14T07:29:23Z</time>
      </trkpt>
      <trkpt lat="47.52375" lon="6.72851">
        <ele>354</ele>
        <time>2019-04-14T07:29:28Z</time>
      </trkpt>
      <trkpt lat="47.52366" lon="6.72849">
        <ele>355</ele>
        <time>2019-04-14T07:29:33Z</time>
      </trkpt>
      <trkpt lat="47.52358" lon="6.72845">
        <ele>355</ele>
        <time>2019-04-14T07:29:38Z</time>
      </trkpt>
      <trkpt lat="47.52349" lon="6.7284">
        <ele>356</ele>
        <time>2019-04-14T07:29:43Z</time>
      </trkpt>
      <trkpt lat="47.5234" lon="6.72838">
        <ele>356</ele>
        <time>2019-04-14T07:29:48Z</time>
      </trkpt>
      <trkpt lat="47.52331" lon="6.72836">
        <ele>356</ele>
        <time>2019-04-14T07:29:53Z</time>
      </trkpt>
      <trkpt lat="47.52321" lon="6.72826">
        <ele>357</ele>
        <time>2019-04-14T07:29:58Z</time>
      </trkpt>
      <trkpt lat="47.52317" lon="6.72808">
        <ele>357</ele>
        <time>2019-04-14T07:30:03Z</time>
      </trkpt>
      <trkpt lat="47.52317" lon="6.72794">
        <ele>358</ele>
        <time>2019-04-14T07:30:08Z</time>
      </trkpt>
      <trkpt lat="47.52316" lon="6.72784">
        <ele>358</ele>
        <time>2019-04-14T07:30:13Z</time>
      </trkpt>
      <trkpt lat="47.52319" lon="6.72776">
        <ele>359</ele>
        <time>2019-04-14T07:30:18Z</time>
      </trkpt>
      <trkpt lat="47.52321" lon="6.72764">
        <ele>359</ele>
        <time>2019-04-14T07:30:23Z</time>
      </trkpt>
      <trkpt lat="47.52324" lon="6.72754">
        <ele>360</ele>
        <time>2019-04-14T07:30:28Z</time>
      </trkpt>
      <trkpt lat="47.52327" lon="6.72746">
        <ele>360</ele>
        <time>2019-04-14T07:30:33Z</time>
      </trkpt>
      <trkpt lat="47.52331" lon="6.72738">
        <ele>361</ele>
        <time>2019-04-14T07:30:38Z</time>
      </trkpt>
      <trkpt lat="47.52336" lon="6.72728">
        <ele>362</ele>
        <time>2019-04-14T07:30:43Z</time>
      </trkpt>
      <trkpt lat="47.52339" lon="6.72721">
        <ele>362</ele>
        <time>2019-04-14T07:30:49Z</time>
      </trkpt>
      <trkpt lat="47.52343" lon="6.72712">
        <ele>363</ele>
        <time>2019-04-14T07:30:54Z</time>
      </trkpt>
      <trkpt lat="47.52346" lon="6.727">
        <ele>364</ele>
        <time>2019-04-14T07:31:01Z</time>
      </trkpt>
      <trkpt lat="47.52346" lon="6.72691">
        <ele>365</ele>
        <time>2019-04-14T07:31:06Z</time>
      </trkpt>
      <trkpt lat="47.52343" lon="6.72681">
        <ele>365</ele>
        <time>2019-04-14T07:31:11Z</time>
      </trkpt>
      <trkpt lat="47.52343" lon="6.7267">
        <ele>366</ele>
        <time>2019-04-14T07:31:16Z</time>
      </trkpt>
      <trkpt lat="47.52342" lon="6.72662">
        <ele>367</ele>
        <time>2019-04-14T07:31:21Z</time>
      </trkpt>
      <trkpt lat="47.52341" lon="6.72652">
        <ele>368</ele>
        <time>2019-04-14T07:31:26Z</time>
      </trkpt>
      <trkpt lat="47.5234" lon="6.72641">
        <ele>368</ele>
        <time>2019-04-14T07:31:31Z</time>
      </trkpt>
      <trkpt lat="47.52346" lon="6.72632">
        <ele>369</ele>
        <time>2019-04-14T07:31:36Z</time>
      </trkpt>
      <trkpt lat="47.5235" lon="6.72627">
        <ele>370</ele>
        <time>2019-04-14T07:31:41Z</time>
      </trkpt>
      <trkpt lat="47.52356" lon="6.72623">
        <ele>370</ele>
        <time>2019-04-14T07:31:46Z</time>
      </trkpt>
      <trkpt lat="47.52362" lon="6.72617">
        <ele>371</ele>
        <time>2019-04-14T07:31:51Z</time>
      </trkpt>
      <trkpt lat="47.52367" lon="6.72612">
        <ele>372</ele>
        <time>2019-04-14T07:31:56Z</time>
      </trkpt>
      <trkpt lat="47.52374" lon="6.72607">
        <ele>372</ele>
        <time>2019-04-14T07:32:01Z</time>
      </trkpt>
      <trkpt lat="47.52381" lon="6.726">
        <ele>373</ele>
        <time>2019-04-14T07:32:06Z</time>
      </trkpt>
      <trkpt lat="47.52387" lon="6.72593">
        <ele>374</ele>
        <time>2019-04-14T07:32:11Z</time>
      </trkpt>
      <trkpt lat="47.52392" lon="6.72585">
        <ele>374</ele>
        <time>2019-04-14T07:32:16Z</time>
      </trkpt>
      <trkpt lat="47.52398" lon="6.72579">
        <ele>375</ele>
        <time>2019-04-14T07:32:21Z</time>
      </trkpt>
      <trkpt lat="47.52406" lon="6.72571">
        <ele>375</ele>
        <time>2019-04-14T07:32:26Z</time>
      </trkpt>
      <trkpt lat="47.52411" lon="6.72565">
        <ele>376</ele>
        <time>2019-04-14T07:32:31Z</time>
      </trkpt>
      <trkpt lat="47.52418" lon="6.7256">
        <ele>377</ele>
        <time>2019-04-14T07:32:36Z</time>
      </trkpt>
      <trkpt lat="47.52424" lon="6.72555">
        <ele>377</ele>
        <time>2019-04-14T07:32:41Z</time>
      </trkpt>
      <trkpt lat="47.52431" lon="6.72549">
        <ele>378</ele>
        <time>2019-04-14T07:32:46Z</time>
      </trkpt>
      <trkpt lat="47.52437" lon="6.72547">
        <ele>379</ele>
        <time>2019-04-14T07:32:53Z</time>
      </trkpt>
      <trkpt lat="47.52445" lon="6.7254">
        <ele>379</ele>
        <time>2019-04-14T07:32:58Z</time>
      </trkpt>
      <trkpt lat="47.5245" lon="6.72538">
        <ele>380</ele>
        <time>2019-04-14T07:33:13Z</time>
      </trkpt>
      <trkpt lat="47.52457" lon="6.72536">
        <ele>380</ele>
        <time>2019-04-14T07:33:18Z</time>
      </trkpt>
      <trkpt lat="47.52468" lon="6.72528">
        <ele>381</ele>
        <time>2019-04-14T07:33:23Z</time>
      </trkpt>
      <trkpt lat="47.5248" lon="6.72523">
        <ele>381</ele>
        <time>2019-04-14T07:33:28Z</time>
      </trkpt>
      <trkpt lat="47.52491" lon="6.72515">
        <ele>381</ele>
        <time>2019-04-14T07:33:33Z</time>
      </trkpt>
      <trkpt lat="47.52505" lon="6.72494">
        <ele>382</ele>
        <time>2019-04-14T07:33:38Z</time>
      </trkpt>
      <trkpt lat="47.52513" lon="6.72476">
        <ele>382</ele>
        <time>2019-04-14T07:33:43Z</time>
      </trkpt>
      <trkpt lat="47.52525" lon="6.72458">
        <ele>383</ele>
        <time>2019-04-14T07:33:48Z</time>
      </trkpt>
      <trkpt lat="47.52544" lon="6.72442">
        <ele>383</ele>
        <time>2019-04-14T07:33:53Z</time>
      </trkpt>
      <trkpt lat="47.52564" lon="6.72434">
        <ele>384</ele>
        <time>2019-04-14T07:33:58Z</time>
      </trkpt>
      <trkpt lat="47.5258" lon="6.7243">
        <ele>384</ele>
        <time>2019-04-14T07:34:03Z</time>
      </trkpt>
      <trkpt lat="47.52597" lon="6.72419">
        <ele>384</ele>
        <time>2019-04-14T07:34:08Z</time>
      </trkpt>
      <trkpt lat="47.52595" lon="6.7241">
        <ele>385</ele>
        <time>2019-04-14T07:34:13Z</time>
      </trkpt>
      <trkpt lat="47.52585" lon="6.72402">
        <ele>385</ele>
        <time>2019-04-14T07:34:18Z</time>
      </trkpt>
      <trkpt lat="47.52575" lon="6.72394">
        <ele>385</ele>
        <time>2019-04-14T07:34:23Z</time>
      </trkpt>
      <trkpt lat="47.52565" lon="6.72384">
        <ele>385</ele>
        <time>2019-04-14T07:34:28Z</time>
      </trkpt>
      <trkpt lat="47.52556" lon="6.72374">
        <ele>385</ele>
        <time>2019-04-14T07:34:33Z</time>
      </trkpt>
      <trkpt lat="47.52547" lon="6.72363">
        <ele>385</ele>
        <time>2019-04-14T07:34:38Z</time>
      </trkpt>
      <trkpt lat="47.52541" lon="6.72348">
        <ele>386</ele>
        <time>2019-04-14T07:34:43Z</time>
      </trkpt>
      <trkpt lat="47.52536" lon="6.72339">
        <ele>386</ele>
        <time>2019-04-14T07:34:48Z</time>
      </trkpt>
      <trkpt lat="47.52541" lon="6.72322">
        <ele>387</ele>
        <time>2019-04-14T07:34:53Z</time>
      </trkpt>
      <trkpt lat="47.52551" lon="6.72305">
        <ele>387</ele>
        <time>2019-04-14T07:34:58Z</time>
      </trkpt>
      <trkpt lat="47.52564" lon="6.72286">
        <ele>387</ele>
        <time>2019-04-14T07:35:03Z</time>
      </trkpt>
      <trkpt lat="47.52577" lon="6.72263">
        <ele>388</ele>
        <time>2019-04-14T07:35:08Z</time>
      </trkpt>
      <trkpt lat="47.5259" lon="6.72239">
        <ele>388</ele>
        <time>2019-04-14T07:35:13Z</time>
      </trkpt>
      <trkpt lat="47.52605" lon="6.72217">
        <ele>388</ele>
        <time>2019-04-14T07:35:18Z</time>
      </trkpt>
      <trkpt lat="47.52621" lon="6.72191">
        <ele>388</ele>
        <time>2019-04-14T07:35:23Z</time>
      </trkpt>
      <trkpt lat="47.52636" lon="6.7216">
        <ele>389</ele>
        <time>2019-04-14T07:35:28Z</time>
      </trkpt>
      <trkpt lat="47.52651" lon="6.72134">
        <ele>388</ele>
        <time>2019-04-14T07:35:33Z</time>
      </trkpt>
      <trkpt lat="47.52662" lon="6.72116">
        <ele>388</ele>
        <time>2019-04-14T07:35:38Z</time>
      </trkpt>
      <trkpt lat="47.52673" lon="6.72097">
        <ele>387</ele>
        <time>2019-04-14T07:35:43Z</time>
      </trkpt>
      <trkpt lat="47.52683" lon="6.7208">
        <ele>387</ele>
        <time>2019-04-14T07:35:48Z</time>
      </trkpt>
      <trkpt lat="47.52692" lon="6.72066">
        <ele>386</ele>
        <time>2019-04-14T07:35:53Z</time>
      </trkpt>
      <trkpt lat="47.52703" lon="6.72054">
        <ele>386</ele>
        <time>2019-04-14T07:35:58Z</time>
      </trkpt>
      <trkpt lat="47.52713" lon="6.7204">
        <ele>387</ele>
        <time>2019-04-14T07:36:03Z</time>
      </trkpt>
      <trkpt lat="47.52726" lon="6.72026">
        <ele>387</ele>
        <time>2019-04-14T07:36:08Z</time>
      </trkpt>
      <trkpt lat="47.52742" lon="6.72014">
        <ele>387</ele>
        <time>2019-04-14T07:36:13Z</time>
      </trkpt>
      <trkpt lat="47.5276" lon="6.71999">
        <ele>387</ele>
        <time>2019-04-14T07:36:18Z</time>
      </trkpt>
      <trkpt lat="47.52778" lon="6.71984">
        <ele>388</ele>
        <time>2019-04-14T07:36:23Z</time>
      </trkpt>
      <trkpt lat="47.52793" lon="6.71972">
        <ele>388</ele>
        <time>2019-04-14T07:36:28Z</time>
      </trkpt>
      <trkpt lat="47.52809" lon="6.7196">
        <ele>388</ele>
        <time>2019-04-14T07:36:33Z</time>
      </trkpt>
      <trkpt lat="47.52821" lon="6.71948">
        <ele>388</ele>
        <time>2019-04-14T07:36:38Z</time>
      </trkpt>
      <trkpt lat="47.52835" lon="6.71935">
        <ele>388</ele>
        <time>2019-04-14T07:36:43Z</time>
      </trkpt>
      <trkpt lat="47.52848" lon="6.71917">
        <ele>388</ele>
        <time>2019-04-14T07:36:48Z</time>
      </trkpt>
      <trkpt lat="47.52859" lon="6.71899">
        <ele>388</ele>
        <time>2019-04-14T07:36:53Z</time>
      </trkpt>
      <trkpt lat="47.52872" lon="6.71874">
        <ele>388</ele>
        <time>2019-04-14T07:36:58Z</time>
      </trkpt>
      <trkpt lat="47.52893" lon="6.71862">
        <ele>388</ele>
        <time>2019-04-14T07:37:03Z</time>
      </trkpt>
      <trkpt lat="47.52919" lon="6.71852">
        <ele>389</ele>
        <time>2019-04-14T07:37:08Z</time>
      </trkpt>
      <trkpt lat="47.52951" lon="6.71842">
        <ele>388</ele>
        <time>2019-04-14T07:37:13Z</time>
      </trkpt>
      <trkpt lat="47.52969" lon="6.71829">
        <ele>388</ele>
        <time>2019-04-14T07:37:18Z</time>
      </trkpt>
      <trkpt lat="47.52982" lon="6.71797">
        <ele>386</ele>
        <time>2019-04-14T07:37:23Z</time>
      </trkpt>
      <trkpt lat="47.52991" lon="6.71766">
        <ele>385</ele>
        <time>2019-04-14T07:37:28Z</time>
      </trkpt>
      <trkpt lat="47.53011" lon="6.71748">
        <ele>383</ele>
        <time>2019-04-14T07:37:33Z</time>
      </trkpt>
      <trkpt lat="47.53032" lon="6.71737">
        <ele>380</ele>
        <time>2019-04-14T07:37:38Z</time>
      </trkpt>
      <trkpt lat="47.53056" lon="6.71739">
        <ele>377</ele>
        <time>2019-04-14T07:37:43Z</time>
      </trkpt>
      <trkpt lat="47.53083" lon="6.71745">
        <ele>373</ele>
        <time>2019-04-14T07:37:48Z</time>
      </trkpt>
      <trkpt lat="47.53105" lon="6.71767">
        <ele>369</ele>
        <time>2019-04-14T07:37:53Z</time>
      </trkpt>
      <trkpt lat="47.53132" lon="6.718">
        <ele>364</ele>
        <time>2019-04-14T07:37:58Z</time>
      </trkpt>
      <trkpt lat="47.53161" lon="6.71828">
        <ele>358</ele>
        <time>2019-04-14T07:38:03Z</time>
      </trkpt>
      <trkpt lat="47.53185" lon="6.71835">
        <ele>353</ele>
        <time>2019-04-14T07:38:08Z</time>
      </trkpt>
      <trkpt lat="47.53212" lon="6.71832">
        <ele>349</ele>
        <time>2019-04-14T07:38:13Z</time>
      </trkpt>
      <trkpt lat="47.53223" lon="6.71827">
        <ele>345</ele>
        <time>2019-04-14T07:38:18Z</time>
      </trkpt>
      <trkpt lat="47.53231" lon="6.71808">
        <ele>343</ele>
        <time>2019-04-14T07:38:23Z</time>
      </trkpt>
      <trkpt lat="47.53231" lon="6.71789">
        <ele>342</ele>
        <time>2019-04-14T07:38:28Z</time>
      </trkpt>
      <trkpt lat="47.53225" lon="6.71783">
        <ele>342</ele>
        <time>2019-04-14T07:38:33Z</time>
      </trkpt>
      <trkpt lat="47.53225" lon="6.71783">
        <ele>343</ele>
        <time>2019-04-14T07:38:59Z</time>
      </trkpt>
      <trkpt lat="47.53225" lon="6.71783">
        <ele>344</ele>
        <time>2019-04-14T07:39:01Z</time>
      </trkpt>
      <trkpt lat="47.53225" lon="6.71783">
        <ele>345</ele>
        <time>2019-04-14T07:39:30Z</time>
      </trkpt>
      <trkpt lat="47.53225" lon="6.71783">
        <ele>345</ele>
        <time>2019-04-14T07:39:31Z</time>
      </trkpt>
      <trkpt lat="47.53225" lon="6.71783">
        <ele>346</ele>
        <time>2019-04-14T07:40:00Z</time>
      </trkpt>
      <trkpt lat="47.53225" lon="6.71783">
        <ele>346</ele>
        <time>2019-04-14T07:40:01Z</time>
      </trkpt>
      <trkpt lat="47.53203" lon="6.71765">
        <ele>348</ele>
        <time>2019-04-14T07:50:46Z</time>
      </trkpt>
      <trkpt lat="47.53189" lon="6.71743">
        <ele>347</ele>
        <time>2019-04-14T07:50:51Z</time>
      </trkpt>
      <trkpt lat="47.53177" lon="6.71721">
        <ele>346</ele>
        <time>2019-04-14T07:50:56Z</time>
      </trkpt>
      <trkpt lat="47.53164" lon="6.71697">
        <ele>345</ele>
        <time>2019-04-14T07:51:01Z</time>
      </trkpt>
      <trkpt lat="47.5315" lon="6.71675">
        <ele>345</ele>
        <time>2019-04-14T07:51:06Z</time>
      </trkpt>
      <trkpt lat="47.53139" lon="6.71655">
        <ele>344</ele>
        <time>2019-04-14T07:51:11Z</time>
      </trkpt>
      <trkpt lat="47.53124" lon="6.71642">
        <ele>345</ele>
        <time>2019-04-14T07:51:16Z</time>
      </trkpt>
      <trkpt lat="47.53107" lon="6.71652">
        <ele>346</ele>
        <time>2019-04-14T07:51:21Z</time>
      </trkpt>
      <trkpt lat="47.53093" lon="6.71663">
        <ele>346</ele>
        <time>2019-04-14T07:51:26Z</time>
      </trkpt>
      <trkpt lat="47.53099" lon="6.71662">
        <ele>347</ele>
        <time>2019-04-14T07:51:33Z</time>
      </trkpt>
      <trkpt lat="47.53111" lon="6.71649">
        <ele>347</ele>
        <time>2019-04-14T07:51:38Z</time>
      </trkpt>
      <trkpt lat="47.53124" lon="6.71631">
        <ele>348</ele>
        <time>2019-04-14T07:51:43Z</time>
      </trkpt>
      <trkpt lat="47.53125" lon="6.71613">
        <ele>348</ele>
        <time>2019-04-14T07:51:48Z</time>
      </trkpt>
      <trkpt lat="47.53119" lon="6.71594">
        <ele>348</ele>
        <time>2019-04-14T07:51:53Z</time>
      </trkpt>
      <trkpt lat="47.53114" lon="6.71577">
        <ele>348</ele>
        <time>2019-04-14T07:51:58Z</time>
      </trkpt>
      <trkpt lat="47.53111" lon="6.71564">
        <ele>349</ele>
        <time>2019-04-14T07:52:03Z</time>
      </trkpt>
      <trkpt lat="47.53111" lon="6.71552">
        <ele>349</ele>
        <time>2019-04-14T07:52:08Z</time>
      </trkpt>
      <trkpt lat="47.53109" lon="6.71534">
        <ele>350</ele>
        <time>2019-04-14T07:52:13Z</time>
      </trkpt>
      <trkpt lat="47.53105" lon="6.71518">
        <ele>351</ele>
        <time>2019-04-14T07:52:18Z</time>
      </trkpt>
      <trkpt lat="47.53101" lon="6.71503">
        <ele>352</ele>
        <time>2019-04-14T07:52:23Z</time>
      </trkpt>
      <trkpt lat="47.53098" lon="6.71489">
        <ele>353</ele>
        <time>2019-04-14T07:52:28Z</time>
      </trkpt>
      <trkpt lat="47.53095" lon="6.7147">
        <ele>354</ele>
        <time>2019-04-14T07:52:33Z</time>
      </trkpt>
      <trkpt lat="47.53093" lon="6.71451">
        <ele>355</ele>
        <time>2019-04-14T07:52:38Z</time>
      </trkpt>
      <trkpt lat="47.53091" lon="6.71435">
        <ele>356</ele>
        <time>2019-04-14T07:52:43Z</time>
      </trkpt>
      <trkpt lat="47.53089" lon="6.71421">
        <ele>357</ele>
        <time>2019-04-14T07:52:48Z</time>
      </trkpt>
      <trkpt lat="47.53085" lon="6.71403">
        <ele>357</ele>
        <time>2019-04-14T07:52:53Z</time>
      </trkpt>
      <trkpt lat="47.53081" lon="6.71385">
        <ele>358</ele>
        <time>2019-04-14T07:52:58Z</time>
      </trkpt>
      <trkpt lat="47.53077" lon="6.71366">
        <ele>359</ele>
        <time>2019-04-14T07:53:03Z</time>
      </trkpt>
      <trkpt lat="47.53072" lon="6.71349">
        <ele>359</ele>
        <time>2019-04-14T07:53:08Z</time>
      </trkpt>
      <trkpt lat="47.53067" lon="6.71326">
        <ele>359</ele>
        <time>2019-04-14T07:53:13Z</time>
      </trkpt>
      <trkpt lat="47.53061" lon="6.71305">
        <ele>360</ele>
        <time>2019-04-14T07:53:18Z</time>
      </trkpt>
      <trkpt lat="47.53056" lon="6.71284">
        <ele>360</ele>
        <time>2019-04-14T07:53:23Z</time>
      </trkpt>
      <trkpt lat="47.53062" lon="6.71268">
        <ele>360</ele>
        <time>2019-04-14T07:53:28Z</time>
      </trkpt>
      <trkpt lat="47.53074" lon="6.71273">
        <ele>360</ele>
        <time>2019-04-14T07:53:33Z</time>
      </trkpt>
      <trkpt lat="47.53088" lon="6.71278">
        <ele>361</ele>
        <time>2019-04-14T07:53:38Z</time>
      </trkpt>
      <trkpt lat="47.53101" lon="6.71277">
        <ele>361</ele>
        <time>2019-04-14T07:53:43Z</time>
      </trkpt>
      <trkpt lat="47.53111" lon="6.71275">
        <ele>361</ele>
        <time>2019-04-14T07:53:48Z</time>
      </trkpt>
      <trkpt lat="47.53121" lon="6.71272">
        <ele>361</ele>
        <time>2019-04-14T07:53:53Z</time>
      </trkpt>
      <trkpt lat="47.53134" lon="6.71269">
        <ele>362</ele>
        <time>2019-04-14T07:53:58Z</time>
      </trkpt>
      <trkpt lat="47.53146" lon="6.71265">
        <ele>362</ele>
        <time>2019-04-14T07:54:03Z</time>
      </trkpt>
      <trkpt lat="47.53159" lon="6.71262">
        <ele>362</ele>
        <time>2019-04-14T07:54:08Z</time>
      </trkpt>
      <trkpt lat="47.5317" lon="6.71259">
        <ele>363</ele>
        <time>2019-04-14T07:54:13Z</time>
      </trkpt>
      <trkpt lat="47.53182" lon="6.71256">
        <ele>363</ele>
        <time>2019-04-14T07:54:18Z</time>
      </trkpt>
      <trkpt lat="47.53194" lon="6.71253">
        <ele>364</ele>
        <time>2019-04-14T07:54:23Z</time>
      </trkpt>
      <trkpt lat="47.53206" lon="6.71249">
        <ele>364</ele>
        <time>2019-04-14T07:54:28Z</time>
      </trkpt>
      <trkpt lat="47.53218" lon="6.71246">
        <ele>364</ele>
        <time>2019-04-14T07:54:33Z</time>
      </trkpt>
      <trkpt lat="47.53228" lon="6.71237">
        <ele>365</ele>
        <time>2019-04-14T07:54:38Z</time>
      </trkpt>
      <trkpt lat="47.53233" lon="6.71215">
        <ele>365</ele>
        <time>2019-04-14T07:54:43Z</time>
      </trkpt>
      <trkpt lat="47.53238" lon="6.71194">
        <ele>365</ele>
        <time>2019-04-14T07:54:48Z</time>
      </trkpt>
      <trkpt lat="47.53242" lon="6.71172">
        <ele>365</ele>
        <time>2019-04-14T07:54:53Z</time>
      </trkpt>
      <trkpt lat="47.53246" lon="6.7115">
        <ele>365</ele>
        <time>2019-04-14T07:54:58Z</time>
      </trkpt>
      <trkpt lat="47.53249" lon="6.71129">
        <ele>366</ele>
        <time>2019-04-14T07:55:03Z</time>
      </trkpt>
      <trkpt lat="47.53252" lon="6.71109">
        <ele>366</ele>
        <time>2019-04-14T07:55:08Z</time>
      </trkpt>
      <trkpt lat="47.53256" lon="6.71088">
        <ele>366</ele>
        <time>2019-04-14T07:55:13Z</time>
      </trkpt>
      <trkpt lat="47.53261" lon="6.71067">
        <ele>367</ele>
        <time>2019-04-14T07:55:18Z</time>
      </trkpt>
      <trkpt lat="47.53265" lon="6.7105">
        <ele>367</ele>
        <time>2019-04-14T07:55:23Z</time>
      </trkpt>
      <trkpt lat="47.53272" lon="6.71025">
        <ele>368</ele>
        <time>2019-04-14T07:55:28Z</time>
      </trkpt>
      <trkpt lat="47.53277" lon="6.7101">
        <ele>368</ele>
        <time>2019-04-14T07:55:33Z</time>
      </trkpt>
      <trkpt lat="47.53281" lon="6.70993">
        <ele>369</ele>
        <time>2019-04-14T07:55:38Z</time>
      </trkpt>
      <trkpt lat="47.53285" lon="6.70978">
        <ele>370</ele>
        <time>2019-04-14T07:55:43Z</time>
      </trkpt>
      <trkpt lat="47.53289" lon="6.70964">
        <ele>370</ele>
        <time>2019-04-14T07:55:48Z</time>
      </trkpt>
      <trkpt lat="47.53294" lon="6.70952">
        <ele>371</ele>
        <time>2019-04-14T07:55:53Z</time>
      </trkpt>
      <trkpt lat="47.53298" lon="6.70941">
        <ele>372</ele>
        <time>2019-04-14T07:55:58Z</time>
      </trkpt>
      <trkpt lat="47.53303" lon="6.70922">
        <ele>373</ele>
        <time>2019-04-14T07:56:03Z</time>
      </trkpt>
      <trkpt lat="47.53308" lon="6.70904">
        <ele>373</ele>
        <time>2019-04-14T07:56:08Z</time>
      </trkpt>
      <trkpt lat="47.53314" lon="6.70891">
        <ele>374</ele>
        <time>2019-04-14T07:56:13Z</time>
      </trkpt>
      <trkpt lat="47.53327" lon="6.70875">
        <ele>375</ele>
        <time>2019-04-14T07:56:18Z</time>
      </trkpt>
      <trkpt lat="47.53342" lon="6.70855">
        <ele>377</ele>
        <time>2019-04-14T07:56:23Z</time>
      </trkpt>
      <trkpt lat="47.53361" lon="6.70846">
        <ele>379</ele>
        <time>2019-04-14T07:56:28Z</time>
      </trkpt>
      <trkpt lat="47.53385" lon="6.70878">
        <ele>380</ele>
        <time>2019-04-14T07:56:33Z</time>
      </trkpt>
      <trkpt lat="47.534" lon="6.70897">
        <ele>381</ele>
        <time>2019-04-14T07:56:38Z</time>
      </trkpt>
      <trkpt lat="47.5341" lon="6.70896">
        <ele>382</ele>
        <time>2019-04-14T07:56:43Z</time>
      </trkpt>
      <trkpt lat="47.53439" lon="6.70885">
        <ele>382</ele>
        <time>2019-04-14T07:56:48Z</time>
      </trkpt>
      <trkpt lat="47.53455" lon="6.70871">
        <ele>382</ele>
        <time>2019-04-14T07:56:53Z</time>
      </trkpt>
      <trkpt lat="47.53466" lon="6.7086">
        <ele>381</ele>
        <time>2019-04-14T07:56:58Z</time>
      </trkpt>
      <trkpt lat="47.53479" lon="6.70852">
        <ele>382</ele>
        <time>2019-04-14T07:57:03Z</time>
      </trkpt>
      <trkpt lat="47.53492" lon="6.70847">
        <ele>382</ele>
        <time>2019-04-14T07:57:08Z</time>
      </trkpt>
      <trkpt lat="47.53503" lon="6.70842">
        <ele>382</ele>
        <time>2019-04-14T07:57:13Z</time>
      </trkpt>
      <trkpt lat="47.53518" lon="6.70838">
        <ele>381</ele>
        <time>2019-04-14T07:57:18Z</time>
      </trkpt>
      <trkpt lat="47.53534" lon="6.70831">
        <ele>381</ele>
        <time>2019-04-14T07:57:23Z</time>
      </trkpt>
      <trkpt lat="47.53545" lon="6.70827">
        <ele>380</ele>
        <time>2019-04-14T07:57:28Z</time>
      </trkpt>
      <trkpt lat="47.53549" lon="6.7082">
        <ele>379</ele>
        <time>2019-04-14T07:57:33Z</time>
      </trkpt>
      <trkpt lat="47.53563" lon="6.7081">
        <ele>378</ele>
        <time>2019-04-14T07:57:38Z</time>
      </trkpt>
      <trkpt lat="47.53581" lon="6.70802">
        <ele>378</ele>
        <time>2019-04-14T07:57:43Z</time>
      </trkpt>
      <trkpt lat="47.53594" lon="6.70791">
        <ele>379</ele>
        <time>2019-04-14T07:57:48Z</time>
      </trkpt>
      <trkpt lat="47.53604" lon="6.70772">
        <ele>380</ele>
        <time>2019-04-14T07:57:53Z</time>
      </trkpt>
      <trkpt lat="47.53613" lon="6.70764">
        <ele>381</ele>
        <time>2019-04-14T07:57:58Z</time>
      </trkpt>
      <trkpt lat="47.53623" lon="6.70755">
        <ele>383</ele>
        <time>2019-04-14T07:58:03Z</time>
      </trkpt>
      <trkpt lat="47.5363" lon="6.70751">
        <ele>385</ele>
        <time>2019-04-14T07:58:08Z</time>
      </trkpt>
      <trkpt lat="47.53637" lon="6.70747">
        <ele>386</ele>
        <time>2019-04-14T07:58:13Z</time>
      </trkpt>
      <trkpt lat="47.53642" lon="6.7075">
        <ele>387</ele>
        <time>2019-04-14T07:58:18Z</time>
      </trkpt>
      <trkpt lat="47.53645" lon="6.70756">
        <ele>388</ele>
        <time>2019-04-14T07:58:23Z</time>
      </trkpt>
      <trkpt lat="47.53652" lon="6.70763">
        <ele>389</ele>
        <time>2019-04-14T07:58:28Z</time>
      </trkpt>
      <trkpt lat="47.53663" lon="6.70769">
        <ele>389</ele>
        <time>2019-04-14T07:58:33Z</time>
      </trkpt>
      <trkpt lat="47.53672" lon="6.70779">
        <ele>390</ele>
        <time>2019-04-14T07:58:38Z</time>
      </trkpt>
      <trkpt lat="47.53678" lon="6.70782">
        <ele>391</ele>
        <time>2019-04-14T07:58:43Z</time>
      </trkpt>
      <trkpt lat="47.53683" lon="6.70787">
        <ele>391</ele>
        <time>2019-04-14T07:58:49Z</time>
      </trkpt>
      <trkpt lat="47.53687" lon="6.70794">
        <ele>391</ele>
        <time>2019-04-14T07:58:54Z</time>
      </trkpt>
      <trkpt lat="47.53695" lon="6.70799">
        <ele>392</ele>
        <time>2019-04-14T07:58:59Z</time>
      </trkpt>
      <trkpt lat="47.53705" lon="6.70806">
        <ele>392</ele>
        <time>2019-04-14T07:59:04Z</time>
      </trkpt>
      <trkpt lat="47.53712" lon="6.70815">
        <ele>393</ele>
        <time>2019-04-14T07:59:09Z</time>
      </trkpt>
      <trkpt lat="47.53719" lon="6.70825">
        <ele>394</ele>
        <time>2019-04-14T07:59:14Z</time>
      </trkpt>
      <trkpt lat="47.53724" lon="6.70832">
        <ele>395</ele>
        <time>2019-04-14T07:59:19Z</time>
      </trkpt>
      <trkpt lat="47.53732" lon="6.70833">
        <ele>396</ele>
        <time>2019-04-14T07:59:24Z</time>
      </trkpt>
      <trkpt lat="47.53747" lon="6.70837">
        <ele>396</ele>
        <time>2019-04-14T07:59:29Z</time>
      </trkpt>
      <trkpt lat="47.53759" lon="6.70842">
        <ele>397</ele>
        <time>2019-04-14T07:59:34Z</time>
      </trkpt>
      <trkpt lat="47.53771" lon="6.70849">
        <ele>398</ele>
        <time>2019-04-14T07:59:39Z</time>
      </trkpt>
      <trkpt lat="47.53779" lon="6.70854">
        <ele>399</ele>
        <time>2019-04-14T07:59:44Z</time>
      </trkpt>
      <trkpt lat="47.53788" lon="6.70859">
        <ele>399</ele>
        <time>2019-04-14T07:59:49Z</time>
      </trkpt>
      <trkpt lat="47.53795" lon="6.70862">
        <ele>400</ele>
        <time>2019-04-14T07:59:54Z</time>
      </trkpt>
      <trkpt lat="47.53799" lon="6.70865">
        <ele>401</ele>
        <time>2019-04-14T07:59:59Z</time>
      </trkpt>
      <trkpt lat="47.53809" lon="6.7087">
        <ele>402</ele>
        <time>2019-04-14T08:00:04Z</time>
      </trkpt>
      <trkpt lat="47.53818" lon="6.70877">
        <ele>403</ele>
        <time>2019-04-14T08:00:09Z</time>
      </trkpt>
      <trkpt lat="47.53825" lon="6.70884">
        <ele>404</ele>
        <time>2019-04-14T08:00:14Z</time>
      </trkpt>
      <trkpt lat="47.53836" lon="6.70892">
        <ele>405</ele>
        <time>2019-04-14T08:00:19Z</time>
      </trkpt>
      <trkpt lat="47.53849" lon="6.70892">
        <ele>405</ele>
        <time>2019-04-14T08:00:24Z</time>
      </trkpt>
      <trkpt lat="47.53863" lon="6.70894">
        <ele>405</ele>
        <time>2019-04-14T08:00:29Z</time>
      </trkpt>
      <trkpt lat="47.53875" lon="6.70892">
        <ele>406</ele>
        <time>2019-04-14T08:00:34Z</time>
      </trkpt>
      <trkpt lat="47.53884" lon="6.7089">
        <ele>406</ele>
        <time>2019-04-14T08:00:39Z</time>
      </trkpt>
      <trkpt lat="47.53896" lon="6.70892">
        <ele>406</ele>
        <time>2019-04-14T08:00:44Z</time>
      </trkpt>
      <trkpt lat="47.53914" lon="6.70897">
        <ele>406</ele>
        <time>2019-04-14T08:00:49Z</time>
      </trkpt>
      <trkpt lat="47.53943" lon="6.70902">
        <ele>406</ele>
        <time>2019-04-14T08:00:54Z</time>
      </trkpt>
      <trkpt lat="47.53968" lon="6.70881">
        <ele>405</ele>
        <time>2019-04-14T08:00:59Z</time>
      </trkpt>
      <trkpt lat="47.53995" lon="6.70854">
        <ele>404</ele>
        <time>2019-04-14T08:01:04Z</time>
      </trkpt>
      <trkpt lat="47.54023" lon="6.70823">
        <ele>402</ele>
        <time>2019-04-14T08:01:09Z</time>
      </trkpt>
      <trkpt lat="47.54052" lon="6.70806">
        <ele>399</ele>
        <time>2019-04-14T08:01:14Z</time>
      </trkpt>
      <trkpt lat="47.54084" lon="6.70804">
        <ele>395</ele>
        <time>2019-04-14T08:01:19Z</time>
      </trkpt>
      <trkpt lat="47.54121" lon="6.70787">
        <ele>391</ele>
        <time>2019-04-14T08:01:24Z</time>
      </trkpt>
      <trkpt lat="47.54146" lon="6.70774">
        <ele>386</ele>
        <time>2019-04-14T08:01:29Z</time>
      </trkpt>
      <trkpt lat="47.54166" lon="6.70764">
        <ele>383</ele>
        <time>2019-04-14T08:01:34Z</time>
      </trkpt>
      <trkpt lat="47.54189" lon="6.70756">
        <ele>380</ele>
        <time>2019-04-14T08:01:39Z</time>
      </trkpt>
      <trkpt lat="47.54212" lon="6.70743">
        <ele>378</ele>
        <time>2019-04-14T08:01:44Z</time>
      </trkpt>
      <trkpt lat="47.54236" lon="6.70732">
        <ele>377</ele>
        <time>2019-04-14T08:01:49Z</time>
      </trkpt>
      <trkpt lat="47.54253" lon="6.70722">
        <ele>377</ele>
        <time>2019-04-14T08:01:54Z</time>
      </trkpt>
      <trkpt lat="47.54275" lon="6.70711">
        <ele>377</ele>
        <time>2019-04-14T08:01:59Z</time>
      </trkpt>
      <trkpt lat="47.54293" lon="6.707">
        <ele>377</ele>
        <time>2019-04-14T08:02:04Z</time>
      </trkpt>
      <trkpt lat="47.54315" lon="6.70684">
        <ele>377</ele>
        <time>2019-04-14T08:02:09Z</time>
      </trkpt>
      <trkpt lat="47.54337" lon="6.70708">
        <ele>376</ele>
        <time>2019-04-14T08:02:14Z</time>
      </trkpt>
      <trkpt lat="47.5434" lon="6.70746">
        <ele>375</ele>
        <time>2019-04-14T08:02:19Z</time>
      </trkpt>
      <trkpt lat="47.54356" lon="6.7075">
        <ele>373</ele>
        <time>2019-04-14T08:02:24Z</time>
      </trkpt>
      <trkpt lat="47.54372" lon="6.7073">
        <ele>372</ele>
        <time>2019-04-14T08:02:29Z</time>
      </trkpt>
      <trkpt lat="47.54376" lon="6.70689">
        <ele>371</ele>
        <time>2019-04-14T08:02:34Z</time>
      </trkpt>
      <trkpt lat="47.544" lon="6.70656">
        <ele>370</ele>
        <time>2019-04-14T08:02:39Z</time>
      </trkpt>
      <trkpt lat="47.54425" lon="6.70615">
        <ele>369</ele>
        <time>2019-04-14T08:02:44Z</time>
      </trkpt>
      <trkpt lat="47.5445" lon="6.70601">
        <ele>367</ele>
        <time>2019-04-14T08:02:49Z</time>
      </trkpt>
      <trkpt lat="47.54474" lon="6.70578">
        <ele>366</ele>
        <time>2019-04-14T08:02:54Z</time>
      </trkpt>
      <trkpt lat="47.54498" lon="6.70564">
        <ele>365</ele>
        <time>2019-04-14T08:02:59Z</time>
      </trkpt>
      <trkpt lat="47.54532" lon="6.70553">
        <ele>364</ele>
        <time>2019-04-14T08:03:04Z</time>
      </trkpt>
      <trkpt lat="47.54558" lon="6.70544">
        <ele>364</ele>
        <time>2019-04-14T08:03:09Z</time>
      </trkpt>
      <trkpt lat="47.54592" lon="6.70539">
        <ele>365</ele>
        <time>2019-04-14T08:03:14Z</time>
      </trkpt>
      <trkpt lat="47.54621" lon="6.7053">
        <ele>365</ele>
        <time>2019-04-14T08:03:19Z</time>
      </trkpt>
      <trkpt lat="47.54644" lon="6.70524">
        <ele>365</ele>
        <time>2019-04-14T08:03:24Z</time>
      </trkpt>
      <trkpt lat="47.54663" lon="6.7052">
        <ele>365</ele>
        <time>2019-04-14T08:03:29Z</time>
      </trkpt>
      <trkpt lat="47.54679" lon="6.70505">
        <ele>365</ele>
        <time>2019-04-14T08:03:34Z</time>
      </trkpt>
      <trkpt lat="47.54694" lon="6.70488">
        <ele>365</ele>
        <time>2019-04-14T08:03:39Z</time>
      </trkpt>
      <trkpt lat="47.5471" lon="6.70478">
        <ele>365</ele>
        <time>2019-04-14T08:03:44Z</time>
      </trkpt>
      <trkpt lat="47.54721" lon="6.70473">
        <ele>365</ele>
        <time>2019-04-14T08:03:49Z</time>
      </trkpt>
      <trkpt lat="47.54731" lon="6.70471">
        <ele>365</ele>
        <time>2019-04-14T08:03:54Z</time>
      </trkpt>
      <trkpt lat="47.54739" lon="6.70466">
        <ele>365</ele>
        <time>2019-04-14T08:03:59Z</time>
      </trkpt>
      <trkpt lat="47.54742" lon="6.70465">
        <ele>365</ele>
        <time>2019-04-14T08:04:15Z</time>
      </trkpt>
      <trkpt lat="47.54742" lon="6.70465">
        <ele>365</ele>
        <time>2019-04-14T08:04:16Z</time>
      </trkpt>
      <trkpt lat="47.54742" lon="6.70465">
        <ele>365</ele>
        <time>2019-04-14T08:04:45Z</time>
      </trkpt>
      <trkpt lat="47.54742" lon="6.70465">
        <ele>365</ele>
        <time>2019-04-14T08:04:46Z</time>
      </trkpt>
      <trkpt lat="47.54742" lon="6.70465">
        <ele>365</ele>
        <time>2019-04-14T08:05:15Z</time>
      </trkpt>
      <trkpt lat="47.54742" lon="6.70465">
        <ele>365</ele>
        <time>2019-04-14T08:05:17Z</time>
      </trkpt>
      <trkpt lat="47.5475" lon="6.70466">
        <ele>364</ele>
        <time>2019-04-14T08:05:37Z</time>
      </trkpt>
      <trkpt lat="47.54757" lon="6.70464">
        <ele>364</ele>
        <time>2019-04-14T08:05:44Z</time>
      </trkpt>
      <trkpt lat="47.5476" lon="6.70457">
        <ele>364</ele>
        <time>2019-04-14T08:05:49Z</time>
      </trkpt>
      <trkpt lat="47.54769" lon="6.70422">
        <ele>363</ele>
        <time>2019-04-14T08:05:54Z</time>
      </trkpt>
      <trkpt lat="47.54774" lon="6.70386">
        <ele>363</ele>
        <time>2019-04-14T08:05:59Z</time>
      </trkpt>
      <trkpt lat="47.54778" lon="6.70365">
        <ele>363</ele>
        <time>2019-04-14T08:06:04Z</time>
      </trkpt>
      <trkpt lat="47.54794" lon="6.70351">
        <ele>362</ele>
        <time>2019-04-14T08:06:09Z</time>
      </trkpt>
      <trkpt lat="47.54801" lon="6.70325">
        <ele>362</ele>
        <time>2019-04-14T08:06:14Z</time>
      </trkpt>
      <trkpt lat="47.54805" lon="6.70292">
        <ele>361</ele>
        <time>2019-04-14T08:06:19Z</time>
      </trkpt>
      <trkpt lat="47.54811" lon="6.70261">
        <ele>359</ele>
        <time>2019-04-14T08:06:24Z</time>
      </trkpt>
      <trkpt lat="47.54818" lon="6.70233">
        <ele>358</ele>
        <time>2019-04-14T08:06:29Z</time>
      </trkpt>
      <trkpt lat="47.54822" lon="6.70209">
        <ele>357</ele>
        <time>2019-04-14T08:06:34Z</time>
      </trkpt>
      <trkpt lat="47.54818" lon="6.70182">
        <ele>356</ele>
        <time>2019-04-14T08:06:39Z</time>
      </trkpt>
      <trkpt lat="47.54816" lon="6.70151">
        <ele>355</ele>
        <time>2019-04-14T08:06:44Z</time>
      </trkpt>
      <trkpt lat="47.54812" lon="6.70124">
        <ele>355</ele>
        <time>2019-04-14T08:06:49Z</time>
      </trkpt>
      <trkpt lat="47.54809" lon="6.70094">
        <ele>355</ele>
        <time>2019-04-14T08:06:54Z</time>
      </trkpt>
      <trkpt lat="47.5481" lon="6.70059">
        <ele>355</ele>
        <time>2019-04-14T08:06:59Z</time>
      </trkpt>
      <trkpt lat="47.5481" lon="6.70015">
        <ele>354</ele>
        <time>2019-04-14T08:07:04Z</time>
      </trkpt>
      <trkpt lat="47.54798" lon="6.69973">
        <ele>354</ele>
        <time>2019-04-14T08:07:09Z</time>
      </trkpt>
      <trkpt lat="47.54795" lon="6.69933">
        <ele>353</ele>
        <time>2019-04-14T08:07:14Z</time>
      </trkpt>
      <trkpt lat="47.54804" lon="6.69891">
        <ele>353</ele>
        <time>2019-04-14T08:07:19Z</time>
      </trkpt>
      <trkpt lat="47.54809" lon="6.69851">
        <ele>352</ele>
        <time>2019-04-14T08:07:24Z</time>
      </trkpt>
      <trkpt lat="47.54811" lon="6.69814">
        <ele>351</ele>
        <time>2019-04-14T08:07:29Z</time>
      </trkpt>
      <trkpt lat="47.54813" lon="6.69782">
        <ele>350</ele>
        <time>2019-04-14T08:07:34Z</time>
      </trkpt>
      <trkpt lat="47.54817" lon="6.69758">
        <ele>349</ele>
        <time>2019-04-14T08:07:39Z</time>
      </trkpt>
      <trkpt lat="47.54823" lon="6.69738">
        <ele>349</ele>
        <time>2019-04-14T08:07:44Z</time>
      </trkpt>
      <trkpt lat="47.54819" lon="6.69717">
        <ele>349</ele>
        <time>2019-04-14T08:07:49Z</time>
      </trkpt>
      <trkpt lat="47.54808" lon="6.69688">
        <ele>349</ele>
        <time>2019-04-14T08:07:54Z</time>
      </trkpt>
      <trkpt lat="47.54813" lon="6.69657">
        <ele>349</ele>
        <time>2019-04-14T08:07:59Z</time>
      </trkpt>
      <trkpt lat="47.54824" lon="6.69626">
        <ele>350</ele>
        <time>2019-04-14T08:08:04Z</time>
      </trkpt>
      <trkpt lat="47.54834" lon="6.696">
        <ele>350</ele>
        <time>2019-04-14T08:08:09Z</time>
      </trkpt>
      <trkpt lat="47.54844" lon="6.6958">
        <ele>350</ele>
        <time>2019-04-14T08:08:14Z</time>
      </trkpt>
      <trkpt lat="47.54856" lon="6.69568">
        <ele>350</ele>
        <time>2019-04-14T08:08:19Z</time>
      </trkpt>
      <trkpt lat="47.54866" lon="6.6957">
        <ele>350</ele>
        <time>2019-04-14T08:08:24Z</time>
      </trkpt>
      <trkpt lat="47.54879" lon="6.69584">
        <ele>351</ele>
        <time>2019-04-14T08:08:29Z</time>
      </trkpt>
      <trkpt lat="47.54895" lon="6.69598">
        <ele>351</ele>
        <time>2019-04-14T08:08:34Z</time>
      </trkpt>
      <trkpt lat="47.54915" lon="6.69607">
        <ele>352</ele>
        <time>2019-04-14T08:08:39Z</time>
      </trkpt>
      <trkpt lat="47.54934" lon="6.6962">
        <ele>353</ele>
        <time>2019-04-14T08:08:44Z</time>
      </trkpt>
      <trkpt lat="47.54949" lon="6.69612">
        <ele>354</ele>
        <time>2019-04-14T08:08:49Z</time>
      </trkpt>
      <trkpt lat="47.54964" lon="6.69592">
        <ele>355</ele>
        <time>2019-04-14T08:08:54Z</time>
      </trkpt>
      <trkpt lat="47.54975" lon="6.69579">
        <ele>355</ele>
        <time>2019-04-14T08:08:59Z</time>
      </trkpt>
      <trkpt lat="47.54986" lon="6.69561">
        <ele>356</ele>
        <time>2019-04-14T08:09:04Z</time>
      </trkpt>
      <trkpt lat="47.54994" lon="6.69545">
        <ele>356</ele>
        <time>2019-04-14T08:09:09Z</time>
      </trkpt>
      <trkpt lat="47.55002" lon="6.69527">
        <ele>356</ele>
        <time>2019-04-14T08:09:14Z</time>
      </trkpt>
      <trkpt lat="47.55012" lon="6.69512">
        <ele>356</ele>
        <time>2019-04-14T08:09:19Z</time>
      </trkpt>
      <trkpt lat="47.55022" lon="6.695">
        <ele>357</ele>
        <time>2019-04-14T08:09:24Z</time>
      </trkpt>
      <trkpt lat="47.55033" lon="6.69496">
        <ele>357</ele>
        <time>2019-04-14T08:09:29Z</time>
      </trkpt>
      <trkpt lat="47.55045" lon="6.69492">
        <ele>358</ele>
        <time>2019-04-14T08:09:34Z</time>
      </trkpt>
      <trkpt lat="47.55056" lon="6.69485">
        <ele>358</ele>
        <time>2019-04-14T08:09:39Z</time>
      </trkpt>
      <trkpt lat="47.55068" lon="6.69475">
        <ele>359</ele>
        <time>2019-04-14T08:09:44Z</time>
      </trkpt>
      <trkpt lat="47.55078" lon="6.69461">
        <ele>360</ele>
        <time>2019-04-14T08:09:49Z</time>
      </trkpt>
      <trkpt lat="47.55087" lon="6.6945">
        <ele>360</ele>
        <time>2019-04-14T08:09:54Z</time>
      </trkpt>
      <trkpt lat="47.551" lon="6.69446">
        <ele>361</ele>
        <time>2019-04-14T08:09:59Z</time>
      </trkpt>
      <trkpt lat="47.55113" lon="6.69447">
        <ele>362</ele>
        <time>2019-04-14T08:10:04Z</time>
      </trkpt>
      <trkpt lat="47.55123" lon="6.69451">
        <ele>363</ele>
        <time>2019-04-14T08:10:09Z</time>
      </trkpt>
      <trkpt lat="47.55134" lon="6.69453">
        <ele>363</ele>
        <time>2019-04-14T08:10:14Z</time>
      </trkpt>
      <trkpt lat="47.55143" lon="6.69456">
        <ele>364</ele>
        <time>2019-04-14T08:10:19Z</time>
      </trkpt>
      <trkpt lat="47.55156" lon="6.69459">
        <ele>365</ele>
        <time>2019-04-14T08:10:24Z</time>
      </trkpt>
      <trkpt lat="47.55167" lon="6.69458">
        <ele>366</ele>
        <time>2019-04-14T08:10:29Z</time>
      </trkpt>
      <trkpt lat="47.55177" lon="6.6946">
        <ele>367</ele>
        <time>2019-04-14T08:10:34Z</time>
      </trkpt>
      <trkpt lat="47.55189" lon="6.69468">
        <ele>368</ele>
        <time>2019-04-14T08:10:39Z</time>
      </trkpt>
      <trkpt lat="47.55199" lon="6.69474">
        <ele>369</ele>
        <time>2019-04-14T08:10:44Z</time>
      </trkpt>
      <trkpt lat="47.5521" lon="6.69483">
        <ele>370</ele>
        <time>2019-04-14T08:10:49Z</time>
      </trkpt>
      <trkpt lat="47.55221" lon="6.69495">
        <ele>371</ele>
        <time>2019-04-14T08:10:54Z</time>
      </trkpt>
      <trkpt lat="47.55232" lon="6.69505">
        <ele>372</ele>
        <time>2019-04-14T08:10:59Z</time>
      </trkpt>
      <trkpt lat="47.55245" lon="6.69512">
        <ele>372</ele>
        <time>2019-04-14T08:11:04Z</time>
      </trkpt>
      <trkpt lat="47.55262" lon="6.69517">
        <ele>373</ele>
        <time>2019-04-14T08:11:09Z</time>
      </trkpt>
      <trkpt lat="47.55279" lon="6.69519">
        <ele>373</ele>
        <time>2019-04-14T08:11:14Z</time>
      </trkpt>
      <trkpt lat="47.55299" lon="6.69529">
        <ele>374</ele>
        <time>2019-04-14T08:11:19Z</time>
      </trkpt>
      <trkpt lat="47.55318" lon="6.69544">
        <ele>375</ele>
        <time>2019-04-14T08:11:24Z</time>
      </trkpt>
      <trkpt lat="47.55339" lon="6.69559">
        <ele>376</ele>
        <time>2019-04-14T08:11:29Z</time>
      </trkpt>
      <trkpt lat="47.55356" lon="6.69567">
        <ele>377</ele>
        <time>2019-04-14T08:11:34Z</time>
      </trkpt>
      <trkpt lat="47.55377" lon="6.69545">
        <ele>378</ele>
        <time>2019-04-14T08:11:39Z</time>
      </trkpt>
      <trkpt lat="47.55399" lon="6.69501">
        <ele>378</ele>
        <time>2019-04-14T08:11:44Z</time>
      </trkpt>
      <trkpt lat="47.55421" lon="6.69457">
        <ele>377</ele>
        <time>2019-04-14T08:11:49Z</time>
      </trkpt>
      <trkpt lat="47.55441" lon="6.69412">
        <ele>375</ele>
        <time>2019-04-14T08:11:54Z</time>
      </trkpt>
      <trkpt lat="47.55453" lon="6.69372">
        <ele>374</ele>
        <time>2019-04-14T08:11:59Z</time>
      </trkpt>
      <trkpt lat="47.55456" lon="6.69353">
        <ele>373</ele>
        <time>2019-04-14T08:12:04Z</time>
      </trkpt>
      <trkpt lat="47.5546" lon="6.69336">
        <ele>372</ele>
        <time>2019-04-14T08:12:09Z</time>
      </trkpt>
      <trkpt lat="47.55466" lon="6.69323">
        <ele>372</ele>
        <time>2019-04-14T08:12:14Z</time>
      </trkpt>
      <trkpt lat="47.55472" lon="6.69317">
        <ele>372</ele>
        <time>2019-04-14T08:12:19Z</time>
      </trkpt>
      <trkpt lat="47.55478" lon="6.69305">
        <ele>373</ele>
        <time>2019-04-14T08:12:24Z</time>
      </trkpt>
      <trkpt lat="47.55489" lon="6.69313">
        <ele>374</ele>
        <time>2019-04-14T08:12:32Z</time>
      </trkpt>
      <trkpt lat="47.55499" lon="6.69321">
        <ele>374</ele>
        <time>2019-04-14T08:12:37Z</time>
      </trkpt>
      <trkpt lat="47.55506" lon="6.69326">
        <ele>375</ele>
        <time>2019-04-14T08:12:42Z</time>
      </trkpt>
      <trkpt lat="47.55514" lon="6.69332">
        <ele>376</ele>
        <time>2019-04-14T08:12:47Z</time>
      </trkpt>
      <trkpt lat="47.55526" lon="6.69339">
        <ele>376</ele>
        <time>2019-04-14T08:12:52Z</time>
      </trkpt>
      <trkpt lat="47.55538" lon="6.69346">
        <ele>377</ele>
        <time>2019-04-14T08:12:57Z</time>
      </trkpt>
      <trkpt lat="47.5555" lon="6.69354">
        <ele>378</ele>
        <time>2019-04-14T08:13:02Z</time>
      </trkpt>
      <trkpt lat="47.55561" lon="6.69362">
        <ele>378</ele>
        <time>2019-04-14T08:13:07Z</time>
      </trkpt>
      <trkpt lat="47.55573" lon="6.69375">
        <ele>379</ele>
        <time>2019-04-14T08:13:12Z</time>
      </trkpt>
      <trkpt lat="47.55582" lon="6.69395">
        <ele>380</ele>
        <time>2019-04-14T08:13:17Z</time>
      </trkpt>
      <trkpt lat="47.55589" lon="6.69412">
        <ele>381</ele>
        <time>2019-04-14T08:13:22Z</time>
      </trkpt>
      <trkpt lat="47.55597" lon="6.69427">
        <ele>381</ele>
        <time>2019-04-14T08:13:27Z</time>
      </trkpt>
      <trkpt lat="47.55607" lon="6.69435">
        <ele>382</ele>
        <time>2019-04-14T08:13:32Z</time>
      </trkpt>
      <trkpt lat="47.55618" lon="6.6944">
        <ele>383</ele>
        <time>2019-04-14T08:13:37Z</time>
      </trkpt>
      <trkpt lat="47.55631" lon="6.6944">
        <ele>384</ele>
        <time>2019-04-14T08:13:42Z</time>
      </trkpt>
      <trkpt lat="47.55644" lon="6.69439">
        <ele>384</ele>
        <time>2019-04-14T08:13:47Z</time>
      </trkpt>
      <trkpt lat="47.55656" lon="6.69438">
        <ele>385</ele>
        <time>2019-04-14T08:13:52Z</time>
      </trkpt>
      <trkpt lat="47.55672" lon="6.69437">
        <ele>385</ele>
        <time>2019-04-14T08:13:57Z</time>
      </trkpt>
      <trkpt lat="47.55686" lon="6.69445">
        <ele>386</ele>
        <time>2019-04-14T08:14:02Z</time>
      </trkpt>
      <trkpt lat="47.557" lon="6.69438">
        <ele>386</ele>
        <time>2019-04-14T08:14:07Z</time>
      </trkpt>
      <trkpt lat="47.55708" lon="6.69424">
        <ele>386</ele>
        <time>2019-04-14T08:14:12Z</time>
      </trkpt>
      <trkpt lat="47.55715" lon="6.69409">
        <ele>386</ele>
        <time>2019-04-14T08:14:17Z</time>
      </trkpt>
      <trkpt lat="47.55719" lon="6.69395">
        <ele>386</ele>
        <time>2019-04-14T08:14:22Z</time>
      </trkpt>
      <trkpt lat="47.55726" lon="6.69381">
        <ele>386</ele>
        <time>2019-04-14T08:14:27Z</time>
      </trkpt>
      <trkpt lat="47.55732" lon="6.69365">
        <ele>387</ele>
        <time>2019-04-14T08:14:32Z</time>
      </trkpt>
      <trkpt lat="47.55739" lon="6.69351">
        <ele>387</ele>
        <time>2019-04-14T08:14:37Z</time>
      </trkpt>
      <trkpt lat="47.55747" lon="6.69339">
        <ele>387</ele>
        <time>2019-04-14T08:14:42Z</time>
      </trkpt>
      <trkpt lat="47.55757" lon="6.69328">
        <ele>388</ele>
        <time>2019-04-14T08:14:47Z</time>
      </trkpt>
      <trkpt lat="47.55767" lon="6.69318">
        <ele>389</ele>
        <time>2019-04-14T08:14:52Z</time>
      </trkpt>
      <trkpt lat="47.55776" lon="6.69309">
        <ele>389</ele>
        <time>2019-04-14T08:14:57Z</time>
      </trkpt>
      <trkpt lat="47.55786" lon="6.69299">
        <ele>390</ele>
        <time>2019-04-14T08:15:02Z</time>
      </trkpt>
      <trkpt lat="47.55795" lon="6.69286">
        <ele>390</ele>
        <time>2019-04-14T08:15:07Z</time>
      </trkpt>
      <trkpt lat="47.55803" lon="6.69271">
        <ele>391</ele>
        <time>2019-04-14T08:15:12Z</time>
      </trkpt>
      <trkpt lat="47.55811" lon="6.69256">
        <ele>392</ele>
        <time>2019-04-14T08:15:17Z</time>
      </trkpt>
      <trkpt lat="47.55821" lon="6.69241">
        <ele>392</ele>
        <time>2019-04-14T08:15:22Z</time>
      </trkpt>
      <trkpt lat="47.5583" lon="6.69224">
        <ele>393</ele>
        <time>2019-04-14T08:15:27Z</time>
      </trkpt>
      <trkpt lat="47.55839" lon="6.69209">
        <ele>393</ele>
        <time>2019-04-14T08:15:32Z</time>
      </trkpt>
      <trkpt lat="47.5585" lon="6.69193">
        <ele>393</ele>
        <time>2019-04-14T08:15:37Z</time>
      </trkpt>
      <trkpt lat="47.55862" lon="6.69176">
        <ele>394</ele>
        <time>2019-04-14T08:15:42Z</time>
      </trkpt>
      <trkpt lat="47.55873" lon="6.69162">
        <ele>394</ele>
        <time>2019-04-14T08:15:47Z</time>
      </trkpt>
      <trkpt lat="47.55884" lon="6.6915">
        <ele>394</ele>
        <time>2019-04-14T08:15:52Z</time>
      </trkpt>
      <trkpt lat="47.55897" lon="6.69141">
        <ele>395</ele>
        <time>2019-04-14T08:15:57Z</time>
      </trkpt>
      <trkpt lat="47.55905" lon="6.6914">
        <ele>395</ele>
        <time>2019-04-14T08:16:02Z</time>
      </trkpt>
      <trkpt lat="47.55914" lon="6.69143">
        <ele>396</ele>
        <time>2019-04-14T08:16:07Z</time>
      </trkpt>
      <trkpt lat="47.55923" lon="6.69147">
        <ele>397</ele>
        <time>2019-04-14T08:16:12Z</time>
      </trkpt>
      <trkpt lat="47.55929" lon="6.69161">
        <ele>398</ele>
        <time>2019-04-14T08:16:17Z</time>
      </trkpt>
      <trkpt lat="47.55935" lon="6.69174">
        <ele>399</ele>
        <time>2019-04-14T08:16:22Z</time>
      </trkpt>
      <trkpt lat="47.55939" lon="6.69193">
        <ele>399</ele>
        <time>2019-04-14T08:16:27Z</time>
      </trkpt>
      <trkpt lat="47.55941" lon="6.69205">
        <ele>400</ele>
        <time>2019-04-14T08:16:32Z</time>
      </trkpt>
      <trkpt lat="47.55943" lon="6.6922">
        <ele>401</ele>
        <time>2019-04-14T08:16:37Z</time>
      </trkpt>
      <trkpt lat="47.55947" lon="6.69236">
        <ele>401</ele>
        <time>2019-04-14T08:16:42Z</time>
      </trkpt>
      <trkpt lat="47.5595" lon="6.6925">
        <ele>402</ele>
        <time>2019-04-14T08:16:47Z</time>
      </trkpt>
      <trkpt lat="47.55953" lon="6.69261">
        <ele>402</ele>
        <time>2019-04-14T08:16:52Z</time>
      </trkpt>
      <trkpt lat="47.55956" lon="6.69273">
        <ele>403</ele>
        <time>2019-04-14T08:16:57Z</time>
      </trkpt>
      <trkpt lat="47.5596" lon="6.69286">
        <ele>404</ele>
        <time>2019-04-14T08:17:02Z</time>
      </trkpt>
      <trkpt lat="47.55964" lon="6.69296">
        <ele>404</ele>
        <time>2019-04-14T08:17:07Z</time>
      </trkpt>
      <trkpt lat="47.55968" lon="6.69307">
        <ele>405</ele>
        <time>2019-04-14T08:17:12Z</time>
      </trkpt>
      <trkpt lat="47.5597" lon="6.6932">
        <ele>405</ele>
        <time>2019-04-14T08:17:17Z</time>
      </trkpt>
      <trkpt lat="47.55969" lon="6.69335">
        <ele>406</ele>
        <time>2019-04-14T08:17:22Z</time>
      </trkpt>
      <trkpt lat="47.55969" lon="6.69351">
        <ele>407</ele>
        <time>2019-04-14T08:17:27Z</time>
      </trkpt>
      <trkpt lat="47.55969" lon="6.6937">
        <ele>407</ele>
        <time>2019-04-14T08:17:32Z</time>
      </trkpt>
      <trkpt lat="47.5597" lon="6.69394">
        <ele>407</ele>
        <time>2019-04-14T08:17:37Z</time>
      </trkpt>
      <trkpt lat="47.55971" lon="6.69416">
        <ele>408</ele>
        <time>2019-04-14T08:17:42Z</time>
      </trkpt>
      <trkpt lat="47.55972" lon="6.69437">
        <ele>408</ele>
        <time>2019-04-14T08:17:47Z</time>
      </trkpt>
      <trkpt lat="47.55975" lon="6.6946">
        <ele>408</ele>
        <time>2019-04-14T08:17:52Z</time>
      </trkpt>
      <trkpt lat="47.55979" lon="6.69484">
        <ele>408</ele>
        <time>2019-04-14T08:17:57Z</time>
      </trkpt>
      <trkpt lat="47.55983" lon="6.69508">
        <ele>408</ele>
        <time>2019-04-14T08:18:02Z</time>
      </trkpt>
      <trkpt lat="47.5599" lon="6.69524">
        <ele>409</ele>
        <time>2019-04-14T08:18:07Z</time>
      </trkpt>
      <trkpt lat="47.55999" lon="6.69529">
        <ele>409</ele>
        <time>2019-04-14T08:18:12Z</time>
      </trkpt>
      <trkpt lat="47.5601" lon="6.69542">
        <ele>409</ele>
        <time>2019-04-14T08:18:17Z</time>
      </trkpt>
      <trkpt lat="47.56018" lon="6.69564">
        <ele>410</ele>
        <time>2019-04-14T08:18:22Z</time>
      </trkpt>
      <trkpt lat="47.56028" lon="6.69584">
        <ele>410</ele>
        <time>2019-04-14T08:18:27Z</time>
      </trkpt>
      <trkpt lat="47.56038" lon="6.69598">
        <ele>410</ele>
        <time>2019-04-14T08:18:32Z</time>
      </trkpt>
      <trkpt lat="47.56046" lon="6.69611">
        <ele>411</ele>
        <time>2019-04-14T08:18:37Z</time>
      </trkpt>
      <trkpt lat="47.56058" lon="6.69625">
        <ele>410</ele>
        <time>2019-04-14T08:18:42Z</time>
      </trkpt>
      <trkpt lat="47.56069" lon="6.69643">
        <ele>410</ele>
        <time>2019-04-14T08:18:47Z</time>
      </trkpt>
      <trkpt lat="47.56081" lon="6.69647">
        <ele>410</ele>
        <time>2019-04-14T08:18:52Z</time>
      </trkpt>
      <trkpt lat="47.56088" lon="6.69634">
        <ele>411</ele>
        <time>2019-04-14T08:18:57Z</time>
      </trkpt>
      <trkpt lat="47.56092" lon="6.6962">
        <ele>411</ele>
        <time>2019-04-14T08:19:02Z</time>
      </trkpt>
      <trkpt lat="47.56095" lon="6.69608">
        <ele>411</ele>
        <time>2019-04-14T08:19:07Z</time>
      </trkpt>
      <trkpt lat="47.561" lon="6.69596">
        <ele>412</ele>
        <time>2019-04-14T08:19:12Z</time>
      </trkpt>
      <trkpt lat="47.56106" lon="6.69583">
        <ele>413</ele>
        <time>2019-04-14T08:19:17Z</time>
      </trkpt>
      <trkpt lat="47.56113" lon="6.6957">
        <ele>413</ele>
        <time>2019-04-14T08:19:22Z</time>
      </trkpt>
      <trkpt lat="47.56117" lon="6.69561">
        <ele>414</ele>
        <time>2019-04-14T08:19:27Z</time>
      </trkpt>
      <trkpt lat="47.56124" lon="6.69549">
        <ele>415</ele>
        <time>2019-04-14T08:19:32Z</time>
      </trkpt>
      <trkpt lat="47.56132" lon="6.69534">
        <ele>415</ele>
        <time>2019-04-14T08:19:37Z</time>
      </trkpt>
      <trkpt lat="47.5614" lon="6.69518">
        <ele>416</ele>
        <time>2019-04-14T08:19:42Z</time>
      </trkpt>
      <trkpt lat="47.56146" lon="6.69506">
        <ele>416</ele>
        <time>2019-04-14T08:19:47Z</time>
      </trkpt>
      <trkpt lat="47.56153" lon="6.69493">
        <ele>417</ele>
        <time>2019-04-14T08:19:52Z</time>
      </trkpt>
      <trkpt lat="47.5616" lon="6.69481">
        <ele>417</ele>
        <time>2019-04-14T08:19:57Z</time>
      </trkpt>
      <trkpt lat="47.56169" lon="6.69465">
        <ele>418</ele>
        <time>2019-04-14T08:20:02Z</time>
      </trkpt>
      <trkpt lat="47.56176" lon="6.69454">
        <ele>419</ele>
        <time>2019-04-14T08:20:07Z</time>
      </trkpt>
      <trkpt lat="47.56185" lon="6.69442">
        <ele>420</ele>
        <time>2019-04-14T08:20:12Z</time>
      </trkpt>
      <trkpt lat="47.56195" lon="6.69431">
        <ele>420</ele>
        <time>2019-04-14T08:20:17Z</time>
      </trkpt>
      <trkpt lat="47.56201" lon="6.69437">
        <ele>421</ele>
        <time>2019-04-14T08:20:22Z</time>
      </trkpt>
      <trkpt lat="47.56211" lon="6.6945">
        <ele>422</ele>
        <time>2019-04-14T08:20:27Z</time>
      </trkpt>
      <trkpt lat="47.56219" lon="6.6946">
        <ele>423</ele>
        <time>2019-04-14T08:20:32Z</time>
      </trkpt>
      <trkpt lat="47.56227" lon="6.69467">
        <ele>424</ele>
        <time>2019-04-14T08:20:37Z</time>
      </trkpt>
      <trkpt lat="47.56238" lon="6.69476">
        <ele>425</ele>
        <time>2019-04-14T08:20:42Z</time>
      </trkpt>
      <trkpt lat="47.56248" lon="6.69486">
        <ele>426</ele>
        <time>2019-04-14T08:20:47Z</time>
      </trkpt>
      <trkpt lat="47.5626" lon="6.69506">
        <ele>428</ele>
        <time>2019-04-14T08:20:52Z</time>
      </trkpt>
      <trkpt lat="47.56271" lon="6.69527">
        <ele>428</ele>
        <time>2019-04-14T08:20:57Z</time>
      </trkpt>
      <trkpt lat="47.56285" lon="6.69549">
        <ele>429</ele>
        <time>2019-04-14T08:21:02Z</time>
      </trkpt>
      <trkpt lat="47.56303" lon="6.69574">
        <ele>429</ele>
        <time>2019-04-14T08:21:07Z</time>
      </trkpt>
      <trkpt lat="47.56333" lon="6.69604">
        <ele>429</ele>
        <time>2019-04-14T08:21:12Z</time>
      </trkpt>
      <trkpt lat="47.56379" lon="6.69651">
        <ele>427</ele>
        <time>2019-04-14T08:21:17Z</time>
      </trkpt>
      <trkpt lat="47.56413" lon="6.6972">
        <ele>424</ele>
        <time>2019-04-14T08:21:22Z</time>
      </trkpt>
      <trkpt lat="47.56435" lon="6.69791">
        <ele>419</ele>
        <time>2019-04-14T08:21:27Z</time>
      </trkpt>
      <trkpt lat="47.56454" lon="6.6986">
        <ele>414</ele>
        <time>2019-04-14T08:21:32Z</time>
      </trkpt>
      <trkpt lat="47.56469" lon="6.69906">
        <ele>408</ele>
        <time>2019-04-14T08:21:37Z</time>
      </trkpt>
      <trkpt lat="47.56478" lon="6.69898">
        <ele>403</ele>
        <time>2019-04-14T08:21:42Z</time>
      </trkpt>
      <trkpt lat="47.56487" lon="6.69884">
        <ele>401</ele>
        <time>2019-04-14T08:21:47Z</time>
      </trkpt>
      <trkpt lat="47.56497" lon="6.69873">
        <ele>399</ele>
        <time>2019-04-14T08:21:52Z</time>
      </trkpt>
      <trkpt lat="47.56506" lon="6.69862">
        <ele>398</ele>
        <time>2019-04-14T08:21:57Z</time>
      </trkpt>
      <trkpt lat="47.56516" lon="6.69851">
        <ele>398</ele>
        <time>2019-04-14T08:22:02Z</time>
      </trkpt>
      <trkpt lat="47.56524" lon="6.69841">
        <ele>398</ele>
        <time>2019-04-14T08:22:07Z</time>
      </trkpt>
      <trkpt lat="47.56533" lon="6.6983">
        <ele>398</ele>
        <time>2019-04-14T08:22:12Z</time>
      </trkpt>
      <trkpt lat="47.5654" lon="6.69818">
        <ele>399</ele>
        <time>2019-04-14T08:22:17Z</time>
      </trkpt>
      <trkpt lat="47.56546" lon="6.69802">
        <ele>399</ele>
        <time>2019-04-14T08:22:22Z</time>
      </trkpt>
      <trkpt lat="47.56551" lon="6.69787">
        <ele>399</ele>
        <time>2019-04-14T08:22:27Z</time>
      </trkpt>
      <trkpt lat="47.56554" lon="6.69772">
        <ele>400</ele>
        <time>2019-04-14T08:22:32Z</time>
      </trkpt>
      <trkpt lat="47.56558" lon="6.6976">
        <ele>401</ele>
        <time>2019-04-14T08:22:37Z</time>
      </trkpt>
      <trkpt lat="47.56564" lon="6.69748">
        <ele>401</ele>
        <time>2019-04-14T08:22:42Z</time>
      </trkpt>
      <trkpt lat="47.56571" lon="6.69735">
        <ele>402</ele>
        <time>2019-04-14T08:22:47Z</time>
      </trkpt>
      <trkpt lat="47.56576" lon="6.69726">
        <ele>402</ele>
        <time>2019-04-14T08:22:52Z</time>
      </trkpt>
      <trkpt lat="47.56581" lon="6.69717">
        <ele>403</ele>
        <time>2019-04-14T08:22:57Z</time>
      </trkpt>
      <trkpt lat="47.56586" lon="6.69708">
        <ele>404</ele>
        <time>2019-04-14T08:23:02Z</time>
      </trkpt>
      <trkpt lat="47.5659" lon="6.69699">
        <ele>404</ele>
        <time>2019-04-14T08:23:07Z</time>
      </trkpt>
      <trkpt lat="47.56594" lon="6.69687">
        <ele>405</ele>
        <time>2019-04-14T08:23:12Z</time>
      </trkpt>
      <trkpt lat="47.56596" lon="6.69678">
        <ele>406</ele>
        <time>2019-04-14T08:23:17Z</time>
      </trkpt>
      <trkpt lat="47.56599" lon="6.69667">
        <ele>406</ele>
        <time>2019-04-14T08:23:22Z</time>
      </trkpt>
      <trkpt lat="47.56603" lon="6.69654">
        <ele>407</ele>
        <time>2019-04-14T08:23:29Z</time>
      </trkpt>
      <trkpt lat="47.56613" lon="6.69657">
        <ele>408</ele>
        <time>2019-04-14T08:23:34Z</time>
      </trkpt>
      <trkpt lat="47.56621" lon="6.69663">
        <ele>410</ele>
        <time>2019-04-14T08:23:39Z</time>
      </trkpt>
      <trkpt lat="47.56629" lon="6.69672">
        <ele>411</ele>
        <time>2019-04-14T08:23:44Z</time>
      </trkpt>
      <trkpt lat="47.56638" lon="6.6968">
        <ele>412</ele>
        <time>2019-04-14T08:23:49Z</time>
      </trkpt>
      <trkpt lat="47.56649" lon="6.6969">
        <ele>413</ele>
        <time>2019-04-14T08:23:54Z</time>
      </trkpt>
      <trkpt lat="47.56661" lon="6.69701">
        <ele>414</ele>
        <time>2019-04-14T08:23:59Z</time>
      </trkpt>
      <trkpt lat="47.56672" lon="6.69714">
        <ele>415</ele>
        <time>2019-04-14T08:24:04Z</time>
      </trkpt>
      <trkpt lat="47.56685" lon="6.69727">
        <ele>416</ele>
        <time>2019-04-14T08:24:09Z</time>
      </trkpt>
      <trkpt lat="47.56696" lon="6.69738">
        <ele>417</ele>
        <time>2019-04-14T08:24:14Z</time>
      </trkpt>
      <trkpt lat="47.56717" lon="6.6976">
        <ele>418</ele>
        <time>2019-04-14T08:24:19Z</time>
      </trkpt>
      <trkpt lat="47.56738" lon="6.69785">
        <ele>419</ele>
        <time>2019-04-14T08:24:24Z</time>
      </trkpt>
      <trkpt lat="47.56756" lon="6.69803">
        <ele>420</ele>
        <time>2019-04-14T08:24:29Z</time>
      </trkpt>
      <trkpt lat="47.56777" lon="6.69824">
        <ele>421</ele>
        <time>2019-04-14T08:24:34Z</time>
      </trkpt>
      <trkpt lat="47.56806" lon="6.69852">
        <ele>421</ele>
        <time>2019-04-14T08:24:39Z</time>
      </trkpt>
      <trkpt lat="47.56821" lon="6.69911">
        <ele>419</ele>
        <time>2019-04-14T08:24:44Z</time>
      </trkpt>
      <trkpt lat="47.5684" lon="6.6997">
        <ele>416</ele>
        <time>2019-04-14T08:24:49Z</time>
      </trkpt>
      <trkpt lat="47.56852" lon="6.70013">
        <ele>413</ele>
        <time>2019-04-14T08:24:54Z</time>
      </trkpt>
      <trkpt lat="47.5686" lon="6.70043">
        <ele>411</ele>
        <time>2019-04-14T08:24:59Z</time>
      </trkpt>
      <trkpt lat="47.56869" lon="6.7007">
        <ele>409</ele>
        <time>2019-04-14T08:25:04Z</time>
      </trkpt>
      <trkpt lat="47.56876" lon="6.70094">
        <ele>408</ele>
        <time>2019-04-14T08:25:09Z</time>
      </trkpt>
      <trkpt lat="47.56873" lon="6.70115">
        <ele>408</ele>
        <time>2019-04-14T08:25:14Z</time>
      </trkpt>
      <trkpt lat="47.56854" lon="6.70129">
        <ele>408</ele>
        <time>2019-04-14T08:25:19Z</time>
      </trkpt>
      <trkpt lat="47.56831" lon="6.70151">
        <ele>408</ele>
        <time>2019-04-14T08:25:24Z</time>
      </trkpt>
      <trkpt lat="47.56806" lon="6.70183">
        <ele>408</ele>
        <time>2019-04-14T08:25:29Z</time>
      </trkpt>
      <trkpt lat="47.56781" lon="6.70218">
        <ele>408</ele>
        <time>2019-04-14T08:25:34Z</time>
      </trkpt>
      <trkpt lat="47.5676" lon="6.70265">
        <ele>408</ele>
        <time>2019-04-14T08:25:39Z</time>
      </trkpt>
      <trkpt lat="47.56739" lon="6.7031">
        <ele>407</ele>
        <time>2019-04-14T08:25:44Z</time>
      </trkpt>
      <trkpt lat="47.56713" lon="6.70352">
        <ele>405</ele>
        <time>2019-04-14T08:25:49Z</time>
      </trkpt>
      <trkpt lat="47.56698" lon="6.7039">
        <ele>402</ele>
        <time>2019-04-14T08:25:54Z</time>
      </trkpt>
      <trkpt lat="47.5671" lon="6.70409">
        <ele>400</ele>
        <time>2019-04-14T08:25:59Z</time>
      </trkpt>
      <trkpt lat="47.56725" lon="6.70427">
        <ele>398</ele>
        <time>2019-04-14T08:26:04Z</time>
      </trkpt>
      <trkpt lat="47.56738" lon="6.70443">
        <ele>397</ele>
        <time>2019-04-14T08:26:09Z</time>
      </trkpt>
      <trkpt lat="47.56749" lon="6.70461">
        <ele>397</ele>
        <time>2019-04-14T08:26:14Z</time>
      </trkpt>
      <trkpt lat="47.56761" lon="6.70477">
        <ele>397</ele>
        <time>2019-04-14T08:26:19Z</time>
      </trkpt>
      <trkpt lat="47.56772" lon="6.70493">
        <ele>398</ele>
        <time>2019-04-14T08:26:24Z</time>
      </trkpt>
      <trkpt lat="47.56781" lon="6.70503">
        <ele>398</ele>
        <time>2019-04-14T08:26:29Z</time>
      </trkpt>
      <trkpt lat="47.56795" lon="6.70507">
        <ele>399</ele>
        <time>2019-04-14T08:26:34Z</time>
      </trkpt>
      <trkpt lat="47.56807" lon="6.705">
        <ele>399</ele>
        <time>2019-04-14T08:26:39Z</time>
      </trkpt>
      <trkpt lat="47.56817" lon="6.70495">
        <ele>400</ele>
        <time>2019-04-14T08:26:44Z</time>
      </trkpt>
      <trkpt lat="47.56825" lon="6.70493">
        <ele>401</ele>
        <time>2019-04-14T08:26:49Z</time>
      </trkpt>
      <trkpt lat="47.56835" lon="6.70493">
        <ele>401</ele>
        <time>2019-04-14T08:26:54Z</time>
      </trkpt>
      <trkpt lat="47.56843" lon="6.70497">
        <ele>402</ele>
        <time>2019-04-14T08:26:59Z</time>
      </trkpt>
      <trkpt lat="47.56852" lon="6.70503">
        <ele>403</ele>
        <time>2019-04-14T08:27:04Z</time>
      </trkpt>
      <trkpt lat="47.56857" lon="6.70509">
        <ele>404</ele>
        <time>2019-04-14T08:27:09Z</time>
      </trkpt>
      <trkpt lat="47.56867" lon="6.70516">
        <ele>405</ele>
        <time>2019-04-14T08:27:19Z</time>
      </trkpt>
      <trkpt lat="47.56876" lon="6.70521">
        <ele>406</ele>
        <time>2019-04-14T08:27:24Z</time>
      </trkpt>
      <trkpt lat="47.56884" lon="6.70523">
        <ele>407</ele>
        <time>2019-04-14T08:27:29Z</time>
      </trkpt>
      <trkpt lat="47.56892" lon="6.70529">
        <ele>408</ele>
        <time>2019-04-14T08:27:36Z</time>
      </trkpt>
      <trkpt lat="47.56901" lon="6.70537">
        <ele>409</ele>
        <time>2019-04-14T08:27:41Z</time>
      </trkpt>
      <trkpt lat="47.56907" lon="6.70542">
        <ele>410</ele>
        <time>2019-04-14T08:27:47Z</time>
      </trkpt>
      <trkpt lat="47.56915" lon="6.70546">
        <ele>411</ele>
        <time>2019-04-14T08:27:53Z</time>
      </trkpt>
      <trkpt lat="47.5692" lon="6.70549">
        <ele>412</ele>
        <time>2019-04-14T08:27:58Z</time>
      </trkpt>
      <trkpt lat="47.56929" lon="6.70558">
        <ele>413</ele>
        <time>2019-04-14T08:28:08Z</time>
      </trkpt>
      <trkpt lat="47.56939" lon="6.7057">
        <ele>414</ele>
        <time>2019-04-14T08:28:13Z</time>
      </trkpt>
      <trkpt lat="47.56945" lon="6.70574">
        <ele>415</ele>
        <time>2019-04-14T08:28:18Z</time>
      </trkpt>
      <trkpt lat="47.56952" lon="6.70578">
        <ele>416</ele>
        <time>2019-04-14T08:28:23Z</time>
      </trkpt>
      <trkpt lat="47.56956" lon="6.70582">
        <ele>417</ele>
        <time>2019-04-14T08:28:28Z</time>
      </trkpt>
      <trkpt lat="47.56963" lon="6.70587">
        <ele>418</ele>
        <time>2019-04-14T08:28:33Z</time>
      </trkpt>
      <trkpt lat="47.56969" lon="6.70593">
        <ele>419</ele>
        <time>2019-04-14T08:28:38Z</time>
      </trkpt>
      <trkpt lat="47.56978" lon="6.706">
        <ele>419</ele>
        <time>2019-04-14T08:28:43Z</time>
      </trkpt>
      <trkpt lat="47.56987" lon="6.7061">
        <ele>420</ele>
        <time>2019-04-14T08:28:51Z</time>
      </trkpt>
      <trkpt lat="47.56994" lon="6.70616">
        <ele>421</ele>
        <time>2019-04-14T08:28:56Z</time>
      </trkpt>
      <trkpt lat="47.57005" lon="6.70623">
        <ele>422</ele>
        <time>2019-04-14T08:29:08Z</time>
      </trkpt>
      <trkpt lat="47.57014" lon="6.70628">
        <ele>423</ele>
        <time>2019-04-14T08:29:13Z</time>
      </trkpt>
      <trkpt lat="47.57019" lon="6.70632">
        <ele>424</ele>
        <time>2019-04-14T08:29:18Z</time>
      </trkpt>
      <trkpt lat="47.57029" lon="6.70635">
        <ele>425</ele>
        <time>2019-04-14T08:29:25Z</time>
      </trkpt>
      <trkpt lat="47.5704" lon="6.70642">
        <ele>426</ele>
        <time>2019-04-14T08:29:34Z</time>
      </trkpt>
      <trkpt lat="47.57044" lon="6.70645">
        <ele>427</ele>
        <time>2019-04-14T08:29:39Z</time>
      </trkpt>
      <trkpt lat="47.57053" lon="6.70654">
        <ele>428</ele>
        <time>2019-04-14T08:29:44Z</time>
      </trkpt>
      <trkpt lat="47.57058" lon="6.7066">
        <ele>429</ele>
        <time>2019-04-14T08:29:49Z</time>
      </trkpt>
      <trkpt lat="47.57062" lon="6.70664">
        <ele>430</ele>
        <time>2019-04-14T08:29:54Z</time>
      </trkpt>
      <trkpt lat="47.57073" lon="6.70673">
        <ele>430</ele>
        <time>2019-04-14T08:29:59Z</time>
      </trkpt>
      <trkpt lat="47.57079" lon="6.70679">
        <ele>431</ele>
        <time>2019-04-14T08:30:09Z</time>
      </trkpt>
      <trkpt lat="47.57086" lon="6.70684">
        <ele>432</ele>
        <time>2019-04-14T08:30:14Z</time>
      </trkpt>
      <trkpt lat="47.57093" lon="6.70688">
        <ele>433</ele>
        <time>2019-04-14T08:30:19Z</time>
      </trkpt>
      <trkpt lat="47.571" lon="6.7069">
        <ele>433</ele>
        <time>2019-04-14T08:30:24Z</time>
      </trkpt>
      <trkpt lat="47.57109" lon="6.707">
        <ele>434</ele>
        <time>2019-04-14T08:30:34Z</time>
      </trkpt>
      <trkpt lat="47.57116" lon="6.70708">
        <ele>435</ele>
        <time>2019-04-14T08:30:43Z</time>
      </trkpt>
      <trkpt lat="47.57126" lon="6.70719">
        <ele>435</ele>
        <time>2019-04-14T08:30:50Z</time>
      </trkpt>
      <trkpt lat="47.57133" lon="6.70722">
        <ele>436</ele>
        <time>2019-04-14T08:30:55Z</time>
      </trkpt>
      <trkpt lat="47.5714" lon="6.70727">
        <ele>437</ele>
        <time>2019-04-14T08:31:00Z</time>
      </trkpt>
      <trkpt lat="47.57148" lon="6.70732">
        <ele>438</ele>
        <time>2019-04-14T08:31:05Z</time>
      </trkpt>
      <trkpt lat="47.57153" lon="6.70733">
        <ele>439</ele>
        <time>2019-04-14T08:31:11Z</time>
      </trkpt>
      <trkpt lat="47.57163" lon="6.70741">
        <ele>440</ele>
        <time>2019-04-14T08:31:16Z</time>
      </trkpt>
      <trkpt lat="47.57172" lon="6.70751">
        <ele>440</ele>
        <time>2019-04-14T08:31:21Z</time>
      </trkpt>
      <trkpt lat="47.57178" lon="6.70757">
        <ele>441</ele>
        <time>2019-04-14T08:31:26Z</time>
      </trkpt>
      <trkpt lat="47.57184" lon="6.70762">
        <ele>442</ele>
        <time>2019-04-14T08:31:31Z</time>
      </trkpt>
      <trkpt lat="47.57193" lon="6.70768">
        <ele>443</ele>
        <time>2019-04-14T08:31:36Z</time>
      </trkpt>
      <trkpt lat="47.57196" lon="6.70774">
        <ele>444</ele>
        <time>2019-04-14T08:31:41Z</time>
      </trkpt>
      <trkpt lat="47.57201" lon="6.70779">
        <ele>445</ele>
        <time>2019-04-14T08:31:47Z</time>
      </trkpt>
      <trkpt lat="47.57208" lon="6.70791">
        <ele>446</ele>
        <time>2019-04-14T08:31:52Z</time>
      </trkpt>
      <trkpt lat="47.57219" lon="6.708">
        <ele>447</ele>
        <time>2019-04-14T08:31:57Z</time>
      </trkpt>
      <trkpt lat="47.57224" lon="6.70803">
        <ele>448</ele>
        <time>2019-04-14T08:32:02Z</time>
      </trkpt>
      <trkpt lat="47.57227" lon="6.70808">
        <ele>449</ele>
        <time>2019-04-14T08:32:07Z</time>
      </trkpt>
      <trkpt lat="47.57234" lon="6.70814">
        <ele>450</ele>
        <time>2019-04-14T08:32:12Z</time>
      </trkpt>
      <trkpt lat="47.57242" lon="6.70819">
        <ele>450</ele>
        <time>2019-04-14T08:32:17Z</time>
      </trkpt>
      <trkpt lat="47.57249" lon="6.70826">
        <ele>451</ele>
        <time>2019-04-14T08:32:22Z</time>
      </trkpt>
      <trkpt lat="47.57256" lon="6.70835">
        <ele>452</ele>
        <time>2019-04-14T08:32:27Z</time>
      </trkpt>
      <trkpt lat="47.57261" lon="6.70839">
        <ele>452</ele>
        <time>2019-04-14T08:32:32Z</time>
      </trkpt>
      <trkpt lat="47.57272" lon="6.70846">
        <ele>453</ele>
        <time>2019-04-14T08:32:37Z</time>
      </trkpt>
      <trkpt lat="47.57282" lon="6.70855">
        <ele>454</ele>
        <time>2019-04-14T08:32:42Z</time>
      </trkpt>
      <trkpt lat="47.57287" lon="6.70861">
        <ele>454</ele>
        <time>2019-04-14T08:32:47Z</time>
      </trkpt>
      <trkpt lat="47.57295" lon="6.7087">
        <ele>454</ele>
        <time>2019-04-14T08:32:52Z</time>
      </trkpt>
      <trkpt lat="47.57303" lon="6.7088">
        <ele>454</ele>
        <time>2019-04-14T08:32:57Z</time>
      </trkpt>
      <trkpt lat="47.57312" lon="6.7089">
        <ele>454</ele>
        <time>2019-04-14T08:33:02Z</time>
      </trkpt>
      <trkpt lat="47.5732" lon="6.709">
        <ele>454</ele>
        <time>2019-04-14T08:33:07Z</time>
      </trkpt>
      <trkpt lat="47.57328" lon="6.7091">
        <ele>455</ele>
        <time>2019-04-14T08:33:12Z</time>
      </trkpt>
      <trkpt lat="47.57334" lon="6.70917">
        <ele>455</ele>
        <time>2019-04-14T08:33:17Z</time>
      </trkpt>
      <trkpt lat="47.57344" lon="6.70926">
        <ele>455</ele>
        <time>2019-04-14T08:33:22Z</time>
      </trkpt>
      <trkpt lat="47.57352" lon="6.70931">
        <ele>456</ele>
        <time>2019-04-14T08:33:27Z</time>
      </trkpt>
      <trkpt lat="47.57362" lon="6.70939">
        <ele>456</ele>
        <time>2019-04-14T08:33:32Z</time>
      </trkpt>
      <trkpt lat="47.57375" lon="6.70951">
        <ele>457</ele>
        <time>2019-04-14T08:33:37Z</time>
      </trkpt>
      <trkpt lat="47.57385" lon="6.7096">
        <ele>457</ele>
        <time>2019-04-14T08:33:42Z</time>
      </trkpt>
      <trkpt lat="47.5739" lon="6.70994">
        <ele>458</ele>
        <time>2019-04-14T08:33:47Z</time>
      </trkpt>
      <trkpt lat="47.5739" lon="6.71049">
        <ele>458</ele>
        <time>2019-04-14T08:33:52Z</time>
      </trkpt>
      <trkpt lat="47.57391" lon="6.71072">
        <ele>459</ele>
        <time>2019-04-14T08:33:57Z</time>
      </trkpt>
      <trkpt lat="47.57395" lon="6.71085">
        <ele>460</ele>
        <time>2019-04-14T08:34:02Z</time>
      </trkpt>
      <trkpt lat="47.57391" lon="6.71095">
        <ele>460</ele>
        <time>2019-04-14T08:34:07Z</time>
      </trkpt>
      <trkpt lat="47.57387" lon="6.71104">
        <ele>461</ele>
        <time>2019-04-14T08:34:12Z</time>
      </trkpt>
      <trkpt lat="47.57394" lon="6.71125">
        <ele>461</ele>
        <time>2019-04-14T08:34:17Z</time>
      </trkpt>
      <trkpt lat="47.57407" lon="6.71157">
        <ele>459</ele>
        <time>2019-04-14T08:34:22Z</time>
      </trkpt>
      <trkpt lat="47.57419" lon="6.71186">
        <ele>457</ele>
        <time>2019-04-14T08:34:27Z</time>
      </trkpt>
      <trkpt lat="47.57428" lon="6.71207">
        <ele>455</ele>
        <time>2019-04-14T08:34:32Z</time>
      </trkpt>
      <trkpt lat="47.5744" lon="6.71233">
        <ele>452</ele>
        <time>2019-04-14T08:34:37Z</time>
      </trkpt>
      <trkpt lat="47.57451" lon="6.71261">
        <ele>449</ele>
        <time>2019-04-14T08:34:42Z</time>
      </trkpt>
      <trkpt lat="47.57464" lon="6.71287">
        <ele>448</ele>
        <time>2019-04-14T08:34:47Z</time>
      </trkpt>
      <trkpt lat="47.57475" lon="6.7131">
        <ele>447</ele>
        <time>2019-04-14T08:34:52Z</time>
      </trkpt>
      <trkpt lat="47.5749" lon="6.71333">
        <ele>445</ele>
        <time>2019-04-14T08:34:57Z</time>
      </trkpt>
      <trkpt lat="47.57517" lon="6.71369">
        <ele>441</ele>
        <time>2019-04-14T08:35:02Z</time>
      </trkpt>
      <trkpt lat="47.57524" lon="6.71412">
        <ele>438</ele>
        <time>2019-04-14T08:35:07Z</time>
      </trkpt>
      <trkpt lat="47.5752" lon="6.71445">
        <ele>434</ele>
        <time>2019-04-14T08:35:12Z</time>
      </trkpt>
      <trkpt lat="47.57517" lon="6.71456">
        <ele>431</ele>
        <time>2019-04-14T08:35:17Z</time>
      </trkpt>
      <trkpt lat="47.57516" lon="6.71464">
        <ele>428</ele>
        <time>2019-04-14T08:35:22Z</time>
      </trkpt>
      <trkpt lat="47.57517" lon="6.71473">
        <ele>428</ele>
        <time>2019-04-14T08:35:27Z</time>
      </trkpt>
      <trkpt lat="47.57518" lon="6.71482">
        <ele>428</ele>
        <time>2019-04-14T08:35:32Z</time>
      </trkpt>
      <trkpt lat="47.57523" lon="6.71483">
        <ele>427</ele>
        <time>2019-04-14T08:35:45Z</time>
      </trkpt>
      <trkpt lat="47.57528" lon="6.71483">
        <ele>427</ele>
        <time>2019-04-14T08:35:50Z</time>
      </trkpt>
      <trkpt lat="47.57533" lon="6.71485">
        <ele>427</ele>
        <time>2019-04-14T08:35:55Z</time>
      </trkpt>
      <trkpt lat="47.57536" lon="6.71494">
        <ele>427</ele>
        <time>2019-04-14T08:36:00Z</time>
      </trkpt>
      <trkpt lat="47.57541" lon="6.71504">
        <ele>426</ele>
        <time>2019-04-14T08:36:05Z</time>
      </trkpt>
      <trkpt lat="47.57547" lon="6.71502">
        <ele>426</ele>
        <time>2019-04-14T08:36:10Z</time>
      </trkpt>
      <trkpt lat="47.57552" lon="6.71501">
        <ele>425</ele>
        <time>2019-04-14T08:36:15Z</time>
      </trkpt>
      <trkpt lat="47.5756" lon="6.71501">
        <ele>425</ele>
        <time>2019-04-14T08:36:20Z</time>
      </trkpt>
      <trkpt lat="47.57567" lon="6.71502">
        <ele>425</ele>
        <time>2019-04-14T08:36:25Z</time>
      </trkpt>
      <trkpt lat="47.57578" lon="6.71504">
        <ele>425</ele>
        <time>2019-04-14T08:36:30Z</time>
      </trkpt>
      <trkpt lat="47.57591" lon="6.71505">
        <ele>425</ele>
        <time>2019-04-14T08:36:35Z</time>
      </trkpt>
      <trkpt lat="47.57601" lon="6.71507">
        <ele>425</ele>
        <time>2019-04-14T08:36:40Z</time>
      </trkpt>
      <trkpt lat="47.57605" lon="6.7151">
        <ele>425</ele>
        <time>2019-04-14T08:36:46Z</time>
      </trkpt>
      <trkpt lat="47.57612" lon="6.7151">
        <ele>425</ele>
        <time>2019-04-14T08:36:51Z</time>
      </trkpt>
      <trkpt lat="47.5762" lon="6.7151">
        <ele>426</ele>
        <time>2019-04-14T08:36:56Z</time>
      </trkpt>
      <trkpt lat="47.57627" lon="6.71512">
        <ele>426</ele>
        <time>2019-04-14T08:37:01Z</time>
      </trkpt>
      <trkpt lat="47.57637" lon="6.71518">
        <ele>427</ele>
        <time>2019-04-14T08:37:06Z</time>
      </trkpt>
      <trkpt lat="47.57642" lon="6.71519">
        <ele>427</ele>
        <time>2019-04-14T08:37:16Z</time>
      </trkpt>
      <trkpt lat="47.57649" lon="6.71519">
        <ele>428</ele>
        <time>2019-04-14T08:37:21Z</time>
      </trkpt>
      <trkpt lat="47.57655" lon="6.71521">
        <ele>428</ele>
        <time>2019-04-14T08:37:26Z</time>
      </trkpt>
      <trkpt lat="47.57673" lon="6.71536">
        <ele>429</ele>
        <time>2019-04-14T08:37:31Z</time>
      </trkpt>
      <trkpt lat="47.57679" lon="6.71543">
        <ele>430</ele>
        <time>2019-04-14T08:37:36Z</time>
      </trkpt>
      <trkpt lat="47.5769" lon="6.71555">
        <ele>431</ele>
        <time>2019-04-14T08:37:41Z</time>
      </trkpt>
      <trkpt lat="47.57697" lon="6.71562">
        <ele>432</ele>
        <time>2019-04-14T08:37:46Z</time>
      </trkpt>
      <trkpt lat="47.57703" lon="6.71573">
        <ele>433</ele>
        <time>2019-04-14T08:37:51Z</time>
      </trkpt>
      <trkpt lat="47.5771" lon="6.71581">
        <ele>434</ele>
        <time>2019-04-14T08:37:56Z</time>
      </trkpt>
      <trkpt lat="47.57713" lon="6.71587">
        <ele>435</ele>
        <time>2019-04-14T08:38:01Z</time>
      </trkpt>
      <trkpt lat="47.57717" lon="6.71595">
        <ele>436</ele>
        <time>2019-04-14T08:38:06Z</time>
      </trkpt>
      <trkpt lat="47.5772" lon="6.71604">
        <ele>437</ele>
        <time>2019-04-14T08:38:11Z</time>
      </trkpt>
      <trkpt lat="47.57724" lon="6.71619">
        <ele>438</ele>
        <time>2019-04-14T08:38:16Z</time>
      </trkpt>
      <trkpt lat="47.57729" lon="6.71628">
        <ele>439</ele>
        <time>2019-04-14T08:38:21Z</time>
      </trkpt>
      <trkpt lat="47.57735" lon="6.7164">
        <ele>440</ele>
        <time>2019-04-14T08:38:26Z</time>
      </trkpt>
      <trkpt lat="47.5774" lon="6.71648">
        <ele>441</ele>
        <time>2019-04-14T08:38:31Z</time>
      </trkpt>
      <trkpt lat="47.57743" lon="6.71664">
        <ele>442</ele>
        <time>2019-04-14T08:38:36Z</time>
      </trkpt>
      <trkpt lat="47.57748" lon="6.71678">
        <ele>443</ele>
        <time>2019-04-14T08:38:41Z</time>
      </trkpt>
      <trkpt lat="47.57752" lon="6.71695">
        <ele>444</ele>
        <time>2019-04-14T08:38:46Z</time>
      </trkpt>
      <trkpt lat="47.57752" lon="6.71714">
        <ele>445</ele>
        <time>2019-04-14T08:38:51Z</time>
      </trkpt>
      <trkpt lat="47.57755" lon="6.71729">
        <ele>447</ele>
        <time>2019-04-14T08:38:56Z</time>
      </trkpt>
      <trkpt lat="47.57762" lon="6.7174">
        <ele>448</ele>
        <time>2019-04-14T08:39:01Z</time>
      </trkpt>
      <trkpt lat="47.57768" lon="6.71749">
        <ele>449</ele>
        <time>2019-04-14T08:39:06Z</time>
      </trkpt>
      <trkpt lat="47.57777" lon="6.71757">
        <ele>449</ele>
        <time>2019-04-14T08:39:11Z</time>
      </trkpt>
      <trkpt lat="47.57782" lon="6.71761">
        <ele>450</ele>
        <time>2019-04-14T08:39:16Z</time>
      </trkpt>
      <trkpt lat="47.5779" lon="6.71765">
        <ele>451</ele>
        <time>2019-04-14T08:39:21Z</time>
      </trkpt>
      <trkpt lat="47.578" lon="6.71776">
        <ele>451</ele>
        <time>2019-04-14T08:39:26Z</time>
      </trkpt>
      <trkpt lat="47.57805" lon="6.71784">
        <ele>452</ele>
        <time>2019-04-14T08:39:31Z</time>
      </trkpt>
      <trkpt lat="47.57812" lon="6.71792">
        <ele>452</ele>
        <time>2019-04-14T08:39:36Z</time>
      </trkpt>
      <trkpt lat="47.57819" lon="6.71803">
        <ele>453</ele>
        <time>2019-04-14T08:39:41Z</time>
      </trkpt>
      <trkpt lat="47.57824" lon="6.71813">
        <ele>453</ele>
        <time>2019-04-14T08:39:46Z</time>
      </trkpt>
      <trkpt lat="47.57827" lon="6.71823">
        <ele>454</ele>
        <time>2019-04-14T08:39:51Z</time>
      </trkpt>
      <trkpt lat="47.5783" lon="6.71829">
        <ele>455</ele>
        <time>2019-04-14T08:39:56Z</time>
      </trkpt>
      <trkpt lat="47.57835" lon="6.71834">
        <ele>456</ele>
        <time>2019-04-14T08:40:01Z</time>
      </trkpt>
      <trkpt lat="47.5784" lon="6.7184">
        <ele>457</ele>
        <time>2019-04-14T08:40:06Z</time>
      </trkpt>
      <trkpt lat="47.57848" lon="6.7185">
        <ele>458</ele>
        <time>2019-04-14T08:40:11Z</time>
      </trkpt>
      <trkpt lat="47.57853" lon="6.71863">
        <ele>458</ele>
        <time>2019-04-14T08:40:16Z</time>
      </trkpt>
      <trkpt lat="47.57856" lon="6.71871">
        <ele>458</ele>
        <time>2019-04-14T08:40:21Z</time>
      </trkpt>
      <trkpt lat="47.5786" lon="6.71879">
        <ele>458</ele>
        <time>2019-04-14T08:40:26Z</time>
      </trkpt>
      <trkpt lat="47.57868" lon="6.71889">
        <ele>458</ele>
        <time>2019-04-14T08:40:31Z</time>
      </trkpt>
      <trkpt lat="47.57876" lon="6.71899">
        <ele>458</ele>
        <time>2019-04-14T08:40:36Z</time>
      </trkpt>
      <trkpt lat="47.5788" lon="6.71907">
        <ele>458</ele>
        <time>2019-04-14T08:40:41Z</time>
      </trkpt>
      <trkpt lat="47.57885" lon="6.71914">
        <ele>459</ele>
        <time>2019-04-14T08:40:46Z</time>
      </trkpt>
      <trkpt lat="47.57887" lon="6.7192">
        <ele>460</ele>
        <time>2019-04-14T08:40:51Z</time>
      </trkpt>
      <trkpt lat="47.57893" lon="6.71929">
        <ele>461</ele>
        <time>2019-04-14T08:40:56Z</time>
      </trkpt>
      <trkpt lat="47.57898" lon="6.71932">
        <ele>462</ele>
        <time>2019-04-14T08:41:02Z</time>
      </trkpt>
      <trkpt lat="47.57904" lon="6.7193">
        <ele>462</ele>
        <time>2019-04-14T08:41:07Z</time>
      </trkpt>
      <trkpt lat="47.57912" lon="6.71923">
        <ele>463</ele>
        <time>2019-04-14T08:41:12Z</time>
      </trkpt>
      <trkpt lat="47.57916" lon="6.71918">
        <ele>463</ele>
        <time>2019-04-14T08:41:17Z</time>
      </trkpt>
      <trkpt lat="47.57922" lon="6.71914">
        <ele>464</ele>
        <time>2019-04-14T08:41:22Z</time>
      </trkpt>
      <trkpt lat="47.57928" lon="6.71913">
        <ele>465</ele>
        <time>2019-04-14T08:41:27Z</time>
      </trkpt>
      <trkpt lat="47.57934" lon="6.71907">
        <ele>466</ele>
        <time>2019-04-14T08:41:32Z</time>
      </trkpt>
      <trkpt lat="47.57938" lon="6.71904">
        <ele>467</ele>
        <time>2019-04-14T08:41:38Z</time>
      </trkpt>
      <trkpt lat="47.57944" lon="6.71899">
        <ele>467</ele>
        <time>2019-04-14T08:41:43Z</time>
      </trkpt>
      <trkpt lat="47.57949" lon="6.71895">
        <ele>468</ele>
        <time>2019-04-14T08:41:48Z</time>
      </trkpt>
      <trkpt lat="47.57955" lon="6.71892">
        <ele>469</ele>
        <time>2019-04-14T08:41:53Z</time>
      </trkpt>
      <trkpt lat="47.57962" lon="6.71885">
        <ele>470</ele>
        <time>2019-04-14T08:41:58Z</time>
      </trkpt>
      <trkpt lat="47.57966" lon="6.71882">
        <ele>471</ele>
        <time>2019-04-14T08:42:04Z</time>
      </trkpt>
      <trkpt lat="47.57972" lon="6.71877">
        <ele>473</ele>
        <time>2019-04-14T08:42:09Z</time>
      </trkpt>
      <trkpt lat="47.57977" lon="6.71877">
        <ele>474</ele>
        <time>2019-04-14T08:42:14Z</time>
      </trkpt>
      <trkpt lat="47.57982" lon="6.71872">
        <ele>475</ele>
        <time>2019-04-14T08:42:19Z</time>
      </trkpt>
      <trkpt lat="47.57986" lon="6.71869">
        <ele>476</ele>
        <time>2019-04-14T08:42:24Z</time>
      </trkpt>
      <trkpt lat="47.5799" lon="6.71864">
        <ele>477</ele>
        <time>2019-04-14T08:42:30Z</time>
      </trkpt>
      <trkpt lat="47.57995" lon="6.71854">
        <ele>478</ele>
        <time>2019-04-14T08:42:35Z</time>
      </trkpt>
      <trkpt lat="47.58001" lon="6.71848">
        <ele>478</ele>
        <time>2019-04-14T08:42:40Z</time>
      </trkpt>
      <trkpt lat="47.58006" lon="6.71842">
        <ele>479</ele>
        <time>2019-04-14T08:42:45Z</time>
      </trkpt>
      <trkpt lat="47.5801" lon="6.71837">
        <ele>479</ele>
        <time>2019-04-14T08:42:51Z</time>
      </trkpt>
      <trkpt lat="47.58014" lon="6.71835">
        <ele>480</ele>
        <time>2019-04-14T08:42:58Z</time>
      </trkpt>
      <trkpt lat="47.5802" lon="6.71833">
        <ele>480</ele>
        <time>2019-04-14T08:43:03Z</time>
      </trkpt>
      <trkpt lat="47.58026" lon="6.71829">
        <ele>481</ele>
        <time>2019-04-14T08:43:09Z</time>
      </trkpt>
      <trkpt lat="47.58032" lon="6.71824">
        <ele>482</ele>
        <time>2019-04-14T08:43:14Z</time>
      </trkpt>
      <trkpt lat="47.58037" lon="6.71818">
        <ele>483</ele>
        <time>2019-04-14T08:43:19Z</time>
      </trkpt>
      <trkpt lat="47.5804" lon="6.71813">
        <ele>484</ele>
        <time>2019-04-14T08:43:27Z</time>
      </trkpt>
      <trkpt lat="47.58045" lon="6.71809">
        <ele>485</ele>
        <time>2019-04-14T08:43:32Z</time>
      </trkpt>
      <trkpt lat="47.58052" lon="6.71806">
        <ele>486</ele>
        <time>2019-04-14T08:43:37Z</time>
      </trkpt>
      <trkpt lat="47.58057" lon="6.71802">
        <ele>487</ele>
        <time>2019-04-14T08:43:42Z</time>
      </trkpt>
      <trkpt lat="47.58063" lon="6.71796">
        <ele>488</ele>
        <time>2019-04-14T08:43:47Z</time>
      </trkpt>
      <trkpt lat="47.5807" lon="6.71788">
        <ele>489</ele>
        <time>2019-04-14T08:43:52Z</time>
      </trkpt>
      <trkpt lat="47.58076" lon="6.71781">
        <ele>490</ele>
        <time>2019-04-14T08:43:57Z</time>
      </trkpt>
      <trkpt lat="47.58082" lon="6.71776">
        <ele>491</ele>
        <time>2019-04-14T08:44:02Z</time>
      </trkpt>
      <trkpt lat="47.58088" lon="6.71773">
        <ele>491</ele>
        <time>2019-04-14T08:44:07Z</time>
      </trkpt>
      <trkpt lat="47.58096" lon="6.71767">
        <ele>492</ele>
        <time>2019-04-14T08:44:12Z</time>
      </trkpt>
      <trkpt lat="47.58099" lon="6.71762">
        <ele>493</ele>
        <time>2019-04-14T08:44:17Z</time>
      </trkpt>
      <trkpt lat="47.58104" lon="6.71759">
        <ele>494</ele>
        <time>2019-04-14T08:44:22Z</time>
      </trkpt>
      <trkpt lat="47.58109" lon="6.71757">
        <ele>495</ele>
        <time>2019-04-14T08:44:27Z</time>
      </trkpt>
      <trkpt lat="47.58115" lon="6.71753">
        <ele>496</ele>
        <time>2019-04-14T08:44:32Z</time>
      </trkpt>
      <trkpt lat="47.58119" lon="6.71757">
        <ele>496</ele>
        <time>2019-04-14T08:44:39Z</time>
      </trkpt>
      <trkpt lat="47.58124" lon="6.71765">
        <ele>496</ele>
        <time>2019-04-14T08:44:44Z</time>
      </trkpt>
      <trkpt lat="47.58128" lon="6.71771">
        <ele>496</ele>
        <time>2019-04-14T08:44:49Z</time>
      </trkpt>
      <trkpt lat="47.58131" lon="6.71776">
        <ele>496</ele>
        <time>2019-04-14T08:44:56Z</time>
      </trkpt>
      <trkpt lat="47.58136" lon="6.71781">
        <ele>496</ele>
        <time>2019-04-14T08:45:01Z</time>
      </trkpt>
      <trkpt lat="47.58143" lon="6.71789">
        <ele>496</ele>
        <time>2019-04-14T08:45:06Z</time>
      </trkpt>
      <trkpt lat="47.58147" lon="6.71792">
        <ele>496</ele>
        <time>2019-04-14T08:45:12Z</time>
      </trkpt>
      <trkpt lat="47.58152" lon="6.71801">
        <ele>496</ele>
        <time>2019-04-14T08:45:17Z</time>
      </trkpt>
      <trkpt lat="47.58156" lon="6.71809">
        <ele>496</ele>
        <time>2019-04-14T08:45:22Z</time>
      </trkpt>
      <trkpt lat="47.5816" lon="6.71818">
        <ele>496</ele>
        <time>2019-04-14T08:45:27Z</time>
      </trkpt>
      <trkpt lat="47.58164" lon="6.71822">
        <ele>496</ele>
        <time>2019-04-14T08:45:32Z</time>
      </trkpt>
      <trkpt lat="47.58168" lon="6.71829">
        <ele>497</ele>
        <time>2019-04-14T08:45:37Z</time>
      </trkpt>
      <trkpt lat="47.58172" lon="6.71843">
        <ele>497</ele>
        <time>2019-04-14T08:45:42Z</time>
      </trkpt>
      <trkpt lat="47.58181" lon="6.71857">
        <ele>497</ele>
        <time>2019-04-14T08:45:47Z</time>
      </trkpt>
      <trkpt lat="47.58188" lon="6.71865">
        <ele>498</ele>
        <time>2019-04-14T08:45:52Z</time>
      </trkpt>
      <trkpt lat="47.58191" lon="6.71871">
        <ele>498</ele>
        <time>2019-04-14T08:45:57Z</time>
      </trkpt>
      <trkpt lat="47.58195" lon="6.71878">
        <ele>498</ele>
        <time>2019-04-14T08:46:02Z</time>
      </trkpt>
      <trkpt lat="47.582" lon="6.71886">
        <ele>499</ele>
        <time>2019-04-14T08:46:07Z</time>
      </trkpt>
      <trkpt lat="47.58204" lon="6.71898">
        <ele>499</ele>
        <time>2019-04-14T08:46:12Z</time>
      </trkpt>
      <trkpt lat="47.58211" lon="6.71911">
        <ele>499</ele>
        <time>2019-04-14T08:46:17Z</time>
      </trkpt>
      <trkpt lat="47.58219" lon="6.71927">
        <ele>499</ele>
        <time>2019-04-14T08:46:22Z</time>
      </trkpt>
      <trkpt lat="47.58223" lon="6.71935">
        <ele>500</ele>
        <time>2019-04-14T08:46:27Z</time>
      </trkpt>
      <trkpt lat="47.58231" lon="6.7195">
        <ele>500</ele>
        <time>2019-04-14T08:46:32Z</time>
      </trkpt>
      <trkpt lat="47.58236" lon="6.71955">
        <ele>500</ele>
        <time>2019-04-14T08:46:37Z</time>
      </trkpt>
      <trkpt lat="47.58237" lon="6.71951">
        <ele>501</ele>
        <time>2019-04-14T08:47:00Z</time>
      </trkpt>
      <trkpt lat="47.58236" lon="6.71951">
        <ele>501</ele>
        <time>2019-04-14T08:47:02Z</time>
      </trkpt>
      <trkpt lat="47.58236" lon="6.71944">
        <ele>502</ele>
        <time>2019-04-14T08:47:30Z</time>
      </trkpt>
      <trkpt lat="47.58235" lon="6.71944">
        <ele>502</ele>
        <time>2019-04-14T08:47:32Z</time>
      </trkpt>
      <trkpt lat="47.58231" lon="6.71947">
        <ele>503</ele>
        <time>2019-04-14T08:47:49Z</time>
      </trkpt>
      <trkpt lat="47.58226" lon="6.71946">
        <ele>503</ele>
        <time>2019-04-14T08:47:55Z</time>
      </trkpt>
      <trkpt lat="47.58223" lon="6.71952">
        <ele>503</ele>
        <time>2019-04-14T08:48:14Z</time>
      </trkpt>
      <trkpt lat="47.58243" lon="6.71956">
        <ele>506</ele>
        <time>2019-04-14T08:50:13Z</time>
      </trkpt>
      <trkpt lat="47.58247" lon="6.71971">
        <ele>507</ele>
        <time>2019-04-14T08:50:18Z</time>
      </trkpt>
      <trkpt lat="47.58253" lon="6.71987">
        <ele>508</ele>
        <time>2019-04-14T08:50:23Z</time>
      </trkpt>
      <trkpt lat="47.58264" lon="6.72002">
        <ele>508</ele>
        <time>2019-04-14T08:50:28Z</time>
      </trkpt>
      <trkpt lat="47.58276" lon="6.72016">
        <ele>507</ele>
        <time>2019-04-14T08:50:33Z</time>
      </trkpt>
      <trkpt lat="47.58286" lon="6.72025">
        <ele>507</ele>
        <time>2019-04-14T08:50:38Z</time>
      </trkpt>
      <trkpt lat="47.58297" lon="6.72047">
        <ele>506</ele>
        <time>2019-04-14T08:50:43Z</time>
      </trkpt>
      <trkpt lat="47.58302" lon="6.72072">
        <ele>506</ele>
        <time>2019-04-14T08:50:48Z</time>
      </trkpt>
      <trkpt lat="47.58309" lon="6.72099">
        <ele>506</ele>
        <time>2019-04-14T08:50:53Z</time>
      </trkpt>
      <trkpt lat="47.5831" lon="6.72132">
        <ele>505</ele>
        <time>2019-04-14T08:50:58Z</time>
      </trkpt>
      <trkpt lat="47.58319" lon="6.72153">
        <ele>505</ele>
        <time>2019-04-14T08:51:03Z</time>
      </trkpt>
      <trkpt lat="47.58328" lon="6.72182">
        <ele>504</ele>
        <time>2019-04-14T08:51:08Z</time>
      </trkpt>
      <trkpt lat="47.58336" lon="6.72199">
        <ele>503</ele>
        <time>2019-04-14T08:51:13Z</time>
      </trkpt>
      <trkpt lat="47.58338" lon="6.72228">
        <ele>502</ele>
        <time>2019-04-14T08:51:18Z</time>
      </trkpt>
      <trkpt lat="47.58341" lon="6.72258">
        <ele>501</ele>
        <time>2019-04-14T08:51:23Z</time>
      </trkpt>
      <trkpt lat="47.58344" lon="6.72285">
        <ele>500</ele>
        <time>2019-04-14T08:51:28Z</time>
      </trkpt>
      <trkpt lat="47.58345" lon="6.72313">
        <ele>499</ele>
        <time>2019-04-14T08:51:33Z</time>
      </trkpt>
      <trkpt lat="47.58341" lon="6.72343">
        <ele>497</ele>
        <time>2019-04-14T08:51:38Z</time>
      </trkpt>
      <trkpt lat="47.58323" lon="6.72366">
        <ele>494</ele>
        <time>2019-04-14T08:51:43Z</time>
      </trkpt>
      <trkpt lat="47.58302" lon="6.72382">
        <ele>492</ele>
        <time>2019-04-14T08:51:48Z</time>
      </trkpt>
      <trkpt lat="47.58307" lon="6.72411">
        <ele>489</ele>
        <time>2019-04-14T08:51:53Z</time>
      </trkpt>
      <trkpt lat="47.5832" lon="6.72452">
        <ele>485</ele>
        <time>2019-04-14T08:51:58Z</time>
      </trkpt>
      <trkpt lat="47.58333" lon="6.72498">
        <ele>481</ele>
        <time>2019-04-14T08:52:03Z</time>
      </trkpt>
      <trkpt lat="47.58333" lon="6.72548">
        <ele>477</ele>
        <time>2019-04-14T08:52:08Z</time>
      </trkpt>
      <trkpt lat="47.58338" lon="6.72581">
        <ele>472</ele>
        <time>2019-04-14T08:52:13Z</time>
      </trkpt>
      <trkpt lat="47.58344" lon="6.72629">
        <ele>467</ele>
        <time>2019-04-14T08:52:18Z</time>
      </trkpt>
      <trkpt lat="47.58342" lon="6.72678">
        <ele>463</ele>
        <time>2019-04-14T08:52:23Z</time>
      </trkpt>
      <trkpt lat="47.58344" lon="6.72727">
        <ele>458</ele>
        <time>2019-04-14T08:52:28Z</time>
      </trkpt>
      <trkpt lat="47.58347" lon="6.7276">
        <ele>455</ele>
        <time>2019-04-14T08:52:33Z</time>
      </trkpt>
      <trkpt lat="47.58345" lon="6.72797">
        <ele>452</ele>
        <time>2019-04-14T08:52:38Z</time>
      </trkpt>
      <trkpt lat="47.58342" lon="6.72837">
        <ele>449</ele>
        <time>2019-04-14T08:52:43Z</time>
      </trkpt>
      <trkpt lat="47.58342" lon="6.72883">
        <ele>446</ele>
        <time>2019-04-14T08:52:48Z</time>
      </trkpt>
      <trkpt lat="47.58335" lon="6.72918">
        <ele>442</ele>
        <time>2019-04-14T08:52:53Z</time>
      </trkpt>
      <trkpt lat="47.58331" lon="6.7296">
        <ele>437</ele>
        <time>2019-04-14T08:52:58Z</time>
      </trkpt>
      <trkpt lat="47.58328" lon="6.73">
        <ele>432</ele>
        <time>2019-04-14T08:53:03Z</time>
      </trkpt>
      <trkpt lat="47.58323" lon="6.73028">
        <ele>428</ele>
        <time>2019-04-14T08:53:08Z</time>
      </trkpt>
      <trkpt lat="47.5833" lon="6.73053">
        <ele>424</ele>
        <time>2019-04-14T08:53:13Z</time>
      </trkpt>
      <trkpt lat="47.5834" lon="6.7309">
        <ele>421</ele>
        <time>2019-04-14T08:53:18Z</time>
      </trkpt>
      <trkpt lat="47.58341" lon="6.73138">
        <ele>418</ele>
        <time>2019-04-14T08:53:23Z</time>
      </trkpt>
      <trkpt lat="47.58344" lon="6.73183">
        <ele>415</ele>
        <time>2019-04-14T08:53:28Z</time>
      </trkpt>
      <trkpt lat="47.58342" lon="6.73227">
        <ele>413</ele>
        <time>2019-04-14T08:53:33Z</time>
      </trkpt>
      <trkpt lat="47.58344" lon="6.73283">
        <ele>410</ele>
        <time>2019-04-14T08:53:38Z</time>
      </trkpt>
      <trkpt lat="47.5835" lon="6.73343">
        <ele>407</ele>
        <time>2019-04-14T08:53:43Z</time>
      </trkpt>
      <trkpt lat="47.58351" lon="6.73385">
        <ele>403</ele>
        <time>2019-04-14T08:53:48Z</time>
      </trkpt>
      <trkpt lat="47.58344" lon="6.73423">
        <ele>399</ele>
        <time>2019-04-14T08:53:53Z</time>
      </trkpt>
      <trkpt lat="47.58346" lon="6.73468">
        <ele>393</ele>
        <time>2019-04-14T08:53:58Z</time>
      </trkpt>
      <trkpt lat="47.58334" lon="6.73509">
        <ele>387</ele>
        <time>2019-04-14T08:54:03Z</time>
      </trkpt>
      <trkpt lat="47.58318" lon="6.73546">
        <ele>381</ele>
        <time>2019-04-14T08:54:08Z</time>
      </trkpt>
      <trkpt lat="47.58307" lon="6.73579">
        <ele>374</ele>
        <time>2019-04-14T08:54:13Z</time>
      </trkpt>
      <trkpt lat="47.58316" lon="6.73612">
        <ele>369</ele>
        <time>2019-04-14T08:54:18Z</time>
      </trkpt>
      <trkpt lat="47.58327" lon="6.73632">
        <ele>365</ele>
        <time>2019-04-14T08:54:23Z</time>
      </trkpt>
      <trkpt lat="47.58342" lon="6.73642">
        <ele>362</ele>
        <time>2019-04-14T08:54:28Z</time>
      </trkpt>
      <trkpt lat="47.58355" lon="6.7364">
        <ele>360</ele>
        <time>2019-04-14T08:54:33Z</time>
      </trkpt>
      <trkpt lat="47.5836" lon="6.7364">
        <ele>360</ele>
        <time>2019-04-14T08:54:38Z</time>
      </trkpt>
      <trkpt lat="47.58369" lon="6.73647">
        <ele>359</ele>
        <time>2019-04-14T08:54:43Z</time>
      </trkpt>
      <trkpt lat="47.58373" lon="6.73669">
        <ele>358</ele>
        <time>2019-04-14T08:54:48Z</time>
      </trkpt>
      <trkpt lat="47.5837" lon="6.7368">
        <ele>358</ele>
        <time>2019-04-14T08:54:53Z</time>
      </trkpt>
      <trkpt lat="47.58371" lon="6.73696">
        <ele>357</ele>
        <time>2019-04-14T08:54:58Z</time>
      </trkpt>
      <trkpt lat="47.58369" lon="6.73709">
        <ele>356</ele>
        <time>2019-04-14T08:55:03Z</time>
      </trkpt>
      <trkpt lat="47.58364" lon="6.73716">
        <ele>355</ele>
        <time>2019-04-14T08:55:08Z</time>
      </trkpt>
      <trkpt lat="47.58358" lon="6.73726">
        <ele>355</ele>
        <time>2019-04-14T08:55:13Z</time>
      </trkpt>
      <trkpt lat="47.58351" lon="6.7374">
        <ele>354</ele>
        <time>2019-04-14T08:55:18Z</time>
      </trkpt>
      <trkpt lat="47.58345" lon="6.73747">
        <ele>354</ele>
        <time>2019-04-14T08:55:24Z</time>
      </trkpt>
      <trkpt lat="47.5834" lon="6.73753">
        <ele>353</ele>
        <time>2019-04-14T08:55:29Z</time>
      </trkpt>
      <trkpt lat="47.58334" lon="6.7377">
        <ele>353</ele>
        <time>2019-04-14T08:55:34Z</time>
      </trkpt>
      <trkpt lat="47.58329" lon="6.73783">
        <ele>354</ele>
        <time>2019-04-14T08:55:43Z</time>
      </trkpt>
      <trkpt lat="47.58321" lon="6.73795">
        <ele>354</ele>
        <time>2019-04-14T08:55:50Z</time>
      </trkpt>
      <trkpt lat="47.58313" lon="6.73809">
        <ele>354</ele>
        <time>2019-04-14T08:55:55Z</time>
      </trkpt>
      <trkpt lat="47.58308" lon="6.73819">
        <ele>355</ele>
        <time>2019-04-14T08:56:00Z</time>
      </trkpt>
      <trkpt lat="47.58303" lon="6.7383">
        <ele>355</ele>
        <time>2019-04-14T08:56:05Z</time>
      </trkpt>
      <trkpt lat="47.58302" lon="6.73837">
        <ele>355</ele>
        <time>2019-04-14T08:56:10Z</time>
      </trkpt>
      <trkpt lat="47.583" lon="6.7385">
        <ele>355</ele>
        <time>2019-04-14T08:56:15Z</time>
      </trkpt>
      <trkpt lat="47.583" lon="6.73875">
        <ele>356</ele>
        <time>2019-04-14T08:56:20Z</time>
      </trkpt>
      <trkpt lat="47.58302" lon="6.73886">
        <ele>356</ele>
        <time>2019-04-14T08:56:25Z</time>
      </trkpt>
      <trkpt lat="47.58302" lon="6.73903">
        <ele>356</ele>
        <time>2019-04-14T08:56:30Z</time>
      </trkpt>
      <trkpt lat="47.58303" lon="6.73918">
        <ele>356</ele>
        <time>2019-04-14T08:56:35Z</time>
      </trkpt>
      <trkpt lat="47.58306" lon="6.73928">
        <ele>357</ele>
        <time>2019-04-14T08:56:40Z</time>
      </trkpt>
      <trkpt lat="47.58309" lon="6.73942">
        <ele>357</ele>
        <time>2019-04-14T08:56:45Z</time>
      </trkpt>
      <trkpt lat="47.5831" lon="6.73957">
        <ele>357</ele>
        <time>2019-04-14T08:56:50Z</time>
      </trkpt>
      <trkpt lat="47.58311" lon="6.73971">
        <ele>357</ele>
        <time>2019-04-14T08:56:55Z</time>
      </trkpt>
      <trkpt lat="47.58314" lon="6.73983">
        <ele>357</ele>
        <time>2019-04-14T08:57:00Z</time>
      </trkpt>
      <trkpt lat="47.58321" lon="6.73996">
        <ele>357</ele>
        <time>2019-04-14T08:57:05Z</time>
      </trkpt>
      <trkpt lat="47.58334" lon="6.73993">
        <ele>357</ele>
        <time>2019-04-14T08:57:10Z</time>
      </trkpt>
      <trkpt lat="47.58346" lon="6.73987">
        <ele>357</ele>
        <time>2019-04-14T08:57:15Z</time>
      </trkpt>
      <trkpt lat="47.58355" lon="6.73981">
        <ele>357</ele>
        <time>2019-04-14T08:57:20Z</time>
      </trkpt>
      <trkpt lat="47.58368" lon="6.73975">
        <ele>358</ele>
        <time>2019-04-14T08:57:25Z</time>
      </trkpt>
      <trkpt lat="47.5838" lon="6.73968">
        <ele>358</ele>
        <time>2019-04-14T08:57:30Z</time>
      </trkpt>
      <trkpt lat="47.58392" lon="6.73954">
        <ele>359</ele>
        <time>2019-04-14T08:57:35Z</time>
      </trkpt>
      <trkpt lat="47.58403" lon="6.73932">
        <ele>359</ele>
        <time>2019-04-14T08:57:40Z</time>
      </trkpt>
      <trkpt lat="47.58414" lon="6.73932">
        <ele>359</ele>
        <time>2019-04-14T08:57:48Z</time>
      </trkpt>
      <trkpt lat="47.58427" lon="6.73952">
        <ele>359</ele>
        <time>2019-04-14T08:57:53Z</time>
      </trkpt>
      <trkpt lat="47.5844" lon="6.73975">
        <ele>359</ele>
        <time>2019-04-14T08:57:58Z</time>
      </trkpt>
      <trkpt lat="47.58453" lon="6.73994">
        <ele>358</ele>
        <time>2019-04-14T08:58:03Z</time>
      </trkpt>
      <trkpt lat="47.58464" lon="6.74013">
        <ele>357</ele>
        <time>2019-04-14T08:58:08Z</time>
      </trkpt>
      <trkpt lat="47.58476" lon="6.74012">
        <ele>356</ele>
        <time>2019-04-14T08:58:13Z</time>
      </trkpt>
      <trkpt lat="47.58478" lon="6.74">
        <ele>354</ele>
        <time>2019-04-14T08:58:18Z</time>
      </trkpt>
      <trkpt lat="47.58478" lon="6.73979">
        <ele>353</ele>
        <time>2019-04-14T08:58:23Z</time>
      </trkpt>
      <trkpt lat="47.58478" lon="6.73955">
        <ele>352</ele>
        <time>2019-04-14T08:58:28Z</time>
      </trkpt>
      <trkpt lat="47.5848" lon="6.73932">
        <ele>351</ele>
        <time>2019-04-14T08:58:33Z</time>
      </trkpt>
      <trkpt lat="47.58483" lon="6.73914">
        <ele>350</ele>
        <time>2019-04-14T08:58:38Z</time>
      </trkpt>
      <trkpt lat="47.58485" lon="6.73895">
        <ele>348</ele>
        <time>2019-04-14T08:58:43Z</time>
      </trkpt>
      <trkpt lat="47.58486" lon="6.73872">
        <ele>347</ele>
        <time>2019-04-14T08:58:48Z</time>
      </trkpt>
      <trkpt lat="47.58485" lon="6.73854">
        <ele>347</ele>
        <time>2019-04-14T08:58:53Z</time>
      </trkpt>
      <trkpt lat="47.58481" lon="6.73835">
        <ele>346</ele>
        <time>2019-04-14T08:58:58Z</time>
      </trkpt>
      <trkpt lat="47.58485" lon="6.73811">
        <ele>345</ele>
        <time>2019-04-14T08:59:03Z</time>
      </trkpt>
      <trkpt lat="47.58489" lon="6.73792">
        <ele>345</ele>
        <time>2019-04-14T08:59:08Z</time>
      </trkpt>
      <trkpt lat="47.58494" lon="6.73769">
        <ele>345</ele>
        <time>2019-04-14T08:59:13Z</time>
      </trkpt>
      <trkpt lat="47.58499" lon="6.73749">
        <ele>345</ele>
        <time>2019-04-14T08:59:18Z</time>
      </trkpt>
      <trkpt lat="47.58507" lon="6.73728">
        <ele>345</ele>
        <time>2019-04-14T08:59:23Z</time>
      </trkpt>
      <trkpt lat="47.58514" lon="6.7371">
        <ele>344</ele>
        <time>2019-04-14T08:59:28Z</time>
      </trkpt>
      <trkpt lat="47.58522" lon="6.73697">
        <ele>344</ele>
        <time>2019-04-14T08:59:33Z</time>
      </trkpt>
      <trkpt lat="47.58527" lon="6.73689">
        <ele>344</ele>
        <time>2019-04-14T08:59:38Z</time>
      </trkpt>
      <trkpt lat="47.58522" lon="6.73689">
        <ele>343</ele>
        <time>2019-04-14T08:59:54Z</time>
      </trkpt>
      <trkpt lat="47.58524" lon="6.73689">
        <ele>343</ele>
        <time>2019-04-14T09:00:16Z</time>
      </trkpt>
      <trkpt lat="47.58524" lon="6.7369">
        <ele>343</ele>
        <time>2019-04-14T09:00:17Z</time>
      </trkpt>
      <trkpt lat="47.58526" lon="6.73684">
        <ele>343</ele>
        <time>2019-04-14T09:00:46Z</time>
      </trkpt>
      <trkpt lat="47.58526" lon="6.73684">
        <ele>343</ele>
        <time>2019-04-14T09:00:47Z</time>
      </trkpt>
      <trkpt lat="47.58531" lon="6.73682">
        <ele>343</ele>
        <time>2019-04-14T09:00:55Z</time>
      </trkpt>
      <trkpt lat="47.58529" lon="6.73689">
        <ele>343</ele>
        <time>2019-04-14T09:01:07Z</time>
      </trkpt>
      <trkpt lat="47.58527" lon="6.7368">
        <ele>342</ele>
        <time>2019-04-14T09:02:34Z</time>
      </trkpt>
      <trkpt lat="47.58526" lon="6.73683">
        <ele>342</ele>
        <time>2019-04-14T09:03:01Z</time>
      </trkpt>
      <trkpt lat="47.58526" lon="6.73683">
        <ele>342</ele>
        <time>2019-04-14T09:03:02Z</time>
      </trkpt>
      <trkpt lat="47.58521" lon="6.73683">
        <ele>342</ele>
        <time>2019-04-14T09:03:21Z</time>
      </trkpt>
      <trkpt lat="47.58518" lon="6.73683">
        <ele>342</ele>
        <time>2019-04-14T09:03:46Z</time>
      </trkpt>
      <trkpt lat="47.58517" lon="6.73684">
        <ele>341</ele>
        <time>2019-04-14T09:03:47Z</time>
      </trkpt>
      <trkpt lat="47.58522" lon="6.73685">
        <ele>341</ele>
        <time>2019-04-14T09:04:01Z</time>
      </trkpt>
      <trkpt lat="47.58525" lon="6.73688">
        <ele>341</ele>
        <time>2019-04-14T09:04:16Z</time>
      </trkpt>
      <trkpt lat="47.58525" lon="6.73687">
        <ele>341</ele>
        <time>2019-04-14T09:04:17Z</time>
      </trkpt>
      <trkpt lat="47.58529" lon="6.73685">
        <ele>341</ele>
        <time>2019-04-14T09:04:27Z</time>
      </trkpt>
      <trkpt lat="47.58525" lon="6.73682">
        <ele>341</ele>
        <time>2019-04-14T09:04:43Z</time>
      </trkpt>
      <trkpt lat="47.58527" lon="6.73685">
        <ele>340</ele>
        <time>2019-04-14T09:05:01Z</time>
      </trkpt>
      <trkpt lat="47.58537" lon="6.73648">
        <ele>335</ele>
        <time>2019-04-14T09:10:55Z</time>
      </trkpt>
      <trkpt lat="47.58557" lon="6.73641">
        <ele>336</ele>
        <time>2019-04-14T09:11:00Z</time>
      </trkpt>
      <trkpt lat="47.5858" lon="6.73636">
        <ele>337</ele>
        <time>2019-04-14T09:11:05Z</time>
      </trkpt>
      <trkpt lat="47.58599" lon="6.73633">
        <ele>337</ele>
        <time>2019-04-14T09:11:10Z</time>
      </trkpt>
      <trkpt lat="47.58619" lon="6.73627">
        <ele>337</ele>
        <time>2019-04-14T09:11:15Z</time>
      </trkpt>
      <trkpt lat="47.58638" lon="6.73623">
        <ele>337</ele>
        <time>2019-04-14T09:11:20Z</time>
      </trkpt>
      <trkpt lat="47.58657" lon="6.73619">
        <ele>336</ele>
        <time>2019-04-14T09:11:25Z</time>
      </trkpt>
      <trkpt lat="47.58674" lon="6.7361">
        <ele>336</ele>
        <time>2019-04-14T09:11:30Z</time>
      </trkpt>
      <trkpt lat="47.58693" lon="6.73611">
        <ele>335</ele>
        <time>2019-04-14T09:11:35Z</time>
      </trkpt>
      <trkpt lat="47.58702" lon="6.73625">
        <ele>335</ele>
        <time>2019-04-14T09:11:40Z</time>
      </trkpt>
      <trkpt lat="47.5869" lon="6.73647">
        <ele>335</ele>
        <time>2019-04-14T09:11:45Z</time>
      </trkpt>
      <trkpt lat="47.58674" lon="6.73676">
        <ele>335</ele>
        <time>2019-04-14T09:11:50Z</time>
      </trkpt>
      <trkpt lat="47.5866" lon="6.73707">
        <ele>335</ele>
        <time>2019-04-14T09:11:55Z</time>
      </trkpt>
      <trkpt lat="47.58649" lon="6.73739">
        <ele>335</ele>
        <time>2019-04-14T09:12:00Z</time>
      </trkpt>
      <trkpt lat="47.58638" lon="6.73776">
        <ele>335</ele>
        <time>2019-04-14T09:12:05Z</time>
      </trkpt>
      <trkpt lat="47.58627" lon="6.7381">
        <ele>335</ele>
        <time>2019-04-14T09:12:10Z</time>
      </trkpt>
      <trkpt lat="47.58618" lon="6.73844">
        <ele>335</ele>
        <time>2019-04-14T09:12:15Z</time>
      </trkpt>
      <trkpt lat="47.58611" lon="6.73876">
        <ele>335</ele>
        <time>2019-04-14T09:12:20Z</time>
      </trkpt>
      <trkpt lat="47.58604" lon="6.73903">
        <ele>335</ele>
        <time>2019-04-14T09:12:25Z</time>
      </trkpt>
      <trkpt lat="47.58596" lon="6.7393">
        <ele>336</ele>
        <time>2019-04-14T09:12:30Z</time>
      </trkpt>
      <trkpt lat="47.58587" lon="6.73958">
        <ele>337</ele>
        <time>2019-04-14T09:12:35Z</time>
      </trkpt>
      <trkpt lat="47.58575" lon="6.73982">
        <ele>337</ele>
        <time>2019-04-14T09:12:40Z</time>
      </trkpt>
      <trkpt lat="47.58563" lon="6.74008">
        <ele>338</ele>
        <time>2019-04-14T09:12:45Z</time>
      </trkpt>
      <trkpt lat="47.58557" lon="6.74047">
        <ele>338</ele>
        <time>2019-04-14T09:12:50Z</time>
      </trkpt>
      <trkpt lat="47.58546" lon="6.74085">
        <ele>337</ele>
        <time>2019-04-14T09:12:55Z</time>
      </trkpt>
      <trkpt lat="47.58538" lon="6.74122">
        <ele>336</ele>
        <time>2019-04-14T09:13:00Z</time>
      </trkpt>
      <trkpt lat="47.58532" lon="6.74152">
        <ele>336</ele>
        <time>2019-04-14T09:13:05Z</time>
      </trkpt>
      <trkpt lat="47.58525" lon="6.74181">
        <ele>336</ele>
        <time>2019-04-14T09:13:10Z</time>
      </trkpt>
      <trkpt lat="47.58519" lon="6.742">
        <ele>335</ele>
        <time>2019-04-14T09:13:15Z</time>
      </trkpt>
      <trkpt lat="47.58511" lon="6.74208">
        <ele>335</ele>
        <time>2019-04-14T09:13:20Z</time>
      </trkpt>
      <trkpt lat="47.58516" lon="6.74214">
        <ele>335</ele>
        <time>2019-04-14T09:13:25Z</time>
      </trkpt>
      <trkpt lat="47.58557" lon="6.74234">
        <ele>335</ele>
        <time>2019-04-14T09:13:39Z</time>
      </trkpt>
      <trkpt lat="47.58571" lon="6.74251">
        <ele>335</ele>
        <time>2019-04-14T09:13:44Z</time>
      </trkpt>
      <trkpt lat="47.58566" lon="6.74269">
        <ele>335</ele>
        <time>2019-04-14T09:13:49Z</time>
      </trkpt>
      <trkpt lat="47.58561" lon="6.74285">
        <ele>335</ele>
        <time>2019-04-14T09:13:54Z</time>
      </trkpt>
      <trkpt lat="47.58558" lon="6.74301">
        <ele>335</ele>
        <time>2019-04-14T09:13:59Z</time>
      </trkpt>
      <trkpt lat="47.58554" lon="6.74312">
        <ele>335</ele>
        <time>2019-04-14T09:14:04Z</time>
      </trkpt>
      <trkpt lat="47.58551" lon="6.74326">
        <ele>335</ele>
        <time>2019-04-14T09:14:09Z</time>
      </trkpt>
      <trkpt lat="47.58547" lon="6.74341">
        <ele>335</ele>
        <time>2019-04-14T09:14:14Z</time>
      </trkpt>
      <trkpt lat="47.58545" lon="6.74353">
        <ele>335</ele>
        <time>2019-04-14T09:14:19Z</time>
      </trkpt>
      <trkpt lat="47.58543" lon="6.74367">
        <ele>336</ele>
        <time>2019-04-14T09:14:24Z</time>
      </trkpt>
      <trkpt lat="47.5854" lon="6.74378">
        <ele>336</ele>
        <time>2019-04-14T09:14:29Z</time>
      </trkpt>
      <trkpt lat="47.58539" lon="6.74388">
        <ele>337</ele>
        <time>2019-04-14T09:14:34Z</time>
      </trkpt>
      <trkpt lat="47.58539" lon="6.744">
        <ele>337</ele>
        <time>2019-04-14T09:14:39Z</time>
      </trkpt>
      <trkpt lat="47.58537" lon="6.74412">
        <ele>338</ele>
        <time>2019-04-14T09:14:44Z</time>
      </trkpt>
      <trkpt lat="47.58536" lon="6.74423">
        <ele>339</ele>
        <time>2019-04-14T09:14:49Z</time>
      </trkpt>
      <trkpt lat="47.58535" lon="6.74432">
        <ele>340</ele>
        <time>2019-04-14T09:14:54Z</time>
      </trkpt>
      <trkpt lat="47.58534" lon="6.74442">
        <ele>340</ele>
        <time>2019-04-14T09:14:59Z</time>
      </trkpt>
      <trkpt lat="47.58534" lon="6.7445">
        <ele>341</ele>
        <time>2019-04-14T09:15:04Z</time>
      </trkpt>
      <trkpt lat="47.58533" lon="6.74459">
        <ele>341</ele>
        <time>2019-04-14T09:15:09Z</time>
      </trkpt>
      <trkpt lat="47.58532" lon="6.74473">
        <ele>342</ele>
        <time>2019-04-14T09:15:14Z</time>
      </trkpt>
      <trkpt lat="47.58532" lon="6.74484">
        <ele>342</ele>
        <time>2019-04-14T09:15:19Z</time>
      </trkpt>
      <trkpt lat="47.58532" lon="6.74495">
        <ele>342</ele>
        <time>2019-04-14T09:15:24Z</time>
      </trkpt>
      <trkpt lat="47.58531" lon="6.74506">
        <ele>343</ele>
        <time>2019-04-14T09:15:29Z</time>
      </trkpt>
      <trkpt lat="47.58531" lon="6.74515">
        <ele>343</ele>
        <time>2019-04-14T09:15:34Z</time>
      </trkpt>
      <trkpt lat="47.5853" lon="6.74526">
        <ele>344</ele>
        <time>2019-04-14T09:15:39Z</time>
      </trkpt>
      <trkpt lat="47.58529" lon="6.74539">
        <ele>344</ele>
        <time>2019-04-14T09:15:44Z</time>
      </trkpt>
      <trkpt lat="47.58529" lon="6.74553">
        <ele>345</ele>
        <time>2019-04-14T09:15:49Z</time>
      </trkpt>
      <trkpt lat="47.5853" lon="6.74564">
        <ele>345</ele>
        <time>2019-04-14T09:15:54Z</time>
      </trkpt>
      <trkpt lat="47.58529" lon="6.74578">
        <ele>346</ele>
        <time>2019-04-14T09:15:59Z</time>
      </trkpt>
      <trkpt lat="47.58527" lon="6.74589">
        <ele>347</ele>
        <time>2019-04-14T09:16:04Z</time>
      </trkpt>
      <trkpt lat="47.58527" lon="6.74602">
        <ele>347</ele>
        <time>2019-04-14T09:16:09Z</time>
      </trkpt>
      <trkpt lat="47.58527" lon="6.74613">
        <ele>348</ele>
        <time>2019-04-14T09:16:14Z</time>
      </trkpt>
      <trkpt lat="47.58526" lon="6.74626">
        <ele>349</ele>
        <time>2019-04-14T09:16:19Z</time>
      </trkpt>
      <trkpt lat="47.58526" lon="6.7464">
        <ele>349</ele>
        <time>2019-04-14T09:16:24Z</time>
      </trkpt>
      <trkpt lat="47.58527" lon="6.74654">
        <ele>350</ele>
        <time>2019-04-14T09:16:29Z</time>
      </trkpt>
      <trkpt lat="47.58528" lon="6.74663">
        <ele>351</ele>
        <time>2019-04-14T09:16:34Z</time>
      </trkpt>
      <trkpt lat="47.58528" lon="6.74677">
        <ele>352</ele>
        <time>2019-04-14T09:16:39Z</time>
      </trkpt>
      <trkpt lat="47.58528" lon="6.74692">
        <ele>353</ele>
        <time>2019-04-14T09:16:44Z</time>
      </trkpt>
      <trkpt lat="47.58527" lon="6.74704">
        <ele>353</ele>
        <time>2019-04-14T09:16:49Z</time>
      </trkpt>
      <trkpt lat="47.5853" lon="6.74718">
        <ele>354</ele>
        <time>2019-04-14T09:16:54Z</time>
      </trkpt>
      <trkpt lat="47.58537" lon="6.74725">
        <ele>355</ele>
        <time>2019-04-14T09:16:59Z</time>
      </trkpt>
      <trkpt lat="47.58545" lon="6.74732">
        <ele>356</ele>
        <time>2019-04-14T09:17:04Z</time>
      </trkpt>
      <trkpt lat="47.58558" lon="6.74745">
        <ele>357</ele>
        <time>2019-04-14T09:17:09Z</time>
      </trkpt>
      <trkpt lat="47.58567" lon="6.74762">
        <ele>358</ele>
        <time>2019-04-14T09:17:14Z</time>
      </trkpt>
      <trkpt lat="47.58573" lon="6.74781">
        <ele>358</ele>
        <time>2019-04-14T09:17:19Z</time>
      </trkpt>
      <trkpt lat="47.58572" lon="6.74799">
        <ele>359</ele>
        <time>2019-04-14T09:17:24Z</time>
      </trkpt>
      <trkpt lat="47.58568" lon="6.74821">
        <ele>360</ele>
        <time>2019-04-14T09:17:29Z</time>
      </trkpt>
      <trkpt lat="47.58569" lon="6.74845">
        <ele>360</ele>
        <time>2019-04-14T09:17:34Z</time>
      </trkpt>
      <trkpt lat="47.58571" lon="6.74862">
        <ele>361</ele>
        <time>2019-04-14T09:17:39Z</time>
      </trkpt>
      <trkpt lat="47.58572" lon="6.74877">
        <ele>361</ele>
        <time>2019-04-14T09:17:44Z</time>
      </trkpt>
      <trkpt lat="47.58574" lon="6.74892">
        <ele>362</ele>
        <time>2019-04-14T09:17:49Z</time>
      </trkpt>
      <trkpt lat="47.58576" lon="6.74909">
        <ele>362</ele>
        <time>2019-04-14T09:17:54Z</time>
      </trkpt>
      <trkpt lat="47.58579" lon="6.74928">
        <ele>363</ele>
        <time>2019-04-14T09:17:59Z</time>
      </trkpt>
      <trkpt lat="47.58581" lon="6.74947">
        <ele>363</ele>
        <time>2019-04-14T09:18:04Z</time>
      </trkpt>
      <trkpt lat="47.58583" lon="6.7497">
        <ele>364</ele>
        <time>2019-04-14T09:18:09Z</time>
      </trkpt>
      <trkpt lat="47.58585" lon="6.7499">
        <ele>365</ele>
        <time>2019-04-14T09:18:14Z</time>
      </trkpt>
      <trkpt lat="47.58579" lon="6.75012">
        <ele>366</ele>
        <time>2019-04-14T09:18:19Z</time>
      </trkpt>
      <trkpt lat="47.58574" lon="6.75028">
        <ele>367</ele>
        <time>2019-04-14T09:18:24Z</time>
      </trkpt>
      <trkpt lat="47.58571" lon="6.75051">
        <ele>367</ele>
        <time>2019-04-14T09:18:29Z</time>
      </trkpt>
      <trkpt lat="47.58575" lon="6.75069">
        <ele>368</ele>
        <time>2019-04-14T09:18:34Z</time>
      </trkpt>
      <trkpt lat="47.58582" lon="6.75088">
        <ele>369</ele>
        <time>2019-04-14T09:18:39Z</time>
      </trkpt>
      <trkpt lat="47.58587" lon="6.75105">
        <ele>369</ele>
        <time>2019-04-14T09:18:44Z</time>
      </trkpt>
      <trkpt lat="47.58592" lon="6.7512">
        <ele>370</ele>
        <time>2019-04-14T09:18:49Z</time>
      </trkpt>
      <trkpt lat="47.58597" lon="6.75135">
        <ele>370</ele>
        <time>2019-04-14T09:18:54Z</time>
      </trkpt>
      <trkpt lat="47.58599" lon="6.75147">
        <ele>370</ele>
        <time>2019-04-14T09:18:59Z</time>
      </trkpt>
      <trkpt lat="47.58604" lon="6.75161">
        <ele>371</ele>
        <time>2019-04-14T09:19:04Z</time>
      </trkpt>
      <trkpt lat="47.58608" lon="6.75175">
        <ele>371</ele>
        <time>2019-04-14T09:19:09Z</time>
      </trkpt>
      <trkpt lat="47.58604" lon="6.75191">
        <ele>371</ele>
        <time>2019-04-14T09:19:14Z</time>
      </trkpt>
      <trkpt lat="47.58577" lon="6.75215">
        <ele>372</ele>
        <time>2019-04-14T09:19:19Z</time>
      </trkpt>
      <trkpt lat="47.5854" lon="6.75241">
        <ele>372</ele>
        <time>2019-04-14T09:19:24Z</time>
      </trkpt>
      <trkpt lat="47.58538" lon="6.75297">
        <ele>372</ele>
        <time>2019-04-14T09:19:29Z</time>
      </trkpt>
      <trkpt lat="47.58542" lon="6.7534">
        <ele>372</ele>
        <time>2019-04-14T09:19:34Z</time>
      </trkpt>
      <trkpt lat="47.58545" lon="6.75376">
        <ele>373</ele>
        <time>2019-04-14T09:19:39Z</time>
      </trkpt>
      <trkpt lat="47.5855" lon="6.75401">
        <ele>373</ele>
        <time>2019-04-14T09:19:44Z</time>
      </trkpt>
      <trkpt lat="47.58552" lon="6.75424">
        <ele>373</ele>
        <time>2019-04-14T09:19:49Z</time>
      </trkpt>
      <trkpt lat="47.58553" lon="6.75447">
        <ele>374</ele>
        <time>2019-04-14T09:19:54Z</time>
      </trkpt>
      <trkpt lat="47.58557" lon="6.75465">
        <ele>375</ele>
        <time>2019-04-14T09:19:59Z</time>
      </trkpt>
      <trkpt lat="47.58559" lon="6.75491">
        <ele>376</ele>
        <time>2019-04-14T09:20:04Z</time>
      </trkpt>
      <trkpt lat="47.58561" lon="6.75519">
        <ele>376</ele>
        <time>2019-04-14T09:20:09Z</time>
      </trkpt>
      <trkpt lat="47.58564" lon="6.75545">
        <ele>377</ele>
        <time>2019-04-14T09:20:14Z</time>
      </trkpt>
      <trkpt lat="47.58567" lon="6.75571">
        <ele>377</ele>
        <time>2019-04-14T09:20:19Z</time>
      </trkpt>
      <trkpt lat="47.58571" lon="6.756">
        <ele>378</ele>
        <time>2019-04-14T09:20:24Z</time>
      </trkpt>
      <trkpt lat="47.58577" lon="6.75626">
        <ele>378</ele>
        <time>2019-04-14T09:20:29Z</time>
      </trkpt>
      <trkpt lat="47.58584" lon="6.75647">
        <ele>378</ele>
        <time>2019-04-14T09:20:34Z</time>
      </trkpt>
      <trkpt lat="47.5859" lon="6.7567">
        <ele>379</ele>
        <time>2019-04-14T09:20:39Z</time>
      </trkpt>
      <trkpt lat="47.58595" lon="6.75696">
        <ele>379</ele>
        <time>2019-04-14T09:20:44Z</time>
      </trkpt>
      <trkpt lat="47.58599" lon="6.75727">
        <ele>379</ele>
        <time>2019-04-14T09:20:49Z</time>
      </trkpt>
      <trkpt lat="47.58604" lon="6.75757">
        <ele>380</ele>
        <time>2019-04-14T09:20:54Z</time>
      </trkpt>
      <trkpt lat="47.58609" lon="6.75786">
        <ele>381</ele>
        <time>2019-04-14T09:20:59Z</time>
      </trkpt>
      <trkpt lat="47.58614" lon="6.75818">
        <ele>381</ele>
        <time>2019-04-14T09:21:04Z</time>
      </trkpt>
      <trkpt lat="47.58618" lon="6.75852">
        <ele>382</ele>
        <time>2019-04-14T09:21:09Z</time>
      </trkpt>
      <trkpt lat="47.58624" lon="6.75883">
        <ele>382</ele>
        <time>2019-04-14T09:21:14Z</time>
      </trkpt>
      <trkpt lat="47.58628" lon="6.75913">
        <ele>382</ele>
        <time>2019-04-14T09:21:19Z</time>
      </trkpt>
      <trkpt lat="47.58633" lon="6.75946">
        <ele>382</ele>
        <time>2019-04-14T09:21:24Z</time>
      </trkpt>
      <trkpt lat="47.58641" lon="6.7598">
        <ele>382</ele>
        <time>2019-04-14T09:21:29Z</time>
      </trkpt>
      <trkpt lat="47.58648" lon="6.76006">
        <ele>382</ele>
        <time>2019-04-14T09:21:34Z</time>
      </trkpt>
      <trkpt lat="47.58654" lon="6.76028">
        <ele>382</ele>
        <time>2019-04-14T09:21:39Z</time>
      </trkpt>
      <trkpt lat="47.58656" lon="6.76049">
        <ele>381</ele>
        <time>2019-04-14T09:21:44Z</time>
      </trkpt>
      <trkpt lat="47.58655" lon="6.7607">
        <ele>381</ele>
        <time>2019-04-14T09:21:49Z</time>
      </trkpt>
      <trkpt lat="47.58656" lon="6.76084">
        <ele>381</ele>
        <time>2019-04-14T09:21:54Z</time>
      </trkpt>
      <trkpt lat="47.58665" lon="6.76091">
        <ele>381</ele>
        <time>2019-04-14T09:21:59Z</time>
      </trkpt>
      <trkpt lat="47.58674" lon="6.76098">
        <ele>381</ele>
        <time>2019-04-14T09:22:04Z</time>
      </trkpt>
      <trkpt lat="47.58681" lon="6.76104">
        <ele>381</ele>
        <time>2019-04-14T09:22:09Z</time>
      </trkpt>
      <trkpt lat="47.58681" lon="6.7612">
        <ele>381</ele>
        <time>2019-04-14T09:22:14Z</time>
      </trkpt>
      <trkpt lat="47.58677" lon="6.76157">
        <ele>381</ele>
        <time>2019-04-14T09:22:19Z</time>
      </trkpt>
      <trkpt lat="47.58683" lon="6.76184">
        <ele>382</ele>
        <time>2019-04-14T09:22:24Z</time>
      </trkpt>
      <trkpt lat="47.58688" lon="6.76203">
        <ele>382</ele>
        <time>2019-04-14T09:22:29Z</time>
      </trkpt>
      <trkpt lat="47.58693" lon="6.7622">
        <ele>382</ele>
        <time>2019-04-14T09:22:34Z</time>
      </trkpt>
      <trkpt lat="47.58698" lon="6.76236">
        <ele>382</ele>
        <time>2019-04-14T09:22:39Z</time>
      </trkpt>
      <trkpt lat="47.58705" lon="6.76253">
        <ele>382</ele>
        <time>2019-04-14T09:22:44Z</time>
      </trkpt>
      <trkpt lat="47.58711" lon="6.76269">
        <ele>383</ele>
        <time>2019-04-14T09:22:49Z</time>
      </trkpt>
      <trkpt lat="47.58715" lon="6.76285">
        <ele>383</ele>
        <time>2019-04-14T09:22:54Z</time>
      </trkpt>
      <trkpt lat="47.5872" lon="6.76303">
        <ele>383</ele>
        <time>2019-04-14T09:22:59Z</time>
      </trkpt>
      <trkpt lat="47.58725" lon="6.76322">
        <ele>384</ele>
        <time>2019-04-14T09:23:04Z</time>
      </trkpt>
      <trkpt lat="47.58729" lon="6.76339">
        <ele>384</ele>
        <time>2019-04-14T09:23:09Z</time>
      </trkpt>
      <trkpt lat="47.58735" lon="6.76356">
        <ele>384</ele>
        <time>2019-04-14T09:23:14Z</time>
      </trkpt>
      <trkpt lat="47.58738" lon="6.76375">
        <ele>385</ele>
        <time>2019-04-14T09:23:19Z</time>
      </trkpt>
      <trkpt lat="47.58743" lon="6.76394">
        <ele>385</ele>
        <time>2019-04-14T09:23:24Z</time>
      </trkpt>
      <trkpt lat="47.58749" lon="6.76414">
        <ele>386</ele>
        <time>2019-04-14T09:23:29Z</time>
      </trkpt>
      <trkpt lat="47.58754" lon="6.76433">
        <ele>386</ele>
        <time>2019-04-14T09:23:34Z</time>
      </trkpt>
      <trkpt lat="47.5876" lon="6.76449">
        <ele>387</ele>
        <time>2019-04-14T09:23:39Z</time>
      </trkpt>
      <trkpt lat="47.58763" lon="6.76464">
        <ele>388</ele>
        <time>2019-04-14T09:23:44Z</time>
      </trkpt>
      <trkpt lat="47.58767" lon="6.7648">
        <ele>389</ele>
        <time>2019-04-14T09:23:49Z</time>
      </trkpt>
      <trkpt lat="47.58771" lon="6.76494">
        <ele>390</ele>
        <time>2019-04-14T09:23:54Z</time>
      </trkpt>
      <trkpt lat="47.58776" lon="6.76509">
        <ele>391</ele>
        <time>2019-04-14T09:23:59Z</time>
      </trkpt>
      <trkpt lat="47.58781" lon="6.76523">
        <ele>392</ele>
        <time>2019-04-14T09:24:04Z</time>
      </trkpt>
      <trkpt lat="47.58784" lon="6.76536">
        <ele>393</ele>
        <time>2019-04-14T09:24:09Z</time>
      </trkpt>
      <trkpt lat="47.58788" lon="6.76548">
        <ele>394</ele>
        <time>2019-04-14T09:24:14Z</time>
      </trkpt>
      <trkpt lat="47.58791" lon="6.76561">
        <ele>395</ele>
        <time>2019-04-14T09:24:19Z</time>
      </trkpt>
      <trkpt lat="47.58794" lon="6.76576">
        <ele>395</ele>
        <time>2019-04-14T09:24:24Z</time>
      </trkpt>
      <trkpt lat="47.58796" lon="6.76589">
        <ele>396</ele>
        <time>2019-04-14T09:24:29Z</time>
      </trkpt>
      <trkpt lat="47.58801" lon="6.76602">
        <ele>397</ele>
        <time>2019-04-14T09:24:34Z</time>
      </trkpt>
      <trkpt lat="47.58806" lon="6.76616">
        <ele>397</ele>
        <time>2019-04-14T09:24:39Z</time>
      </trkpt>
      <trkpt lat="47.58812" lon="6.76631">
        <ele>398</ele>
        <time>2019-04-14T09:24:44Z</time>
      </trkpt>
      <trkpt lat="47.58817" lon="6.76643">
        <ele>399</ele>
        <time>2019-04-14T09:24:49Z</time>
      </trkpt>
      <trkpt lat="47.58823" lon="6.76656">
        <ele>399</ele>
        <time>2019-04-14T09:24:54Z</time>
      </trkpt>
      <trkpt lat="47.58828" lon="6.76668">
        <ele>400</ele>
        <time>2019-04-14T09:24:59Z</time>
      </trkpt>
      <trkpt lat="47.58832" lon="6.76681">
        <ele>401</ele>
        <time>2019-04-14T09:25:04Z</time>
      </trkpt>
      <trkpt lat="47.58836" lon="6.76694">
        <ele>402</ele>
        <time>2019-04-14T09:25:09Z</time>
      </trkpt>
      <trkpt lat="47.58839" lon="6.76704">
        <ele>403</ele>
        <time>2019-04-14T09:25:14Z</time>
      </trkpt>
      <trkpt lat="47.58843" lon="6.76714">
        <ele>404</ele>
        <time>2019-04-14T09:25:19Z</time>
      </trkpt>
      <trkpt lat="47.5885" lon="6.7672">
        <ele>405</ele>
        <time>2019-04-14T09:25:24Z</time>
      </trkpt>
      <trkpt lat="47.58859" lon="6.76715">
        <ele>405</ele>
        <time>2019-04-14T09:25:29Z</time>
      </trkpt>
      <trkpt lat="47.58867" lon="6.76707">
        <ele>406</ele>
        <time>2019-04-14T09:25:34Z</time>
      </trkpt>
      <trkpt lat="47.58873" lon="6.76699">
        <ele>407</ele>
        <time>2019-04-14T09:25:39Z</time>
      </trkpt>
      <trkpt lat="47.5888" lon="6.76693">
        <ele>407</ele>
        <time>2019-04-14T09:25:44Z</time>
      </trkpt>
      <trkpt lat="47.58887" lon="6.76687">
        <ele>407</ele>
        <time>2019-04-14T09:25:49Z</time>
      </trkpt>
      <trkpt lat="47.58893" lon="6.76683">
        <ele>408</ele>
        <time>2019-04-14T09:25:54Z</time>
      </trkpt>
      <trkpt lat="47.58901" lon="6.76676">
        <ele>408</ele>
        <time>2019-04-14T09:25:59Z</time>
      </trkpt>
      <trkpt lat="47.58908" lon="6.76671">
        <ele>408</ele>
        <time>2019-04-14T09:26:04Z</time>
      </trkpt>
      <trkpt lat="47.58915" lon="6.76667">
        <ele>409</ele>
        <time>2019-04-14T09:26:09Z</time>
      </trkpt>
      <trkpt lat="47.58922" lon="6.76663">
        <ele>409</ele>
        <time>2019-04-14T09:26:14Z</time>
      </trkpt>
      <trkpt lat="47.58929" lon="6.7666">
        <ele>410</ele>
        <time>2019-04-14T09:26:19Z</time>
      </trkpt>
      <trkpt lat="47.58936" lon="6.7666">
        <ele>410</ele>
        <time>2019-04-14T09:26:24Z</time>
      </trkpt>
      <trkpt lat="47.58943" lon="6.76659">
        <ele>411</ele>
        <time>2019-04-14T09:26:29Z</time>
      </trkpt>
      <trkpt lat="47.58952" lon="6.76657">
        <ele>412</ele>
        <time>2019-04-14T09:26:34Z</time>
      </trkpt>
      <trkpt lat="47.58961" lon="6.76657">
        <ele>412</ele>
        <time>2019-04-14T09:26:39Z</time>
      </trkpt>
      <trkpt lat="47.5897" lon="6.76656">
        <ele>413</ele>
        <time>2019-04-14T09:26:44Z</time>
      </trkpt>
      <trkpt lat="47.5898" lon="6.76653">
        <ele>413</ele>
        <time>2019-04-14T09:26:49Z</time>
      </trkpt>
      <trkpt lat="47.58988" lon="6.76649">
        <ele>414</ele>
        <time>2019-04-14T09:26:54Z</time>
      </trkpt>
      <trkpt lat="47.58995" lon="6.76646">
        <ele>415</ele>
        <time>2019-04-14T09:26:59Z</time>
      </trkpt>
      <trkpt lat="47.58999" lon="6.76642">
        <ele>415</ele>
        <time>2019-04-14T09:27:04Z</time>
      </trkpt>
      <trkpt lat="47.59006" lon="6.76639">
        <ele>416</ele>
        <time>2019-04-14T09:27:09Z</time>
      </trkpt>
      <trkpt lat="47.59013" lon="6.76635">
        <ele>417</ele>
        <time>2019-04-14T09:27:14Z</time>
      </trkpt>
      <trkpt lat="47.5902" lon="6.76631">
        <ele>417</ele>
        <time>2019-04-14T09:27:19Z</time>
      </trkpt>
      <trkpt lat="47.59028" lon="6.76626">
        <ele>418</ele>
        <time>2019-04-14T09:27:24Z</time>
      </trkpt>
      <trkpt lat="47.59035" lon="6.76623">
        <ele>419</ele>
        <time>2019-04-14T09:27:29Z</time>
      </trkpt>
      <trkpt lat="47.59041" lon="6.76619">
        <ele>420</ele>
        <time>2019-04-14T09:27:34Z</time>
      </trkpt>
      <trkpt lat="47.59047" lon="6.76615">
        <ele>420</ele>
        <time>2019-04-14T09:27:39Z</time>
      </trkpt>
      <trkpt lat="47.59055" lon="6.7661">
        <ele>421</ele>
        <time>2019-04-14T09:27:44Z</time>
      </trkpt>
      <trkpt lat="47.5906" lon="6.76606">
        <ele>422</ele>
        <time>2019-04-14T09:27:49Z</time>
      </trkpt>
      <trkpt lat="47.59063" lon="6.766">
        <ele>422</ele>
        <time>2019-04-14T09:27:54Z</time>
      </trkpt>
      <trkpt lat="47.59068" lon="6.76597">
        <ele>423</ele>
        <time>2019-04-14T09:27:59Z</time>
      </trkpt>
      <trkpt lat="47.59076" lon="6.766">
        <ele>423</ele>
        <time>2019-04-14T09:28:04Z</time>
      </trkpt>
      <trkpt lat="47.59082" lon="6.76606">
        <ele>424</ele>
        <time>2019-04-14T09:28:09Z</time>
      </trkpt>
      <trkpt lat="47.59089" lon="6.76603">
        <ele>425</ele>
        <time>2019-04-14T09:28:14Z</time>
      </trkpt>
      <trkpt lat="47.59095" lon="6.76603">
        <ele>426</ele>
        <time>2019-04-14T09:28:19Z</time>
      </trkpt>
      <trkpt lat="47.59101" lon="6.76601">
        <ele>427</ele>
        <time>2019-04-14T09:28:24Z</time>
      </trkpt>
      <trkpt lat="47.59106" lon="6.76598">
        <ele>428</ele>
        <time>2019-04-14T09:28:29Z</time>
      </trkpt>
      <trkpt lat="47.59111" lon="6.76598">
        <ele>429</ele>
        <time>2019-04-14T09:28:34Z</time>
      </trkpt>
      <trkpt lat="47.59113" lon="6.76611">
        <ele>430</ele>
        <time>2019-04-14T09:28:39Z</time>
      </trkpt>
      <trkpt lat="47.59115" lon="6.76625">
        <ele>430</ele>
        <time>2019-04-14T09:28:44Z</time>
      </trkpt>
      <trkpt lat="47.59117" lon="6.76643">
        <ele>431</ele>
        <time>2019-04-14T09:28:49Z</time>
      </trkpt>
      <trkpt lat="47.59121" lon="6.76674">
        <ele>432</ele>
        <time>2019-04-14T09:28:54Z</time>
      </trkpt>
      <trkpt lat="47.59124" lon="6.76712">
        <ele>433</ele>
        <time>2019-04-14T09:28:59Z</time>
      </trkpt>
      <trkpt lat="47.59131" lon="6.76741">
        <ele>434</ele>
        <time>2019-04-14T09:29:04Z</time>
      </trkpt>
      <trkpt lat="47.59135" lon="6.76752">
        <ele>435</ele>
        <time>2019-04-14T09:29:09Z</time>
      </trkpt>
      <trkpt lat="47.59139" lon="6.76781">
        <ele>436</ele>
        <time>2019-04-14T09:29:14Z</time>
      </trkpt>
      <trkpt lat="47.59138" lon="6.76813">
        <ele>436</ele>
        <time>2019-04-14T09:29:19Z</time>
      </trkpt>
      <trkpt lat="47.59139" lon="6.76838">
        <ele>436</ele>
        <time>2019-04-14T09:29:24Z</time>
      </trkpt>
      <trkpt lat="47.59139" lon="6.76866">
        <ele>436</ele>
        <time>2019-04-14T09:29:29Z</time>
      </trkpt>
      <trkpt lat="47.5914" lon="6.76899">
        <ele>435</ele>
        <time>2019-04-14T09:29:34Z</time>
      </trkpt>
      <trkpt lat="47.59142" lon="6.7693">
        <ele>435</ele>
        <time>2019-04-14T09:29:39Z</time>
      </trkpt>
      <trkpt lat="47.59147" lon="6.76957">
        <ele>434</ele>
        <time>2019-04-14T09:29:44Z</time>
      </trkpt>
      <trkpt lat="47.59152" lon="6.76979">
        <ele>433</ele>
        <time>2019-04-14T09:29:49Z</time>
      </trkpt>
      <trkpt lat="47.59159" lon="6.77004">
        <ele>432</ele>
        <time>2019-04-14T09:29:54Z</time>
      </trkpt>
      <trkpt lat="47.59165" lon="6.77025">
        <ele>432</ele>
        <time>2019-04-14T09:29:59Z</time>
      </trkpt>
      <trkpt lat="47.59169" lon="6.77053">
        <ele>431</ele>
        <time>2019-04-14T09:30:04Z</time>
      </trkpt>
      <trkpt lat="47.59172" lon="6.7708">
        <ele>431</ele>
        <time>2019-04-14T09:30:09Z</time>
      </trkpt>
      <trkpt lat="47.59156" lon="6.77094">
        <ele>430</ele>
        <time>2019-04-14T09:30:14Z</time>
      </trkpt>
      <trkpt lat="47.59157" lon="6.77126">
        <ele>428</ele>
        <time>2019-04-14T09:30:19Z</time>
      </trkpt>
      <trkpt lat="47.5916" lon="6.7715">
        <ele>427</ele>
        <time>2019-04-14T09:30:24Z</time>
      </trkpt>
      <trkpt lat="47.59156" lon="6.77186">
        <ele>425</ele>
        <time>2019-04-14T09:30:29Z</time>
      </trkpt>
      <trkpt lat="47.59148" lon="6.77214">
        <ele>422</ele>
        <time>2019-04-14T09:30:34Z</time>
      </trkpt>
      <trkpt lat="47.59153" lon="6.77248">
        <ele>420</ele>
        <time>2019-04-14T09:30:39Z</time>
      </trkpt>
      <trkpt lat="47.59149" lon="6.77279">
        <ele>418</ele>
        <time>2019-04-14T09:30:44Z</time>
      </trkpt>
      <trkpt lat="47.5916" lon="6.77309">
        <ele>416</ele>
        <time>2019-04-14T09:30:49Z</time>
      </trkpt>
      <trkpt lat="47.59183" lon="6.77321">
        <ele>415</ele>
        <time>2019-04-14T09:30:54Z</time>
      </trkpt>
      <trkpt lat="47.5921" lon="6.7735">
        <ele>414</ele>
        <time>2019-04-14T09:30:59Z</time>
      </trkpt>
      <trkpt lat="47.59227" lon="6.77361">
        <ele>413</ele>
        <time>2019-04-14T09:31:04Z</time>
      </trkpt>
      <trkpt lat="47.59242" lon="6.77362">
        <ele>412</ele>
        <time>2019-04-14T09:31:09Z</time>
      </trkpt>
      <trkpt lat="47.59255" lon="6.77372">
        <ele>411</ele>
        <time>2019-04-14T09:31:14Z</time>
      </trkpt>
      <trkpt lat="47.59264" lon="6.77384">
        <ele>410</ele>
        <time>2019-04-14T09:31:19Z</time>
      </trkpt>
      <trkpt lat="47.5927" lon="6.77394">
        <ele>410</ele>
        <time>2019-04-14T09:31:24Z</time>
      </trkpt>
      <trkpt lat="47.59273" lon="6.77401">
        <ele>410</ele>
        <time>2019-04-14T09:31:30Z</time>
      </trkpt>
      <trkpt lat="47.59277" lon="6.77416">
        <ele>410</ele>
        <time>2019-04-14T09:31:35Z</time>
      </trkpt>
      <trkpt lat="47.5928" lon="6.77427">
        <ele>410</ele>
        <time>2019-04-14T09:31:40Z</time>
      </trkpt>
      <trkpt lat="47.59292" lon="6.77447">
        <ele>410</ele>
        <time>2019-04-14T09:31:45Z</time>
      </trkpt>
      <trkpt lat="47.59294" lon="6.77453">
        <ele>411</ele>
        <time>2019-04-14T09:31:51Z</time>
      </trkpt>
      <trkpt lat="47.59299" lon="6.77465">
        <ele>411</ele>
        <time>2019-04-14T09:31:56Z</time>
      </trkpt>
      <trkpt lat="47.59301" lon="6.77477">
        <ele>411</ele>
        <time>2019-04-14T09:32:01Z</time>
      </trkpt>
      <trkpt lat="47.59306" lon="6.77484">
        <ele>412</ele>
        <time>2019-04-14T09:32:06Z</time>
      </trkpt>
      <trkpt lat="47.59307" lon="6.77495">
        <ele>412</ele>
        <time>2019-04-14T09:32:15Z</time>
      </trkpt>
      <trkpt lat="47.59317" lon="6.77522">
        <ele>413</ele>
        <time>2019-04-14T09:32:20Z</time>
      </trkpt>
      <trkpt lat="47.59322" lon="6.77538">
        <ele>413</ele>
        <time>2019-04-14T09:32:25Z</time>
      </trkpt>
      <trkpt lat="47.59328" lon="6.77553">
        <ele>414</ele>
        <time>2019-04-14T09:32:30Z</time>
      </trkpt>
      <trkpt lat="47.59336" lon="6.77569">
        <ele>415</ele>
        <time>2019-04-14T09:32:35Z</time>
      </trkpt>
      <trkpt lat="47.59344" lon="6.77583">
        <ele>415</ele>
        <time>2019-04-14T09:32:40Z</time>
      </trkpt>
      <trkpt lat="47.59348" lon="6.77589">
        <ele>415</ele>
        <time>2019-04-14T09:32:45Z</time>
      </trkpt>
      <trkpt lat="47.59358" lon="6.77602">
        <ele>415</ele>
        <time>2019-04-14T09:32:50Z</time>
      </trkpt>
      <trkpt lat="47.59364" lon="6.77612">
        <ele>415</ele>
        <time>2019-04-14T09:32:55Z</time>
      </trkpt>
      <trkpt lat="47.5937" lon="6.77625">
        <ele>415</ele>
        <time>2019-04-14T09:33:00Z</time>
      </trkpt>
      <trkpt lat="47.59372" lon="6.77639">
        <ele>415</ele>
        <time>2019-04-14T09:33:05Z</time>
      </trkpt>
      <trkpt lat="47.59379" lon="6.7765">
        <ele>414</ele>
        <time>2019-04-14T09:33:10Z</time>
      </trkpt>
      <trkpt lat="47.5939" lon="6.77664">
        <ele>415</ele>
        <time>2019-04-14T09:33:15Z</time>
      </trkpt>
      <trkpt lat="47.59402" lon="6.77681">
        <ele>415</ele>
        <time>2019-04-14T09:33:20Z</time>
      </trkpt>
      <trkpt lat="47.59412" lon="6.77699">
        <ele>416</ele>
        <time>2019-04-14T09:33:25Z</time>
      </trkpt>
      <trkpt lat="47.5942" lon="6.77711">
        <ele>416</ele>
        <time>2019-04-14T09:33:30Z</time>
      </trkpt>
      <trkpt lat="47.59434" lon="6.77719">
        <ele>417</ele>
        <time>2019-04-14T09:33:35Z</time>
      </trkpt>
      <trkpt lat="47.59449" lon="6.77728">
        <ele>418</ele>
        <time>2019-04-14T09:33:40Z</time>
      </trkpt>
      <trkpt lat="47.59462" lon="6.77736">
        <ele>419</ele>
        <time>2019-04-14T09:33:45Z</time>
      </trkpt>
      <trkpt lat="47.59475" lon="6.77738">
        <ele>419</ele>
        <time>2019-04-14T09:33:50Z</time>
      </trkpt>
      <trkpt lat="47.59488" lon="6.77752">
        <ele>419</ele>
        <time>2019-04-14T09:33:55Z</time>
      </trkpt>
      <trkpt lat="47.59499" lon="6.77775">
        <ele>420</ele>
        <time>2019-04-14T09:34:00Z</time>
      </trkpt>
      <trkpt lat="47.59516" lon="6.77795">
        <ele>419</ele>
        <time>2019-04-14T09:34:05Z</time>
      </trkpt>
      <trkpt lat="47.59521" lon="6.77824">
        <ele>419</ele>
        <time>2019-04-14T09:34:10Z</time>
      </trkpt>
      <trkpt lat="47.59522" lon="6.77847">
        <ele>419</ele>
        <time>2019-04-14T09:34:15Z</time>
      </trkpt>
      <trkpt lat="47.59519" lon="6.77873">
        <ele>418</ele>
        <time>2019-04-14T09:34:20Z</time>
      </trkpt>
      <trkpt lat="47.59521" lon="6.77906">
        <ele>417</ele>
        <time>2019-04-14T09:34:25Z</time>
      </trkpt>
      <trkpt lat="47.59524" lon="6.77936">
        <ele>416</ele>
        <time>2019-04-14T09:34:30Z</time>
      </trkpt>
      <trkpt lat="47.59503" lon="6.77953">
        <ele>414</ele>
        <time>2019-04-14T09:34:35Z</time>
      </trkpt>
      <trkpt lat="47.5947" lon="6.77965">
        <ele>411</ele>
        <time>2019-04-14T09:34:40Z</time>
      </trkpt>
      <trkpt lat="47.59425" lon="6.77976">
        <ele>408</ele>
        <time>2019-04-14T09:34:45Z</time>
      </trkpt>
      <trkpt lat="47.59376" lon="6.77989">
        <ele>405</ele>
        <time>2019-04-14T09:34:50Z</time>
      </trkpt>
      <trkpt lat="47.59322" lon="6.78003">
        <ele>401</ele>
        <time>2019-04-14T09:34:55Z</time>
      </trkpt>
      <trkpt lat="47.5927" lon="6.7803">
        <ele>397</ele>
        <time>2019-04-14T09:35:00Z</time>
      </trkpt>
      <trkpt lat="47.59221" lon="6.78078">
        <ele>393</ele>
        <time>2019-04-14T09:35:05Z</time>
      </trkpt>
      <trkpt lat="47.59176" lon="6.78125">
        <ele>388</ele>
        <time>2019-04-14T09:35:10Z</time>
      </trkpt>
      <trkpt lat="47.59131" lon="6.78146">
        <ele>384</ele>
        <time>2019-04-14T09:35:15Z</time>
      </trkpt>
      <trkpt lat="47.591" lon="6.78199">
        <ele>380</ele>
        <time>2019-04-14T09:35:20Z</time>
      </trkpt>
      <trkpt lat="47.59062" lon="6.78238">
        <ele>376</ele>
        <time>2019-04-14T09:35:25Z</time>
      </trkpt>
      <trkpt lat="47.59026" lon="6.7827">
        <ele>373</ele>
        <time>2019-04-14T09:35:30Z</time>
      </trkpt>
      <trkpt lat="47.59019" lon="6.7829">
        <ele>371</ele>
        <time>2019-04-14T09:35:35Z</time>
      </trkpt>
      <trkpt lat="47.59031" lon="6.78291">
        <ele>370</ele>
        <time>2019-04-14T09:35:40Z</time>
      </trkpt>
      <trkpt lat="47.59041" lon="6.78296">
        <ele>368</ele>
        <time>2019-04-14T09:35:45Z</time>
      </trkpt>
      <trkpt lat="47.59042" lon="6.78329">
        <ele>366</ele>
        <time>2019-04-14T09:35:50Z</time>
      </trkpt>
      <trkpt lat="47.59047" lon="6.78367">
        <ele>364</ele>
        <time>2019-04-14T09:35:55Z</time>
      </trkpt>
      <trkpt lat="47.5905" lon="6.78399">
        <ele>361</ele>
        <time>2019-04-14T09:36:00Z</time>
      </trkpt>
      <trkpt lat="47.59052" lon="6.78434">
        <ele>357</ele>
        <time>2019-04-14T09:36:05Z</time>
      </trkpt>
      <trkpt lat="47.59049" lon="6.78466">
        <ele>354</ele>
        <time>2019-04-14T09:36:10Z</time>
      </trkpt>
      <trkpt lat="47.59036" lon="6.785">
        <ele>351</ele>
        <time>2019-04-14T09:36:15Z</time>
      </trkpt>
      <trkpt lat="47.59017" lon="6.78534">
        <ele>349</ele>
        <time>2019-04-14T09:36:20Z</time>
      </trkpt>
      <trkpt lat="47.58992" lon="6.78564">
        <ele>349</ele>
        <time>2019-04-14T09:36:25Z</time>
      </trkpt>
      <trkpt lat="47.58971" lon="6.78593">
        <ele>349</ele>
        <time>2019-04-14T09:36:30Z</time>
      </trkpt>
      <trkpt lat="47.58944" lon="6.78601">
        <ele>350</ele>
        <time>2019-04-14T09:36:35Z</time>
      </trkpt>
      <trkpt lat="47.58915" lon="6.78596">
        <ele>350</ele>
        <time>2019-04-14T09:36:40Z</time>
      </trkpt>
      <trkpt lat="47.58887" lon="6.78595">
        <ele>350</ele>
        <time>2019-04-14T09:36:45Z</time>
      </trkpt>
      <trkpt lat="47.5886" lon="6.78593">
        <ele>350</ele>
        <time>2019-04-14T09:36:50Z</time>
      </trkpt>
      <trkpt lat="47.58833" lon="6.78587">
        <ele>349</ele>
        <time>2019-04-14T09:36:55Z</time>
      </trkpt>
      <trkpt lat="47.58804" lon="6.78575">
        <ele>349</ele>
        <time>2019-04-14T09:37:00Z</time>
      </trkpt>
      <trkpt lat="47.58778" lon="6.78565">
        <ele>349</ele>
        <time>2019-04-14T09:37:05Z</time>
      </trkpt>
      <trkpt lat="47.58757" lon="6.78573">
        <ele>350</ele>
        <time>2019-04-14T09:37:10Z</time>
      </trkpt>
      <trkpt lat="47.58738" lon="6.78582">
        <ele>349</ele>
        <time>2019-04-14T09:37:15Z</time>
      </trkpt>
      <trkpt lat="47.58716" lon="6.78593">
        <ele>349</ele>
        <time>2019-04-14T09:37:20Z</time>
      </trkpt>
      <trkpt lat="47.58697" lon="6.78601">
        <ele>349</ele>
        <time>2019-04-14T09:37:25Z</time>
      </trkpt>
      <trkpt lat="47.58682" lon="6.78608">
        <ele>348</ele>
        <time>2019-04-14T09:37:30Z</time>
      </trkpt>
      <trkpt lat="47.58667" lon="6.78614">
        <ele>348</ele>
        <time>2019-04-14T09:37:35Z</time>
      </trkpt>
      <trkpt lat="47.58656" lon="6.78622">
        <ele>347</ele>
        <time>2019-04-14T09:37:40Z</time>
      </trkpt>
      <trkpt lat="47.58646" lon="6.78629">
        <ele>347</ele>
        <time>2019-04-14T09:37:45Z</time>
      </trkpt>
      <trkpt lat="47.58635" lon="6.78639">
        <ele>347</ele>
        <time>2019-04-14T09:37:50Z</time>
      </trkpt>
      <trkpt lat="47.58625" lon="6.7865">
        <ele>348</ele>
        <time>2019-04-14T09:37:55Z</time>
      </trkpt>
      <trkpt lat="47.58614" lon="6.78661">
        <ele>348</ele>
        <time>2019-04-14T09:38:00Z</time>
      </trkpt>
      <trkpt lat="47.58602" lon="6.78674">
        <ele>348</ele>
        <time>2019-04-14T09:38:05Z</time>
      </trkpt>
      <trkpt lat="47.58594" lon="6.78686">
        <ele>348</ele>
        <time>2019-04-14T09:38:10Z</time>
      </trkpt>
      <trkpt lat="47.58588" lon="6.78698">
        <ele>349</ele>
        <time>2019-04-14T09:38:15Z</time>
      </trkpt>
      <trkpt lat="47.58583" lon="6.78719">
        <ele>349</ele>
        <time>2019-04-14T09:38:20Z</time>
      </trkpt>
      <trkpt lat="47.5858" lon="6.78738">
        <ele>350</ele>
        <time>2019-04-14T09:38:25Z</time>
      </trkpt>
      <trkpt lat="47.58578" lon="6.78757">
        <ele>350</ele>
        <time>2019-04-14T09:38:30Z</time>
      </trkpt>
      <trkpt lat="47.58572" lon="6.78776">
        <ele>350</ele>
        <time>2019-04-14T09:38:35Z</time>
      </trkpt>
      <trkpt lat="47.58558" lon="6.78775">
        <ele>351</ele>
        <time>2019-04-14T09:38:40Z</time>
      </trkpt>
      <trkpt lat="47.5854" lon="6.78783">
        <ele>351</ele>
        <time>2019-04-14T09:38:45Z</time>
      </trkpt>
      <trkpt lat="47.58518" lon="6.78806">
        <ele>351</ele>
        <time>2019-04-14T09:38:50Z</time>
      </trkpt>
      <trkpt lat="47.58499" lon="6.78821">
        <ele>350</ele>
        <time>2019-04-14T09:38:55Z</time>
      </trkpt>
      <trkpt lat="47.58479" lon="6.78842">
        <ele>350</ele>
        <time>2019-04-14T09:39:00Z</time>
      </trkpt>
      <trkpt lat="47.58464" lon="6.78853">
        <ele>349</ele>
        <time>2019-04-14T09:39:05Z</time>
      </trkpt>
      <trkpt lat="47.58456" lon="6.78823">
        <ele>349</ele>
        <time>2019-04-14T09:39:10Z</time>
      </trkpt>
      <trkpt lat="47.58455" lon="6.7879">
        <ele>348</ele>
        <time>2019-04-14T09:39:15Z</time>
      </trkpt>
      <trkpt lat="47.58453" lon="6.78751">
        <ele>348</ele>
        <time>2019-04-14T09:39:20Z</time>
      </trkpt>
      <trkpt lat="47.58453" lon="6.78713">
        <ele>348</ele>
        <time>2019-04-14T09:39:25Z</time>
      </trkpt>
      <trkpt lat="47.58445" lon="6.78664">
        <ele>348</ele>
        <time>2019-04-14T09:39:30Z</time>
      </trkpt>
      <trkpt lat="47.58429" lon="6.78622">
        <ele>348</ele>
        <time>2019-04-14T09:39:35Z</time>
      </trkpt>
      <trkpt lat="47.58407" lon="6.78613">
        <ele>347</ele>
        <time>2019-04-14T09:39:40Z</time>
      </trkpt>
      <trkpt lat="47.58398" lon="6.78586">
        <ele>347</ele>
        <time>2019-04-14T09:39:45Z</time>
      </trkpt>
      <trkpt lat="47.58393" lon="6.78557">
        <ele>346</ele>
        <time>2019-04-14T09:39:50Z</time>
      </trkpt>
      <trkpt lat="47.58386" lon="6.78532">
        <ele>345</ele>
        <time>2019-04-14T09:39:55Z</time>
      </trkpt>
      <trkpt lat="47.58366" lon="6.78518">
        <ele>344</ele>
        <time>2019-04-14T09:40:00Z</time>
      </trkpt>
      <trkpt lat="47.58344" lon="6.78506">
        <ele>344</ele>
        <time>2019-04-14T09:40:05Z</time>
      </trkpt>
      <trkpt lat="47.58321" lon="6.78493">
        <ele>344</ele>
        <time>2019-04-14T09:40:10Z</time>
      </trkpt>
      <trkpt lat="47.58299" lon="6.78479">
        <ele>344</ele>
        <time>2019-04-14T09:40:15Z</time>
      </trkpt>
      <trkpt lat="47.58274" lon="6.78466">
        <ele>344</ele>
        <time>2019-04-14T09:40:20Z</time>
      </trkpt>
      <trkpt lat="47.58248" lon="6.78452">
        <ele>344</ele>
        <time>2019-04-14T09:40:25Z</time>
      </trkpt>
      <trkpt lat="47.58222" lon="6.78436">
        <ele>344</ele>
        <time>2019-04-14T09:40:30Z</time>
      </trkpt>
      <trkpt lat="47.58199" lon="6.78421">
        <ele>343</ele>
        <time>2019-04-14T09:40:35Z</time>
      </trkpt>
      <trkpt lat="47.58173" lon="6.78415">
        <ele>342</ele>
        <time>2019-04-14T09:40:40Z</time>
      </trkpt>
      <trkpt lat="47.58157" lon="6.7844">
        <ele>341</ele>
        <time>2019-04-14T09:40:45Z</time>
      </trkpt>
      <trkpt lat="47.5814" lon="6.78466">
        <ele>341</ele>
        <time>2019-04-14T09:40:50Z</time>
      </trkpt>
      <trkpt lat="47.58124" lon="6.78468">
        <ele>341</ele>
        <time>2019-04-14T09:40:55Z</time>
      </trkpt>
      <trkpt lat="47.58108" lon="6.78441">
        <ele>341</ele>
        <time>2019-04-14T09:41:00Z</time>
      </trkpt>
      <trkpt lat="47.58089" lon="6.78413">
        <ele>341</ele>
        <time>2019-04-14T09:41:05Z</time>
      </trkpt>
      <trkpt lat="47.58072" lon="6.78383">
        <ele>340</ele>
        <time>2019-04-14T09:41:10Z</time>
      </trkpt>
      <trkpt lat="47.58052" lon="6.78362">
        <ele>339</ele>
        <time>2019-04-14T09:41:15Z</time>
      </trkpt>
      <trkpt lat="47.58029" lon="6.78343">
        <ele>339</ele>
        <time>2019-04-14T09:41:20Z</time>
      </trkpt>
      <trkpt lat="47.58007" lon="6.78323">
        <ele>339</ele>
        <time>2019-04-14T09:41:25Z</time>
      </trkpt>
      <trkpt lat="47.57984" lon="6.783">
        <ele>339</ele>
        <time>2019-04-14T09:41:30Z</time>
      </trkpt>
      <trkpt lat="47.57962" lon="6.78281">
        <ele>339</ele>
        <time>2019-04-14T09:41:35Z</time>
      </trkpt>
      <trkpt lat="47.57938" lon="6.78259">
        <ele>339</ele>
        <time>2019-04-14T09:41:40Z</time>
      </trkpt>
      <trkpt lat="47.57919" lon="6.78251">
        <ele>340</ele>
        <time>2019-04-14T09:41:45Z</time>
      </trkpt>
      <trkpt lat="47.57912" lon="6.78257">
        <ele>341</ele>
        <time>2019-04-14T09:41:52Z</time>
      </trkpt>
      <trkpt lat="47.57911" lon="6.78269">
        <ele>341</ele>
        <time>2019-04-14T09:41:57Z</time>
      </trkpt>
      <trkpt lat="47.5791" lon="6.78279">
        <ele>342</ele>
        <time>2019-04-14T09:42:02Z</time>
      </trkpt>
      <trkpt lat="47.57909" lon="6.78287">
        <ele>342</ele>
        <time>2019-04-14T09:42:07Z</time>
      </trkpt>
      <trkpt lat="47.57908" lon="6.78296">
        <ele>343</ele>
        <time>2019-04-14T09:42:12Z</time>
      </trkpt>
      <trkpt lat="47.57905" lon="6.78305">
        <ele>343</ele>
        <time>2019-04-14T09:42:17Z</time>
      </trkpt>
      <trkpt lat="47.57904" lon="6.78312">
        <ele>344</ele>
        <time>2019-04-14T09:42:23Z</time>
      </trkpt>
      <trkpt lat="47.57908" lon="6.7832">
        <ele>344</ele>
        <time>2019-04-14T09:42:28Z</time>
      </trkpt>
      <trkpt lat="47.57914" lon="6.78324">
        <ele>345</ele>
        <time>2019-04-14T09:42:33Z</time>
      </trkpt>
      <trkpt lat="47.57921" lon="6.78331">
        <ele>346</ele>
        <time>2019-04-14T09:42:38Z</time>
      </trkpt>
      <trkpt lat="47.57929" lon="6.78341">
        <ele>348</ele>
        <time>2019-04-14T09:42:43Z</time>
      </trkpt>
      <trkpt lat="47.57937" lon="6.78351">
        <ele>348</ele>
        <time>2019-04-14T09:42:48Z</time>
      </trkpt>
      <trkpt lat="47.57945" lon="6.7836">
        <ele>349</ele>
        <time>2019-04-14T09:42:53Z</time>
      </trkpt>
      <trkpt lat="47.57952" lon="6.78371">
        <ele>350</ele>
        <time>2019-04-14T09:42:58Z</time>
      </trkpt>
      <trkpt lat="47.57958" lon="6.7838">
        <ele>350</ele>
        <time>2019-04-14T09:43:03Z</time>
      </trkpt>
      <trkpt lat="47.57963" lon="6.78386">
        <ele>351</ele>
        <time>2019-04-14T09:43:08Z</time>
      </trkpt>
      <trkpt lat="47.57972" lon="6.78401">
        <ele>351</ele>
        <time>2019-04-14T09:43:13Z</time>
      </trkpt>
      <trkpt lat="47.57983" lon="6.78416">
        <ele>351</ele>
        <time>2019-04-14T09:43:18Z</time>
      </trkpt>
      <trkpt lat="47.57989" lon="6.78431">
        <ele>352</ele>
        <time>2019-04-14T09:43:23Z</time>
      </trkpt>
      <trkpt lat="47.57996" lon="6.78444">
        <ele>352</ele>
        <time>2019-04-14T09:43:28Z</time>
      </trkpt>
      <trkpt lat="47.58001" lon="6.78454">
        <ele>353</ele>
        <time>2019-04-14T09:43:33Z</time>
      </trkpt>
      <trkpt lat="47.58006" lon="6.78467">
        <ele>353</ele>
        <time>2019-04-14T09:43:38Z</time>
      </trkpt>
      <trkpt lat="47.58011" lon="6.7848">
        <ele>354</ele>
        <time>2019-04-14T09:43:43Z</time>
      </trkpt>
      <trkpt lat="47.58015" lon="6.78491">
        <ele>354</ele>
        <time>2019-04-14T09:43:48Z</time>
      </trkpt>
      <trkpt lat="47.58022" lon="6.78504">
        <ele>355</ele>
        <time>2019-04-14T09:43:53Z</time>
      </trkpt>
      <trkpt lat="47.58028" lon="6.78519">
        <ele>355</ele>
        <time>2019-04-14T09:43:58Z</time>
      </trkpt>
      <trkpt lat="47.58033" lon="6.78535">
        <ele>355</ele>
        <time>2019-04-14T09:44:03Z</time>
      </trkpt>
      <trkpt lat="47.58039" lon="6.78551">
        <ele>355</ele>
        <time>2019-04-14T09:44:08Z</time>
      </trkpt>
      <trkpt lat="47.58046" lon="6.78566">
        <ele>356</ele>
        <time>2019-04-14T09:44:13Z</time>
      </trkpt>
      <trkpt lat="47.58053" lon="6.78582">
        <ele>356</ele>
        <time>2019-04-14T09:44:18Z</time>
      </trkpt>
      <trkpt lat="47.58059" lon="6.78598">
        <ele>357</ele>
        <time>2019-04-14T09:44:23Z</time>
      </trkpt>
      <trkpt lat="47.58064" lon="6.78615">
        <ele>357</ele>
        <time>2019-04-14T09:44:28Z</time>
      </trkpt>
      <trkpt lat="47.58069" lon="6.78632">
        <ele>358</ele>
        <time>2019-04-14T09:44:33Z</time>
      </trkpt>
      <trkpt lat="47.58075" lon="6.78648">
        <ele>358</ele>
        <time>2019-04-14T09:44:38Z</time>
      </trkpt>
      <trkpt lat="47.58081" lon="6.78667">
        <ele>359</ele>
        <time>2019-04-14T09:44:43Z</time>
      </trkpt>
      <trkpt lat="47.58088" lon="6.78695">
        <ele>360</ele>
        <time>2019-04-14T09:44:48Z</time>
      </trkpt>
      <trkpt lat="47.58094" lon="6.78727">
        <ele>361</ele>
        <time>2019-04-14T09:44:53Z</time>
      </trkpt>
      <trkpt lat="47.581" lon="6.78755">
        <ele>362</ele>
        <time>2019-04-14T09:44:58Z</time>
      </trkpt>
      <trkpt lat="47.58103" lon="6.78783">
        <ele>363</ele>
        <time>2019-04-14T09:45:03Z</time>
      </trkpt>
      <trkpt lat="47.58098" lon="6.78809">
        <ele>364</ele>
        <time>2019-04-14T09:45:08Z</time>
      </trkpt>
      <trkpt lat="47.58093" lon="6.78831">
        <ele>365</ele>
        <time>2019-04-14T09:45:13Z</time>
      </trkpt>
      <trkpt lat="47.58091" lon="6.78851">
        <ele>365</ele>
        <time>2019-04-14T09:45:18Z</time>
      </trkpt>
      <trkpt lat="47.58087" lon="6.7887">
        <ele>366</ele>
        <time>2019-04-14T09:45:23Z</time>
      </trkpt>
      <trkpt lat="47.58083" lon="6.78887">
        <ele>366</ele>
        <time>2019-04-14T09:45:28Z</time>
      </trkpt>
      <trkpt lat="47.58077" lon="6.78904">
        <ele>366</ele>
        <time>2019-04-14T09:45:33Z</time>
      </trkpt>
      <trkpt lat="47.58071" lon="6.78918">
        <ele>367</ele>
        <time>2019-04-14T09:45:38Z</time>
      </trkpt>
      <trkpt lat="47.58067" lon="6.78931">
        <ele>367</ele>
        <time>2019-04-14T09:45:43Z</time>
      </trkpt>
      <trkpt lat="47.58063" lon="6.78944">
        <ele>367</ele>
        <time>2019-04-14T09:45:48Z</time>
      </trkpt>
      <trkpt lat="47.5806" lon="6.78952">
        <ele>367</ele>
        <time>2019-04-14T09:45:53Z</time>
      </trkpt>
      <trkpt lat="47.58056" lon="6.78964">
        <ele>367</ele>
        <time>2019-04-14T09:45:58Z</time>
      </trkpt>
      <trkpt lat="47.58052" lon="6.78975">
        <ele>368</ele>
        <time>2019-04-14T09:46:03Z</time>
      </trkpt>
      <trkpt lat="47.58048" lon="6.78983">
        <ele>368</ele>
        <time>2019-04-14T09:46:08Z</time>
      </trkpt>
      <trkpt lat="47.58041" lon="6.78994">
        <ele>368</ele>
        <time>2019-04-14T09:46:13Z</time>
      </trkpt>
      <trkpt lat="47.58038" lon="6.79001">
        <ele>369</ele>
        <time>2019-04-14T09:46:18Z</time>
      </trkpt>
      <trkpt lat="47.58032" lon="6.79008">
        <ele>369</ele>
        <time>2019-04-14T09:46:23Z</time>
      </trkpt>
      <trkpt lat="47.58028" lon="6.79017">
        <ele>369</ele>
        <time>2019-04-14T09:46:28Z</time>
      </trkpt>
      <trkpt lat="47.58024" lon="6.79025">
        <ele>369</ele>
        <time>2019-04-14T09:46:33Z</time>
      </trkpt>
      <trkpt lat="47.5802" lon="6.79033">
        <ele>370</ele>
        <time>2019-04-14T09:46:38Z</time>
      </trkpt>
      <trkpt lat="47.58017" lon="6.79037">
        <ele>370</ele>
        <time>2019-04-14T09:46:43Z</time>
      </trkpt>
      <trkpt lat="47.58012" lon="6.79044">
        <ele>371</ele>
        <time>2019-04-14T09:46:48Z</time>
      </trkpt>
      <trkpt lat="47.58006" lon="6.79051">
        <ele>372</ele>
        <time>2019-04-14T09:46:53Z</time>
      </trkpt>
      <trkpt lat="47.57999" lon="6.79058">
        <ele>372</ele>
        <time>2019-04-14T09:46:58Z</time>
      </trkpt>
      <trkpt lat="47.57994" lon="6.79067">
        <ele>373</ele>
        <time>2019-04-14T09:47:03Z</time>
      </trkpt>
      <trkpt lat="47.57992" lon="6.79074">
        <ele>374</ele>
        <time>2019-04-14T09:47:09Z</time>
      </trkpt>
      <trkpt lat="47.57989" lon="6.79082">
        <ele>375</ele>
        <time>2019-04-14T09:47:14Z</time>
      </trkpt>
      <trkpt lat="47.57985" lon="6.79089">
        <ele>375</ele>
        <time>2019-04-14T09:47:19Z</time>
      </trkpt>
      <trkpt lat="47.57982" lon="6.79094">
        <ele>376</ele>
        <time>2019-04-14T09:47:24Z</time>
      </trkpt>
      <trkpt lat="47.57977" lon="6.79103">
        <ele>376</ele>
        <time>2019-04-14T09:47:29Z</time>
      </trkpt>
      <trkpt lat="47.57973" lon="6.79109">
        <ele>377</ele>
        <time>2019-04-14T09:47:36Z</time>
      </trkpt>
      <trkpt lat="47.57967" lon="6.79111">
        <ele>377</ele>
        <time>2019-04-14T09:47:41Z</time>
      </trkpt>
      <trkpt lat="47.57959" lon="6.7911">
        <ele>378</ele>
        <time>2019-04-14T09:47:46Z</time>
      </trkpt>
      <trkpt lat="47.57952" lon="6.7911">
        <ele>378</ele>
        <time>2019-04-14T09:47:51Z</time>
      </trkpt>
      <trkpt lat="47.57946" lon="6.79111">
        <ele>379</ele>
        <time>2019-04-14T09:47:56Z</time>
      </trkpt>
      <trkpt lat="47.57941" lon="6.79113">
        <ele>379</ele>
        <time>2019-04-14T09:48:01Z</time>
      </trkpt>
      <trkpt lat="47.57936" lon="6.79118">
        <ele>380</ele>
        <time>2019-04-14T09:48:06Z</time>
      </trkpt>
      <trkpt lat="47.57927" lon="6.79117">
        <ele>381</ele>
        <time>2019-04-14T09:48:11Z</time>
      </trkpt>
      <trkpt lat="47.57919" lon="6.79114">
        <ele>382</ele>
        <time>2019-04-14T09:48:16Z</time>
      </trkpt>
      <trkpt lat="47.57908" lon="6.79111">
        <ele>384</ele>
        <time>2019-04-14T09:48:21Z</time>
      </trkpt>
      <trkpt lat="47.57903" lon="6.79113">
        <ele>385</ele>
        <time>2019-04-14T09:48:26Z</time>
      </trkpt>
      <trkpt lat="47.57894" lon="6.79112">
        <ele>386</ele>
        <time>2019-04-14T09:48:31Z</time>
      </trkpt>
      <trkpt lat="47.57884" lon="6.79112">
        <ele>387</ele>
        <time>2019-04-14T09:48:36Z</time>
      </trkpt>
      <trkpt lat="47.57875" lon="6.79112">
        <ele>388</ele>
        <time>2019-04-14T09:48:41Z</time>
      </trkpt>
      <trkpt lat="47.57865" lon="6.79114">
        <ele>389</ele>
        <time>2019-04-14T09:48:46Z</time>
      </trkpt>
      <trkpt lat="47.57854" lon="6.79116">
        <ele>389</ele>
        <time>2019-04-14T09:48:51Z</time>
      </trkpt>
      <trkpt lat="47.57843" lon="6.7912">
        <ele>390</ele>
        <time>2019-04-14T09:48:56Z</time>
      </trkpt>
      <trkpt lat="47.57835" lon="6.79131">
        <ele>391</ele>
        <time>2019-04-14T09:49:01Z</time>
      </trkpt>
      <trkpt lat="47.5783" lon="6.79148">
        <ele>391</ele>
        <time>2019-04-14T09:49:06Z</time>
      </trkpt>
      <trkpt lat="47.57823" lon="6.79169">
        <ele>392</ele>
        <time>2019-04-14T09:49:11Z</time>
      </trkpt>
      <trkpt lat="47.57821" lon="6.79189">
        <ele>393</ele>
        <time>2019-04-14T09:49:16Z</time>
      </trkpt>
      <trkpt lat="47.57815" lon="6.79205">
        <ele>393</ele>
        <time>2019-04-14T09:49:21Z</time>
      </trkpt>
      <trkpt lat="47.57803" lon="6.79219">
        <ele>393</ele>
        <time>2019-04-14T09:49:26Z</time>
      </trkpt>
      <trkpt lat="47.57787" lon="6.79233">
        <ele>393</ele>
        <time>2019-04-14T09:49:31Z</time>
      </trkpt>
      <trkpt lat="47.57773" lon="6.79244">
        <ele>394</ele>
        <time>2019-04-14T09:49:36Z</time>
      </trkpt>
      <trkpt lat="47.57759" lon="6.79256">
        <ele>394</ele>
        <time>2019-04-14T09:49:41Z</time>
      </trkpt>
      <trkpt lat="47.57744" lon="6.79268">
        <ele>394</ele>
        <time>2019-04-14T09:49:46Z</time>
      </trkpt>
      <trkpt lat="47.57729" lon="6.79278">
        <ele>394</ele>
        <time>2019-04-14T09:49:51Z</time>
      </trkpt>
      <trkpt lat="47.57711" lon="6.79289">
        <ele>394</ele>
        <time>2019-04-14T09:49:56Z</time>
      </trkpt>
      <trkpt lat="47.57693" lon="6.79303">
        <ele>394</ele>
        <time>2019-04-14T09:50:01Z</time>
      </trkpt>
      <trkpt lat="47.57676" lon="6.79317">
        <ele>394</ele>
        <time>2019-04-14T09:50:06Z</time>
      </trkpt>
      <trkpt lat="47.57662" lon="6.79333">
        <ele>394</ele>
        <time>2019-04-14T09:50:11Z</time>
      </trkpt>
      <trkpt lat="47.57652" lon="6.79347">
        <ele>394</ele>
        <time>2019-04-14T09:50:16Z</time>
      </trkpt>
      <trkpt lat="47.57645" lon="6.79364">
        <ele>394</ele>
        <time>2019-04-14T09:50:21Z</time>
      </trkpt>
      <trkpt lat="47.57639" lon="6.79384">
        <ele>395</ele>
        <time>2019-04-14T09:50:26Z</time>
      </trkpt>
      <trkpt lat="47.57632" lon="6.79404">
        <ele>395</ele>
        <time>2019-04-14T09:50:31Z</time>
      </trkpt>
      <trkpt lat="47.57626" lon="6.79423">
        <ele>396</ele>
        <time>2019-04-14T09:50:36Z</time>
      </trkpt>
      <trkpt lat="47.57621" lon="6.79443">
        <ele>396</ele>
        <time>2019-04-14T09:50:41Z</time>
      </trkpt>
      <trkpt lat="47.57615" lon="6.79464">
        <ele>396</ele>
        <time>2019-04-14T09:50:46Z</time>
      </trkpt>
      <trkpt lat="47.57608" lon="6.79488">
        <ele>396</ele>
        <time>2019-04-14T09:50:51Z</time>
      </trkpt>
      <trkpt lat="47.576" lon="6.7951">
        <ele>396</ele>
        <time>2019-04-14T09:50:56Z</time>
      </trkpt>
      <trkpt lat="47.57594" lon="6.79531">
        <ele>396</ele>
        <time>2019-04-14T09:51:01Z</time>
      </trkpt>
      <trkpt lat="47.57585" lon="6.79553">
        <ele>396</ele>
        <time>2019-04-14T09:51:06Z</time>
      </trkpt>
      <trkpt lat="47.57581" lon="6.79575">
        <ele>397</ele>
        <time>2019-04-14T09:51:11Z</time>
      </trkpt>
      <trkpt lat="47.57578" lon="6.79595">
        <ele>398</ele>
        <time>2019-04-14T09:51:16Z</time>
      </trkpt>
      <trkpt lat="47.57575" lon="6.79621">
        <ele>398</ele>
        <time>2019-04-14T09:51:21Z</time>
      </trkpt>
      <trkpt lat="47.57575" lon="6.7965">
        <ele>399</ele>
        <time>2019-04-14T09:51:26Z</time>
      </trkpt>
      <trkpt lat="47.57575" lon="6.79676">
        <ele>400</ele>
        <time>2019-04-14T09:51:31Z</time>
      </trkpt>
      <trkpt lat="47.57575" lon="6.79696">
        <ele>400</ele>
        <time>2019-04-14T09:51:36Z</time>
      </trkpt>
      <trkpt lat="47.57575" lon="6.79713">
        <ele>401</ele>
        <time>2019-04-14T09:51:41Z</time>
      </trkpt>
      <trkpt lat="47.57573" lon="6.79728">
        <ele>401</ele>
        <time>2019-04-14T09:51:46Z</time>
      </trkpt>
      <trkpt lat="47.57569" lon="6.79743">
        <ele>401</ele>
        <time>2019-04-14T09:51:51Z</time>
      </trkpt>
      <trkpt lat="47.57565" lon="6.7976">
        <ele>402</ele>
        <time>2019-04-14T09:51:56Z</time>
      </trkpt>
      <trkpt lat="47.57558" lon="6.79777">
        <ele>403</ele>
        <time>2019-04-14T09:52:01Z</time>
      </trkpt>
      <trkpt lat="47.57552" lon="6.79794">
        <ele>403</ele>
        <time>2019-04-14T09:52:06Z</time>
      </trkpt>
      <trkpt lat="47.57546" lon="6.79808">
        <ele>404</ele>
        <time>2019-04-14T09:52:11Z</time>
      </trkpt>
      <trkpt lat="47.57541" lon="6.79822">
        <ele>404</ele>
        <time>2019-04-14T09:52:16Z</time>
      </trkpt>
      <trkpt lat="47.57535" lon="6.79837">
        <ele>405</ele>
        <time>2019-04-14T09:52:21Z</time>
      </trkpt>
      <trkpt lat="47.57525" lon="6.79852">
        <ele>406</ele>
        <time>2019-04-14T09:52:26Z</time>
      </trkpt>
      <trkpt lat="47.57515" lon="6.79864">
        <ele>406</ele>
        <time>2019-04-14T09:52:31Z</time>
      </trkpt>
      <trkpt lat="47.57505" lon="6.7987">
        <ele>407</ele>
        <time>2019-04-14T09:52:36Z</time>
      </trkpt>
      <trkpt lat="47.57493" lon="6.79875">
        <ele>407</ele>
        <time>2019-04-14T09:52:41Z</time>
      </trkpt>
      <trkpt lat="47.57482" lon="6.79881">
        <ele>408</ele>
        <time>2019-04-14T09:52:46Z</time>
      </trkpt>
      <trkpt lat="47.57474" lon="6.79887">
        <ele>408</ele>
        <time>2019-04-14T09:52:51Z</time>
      </trkpt>
      <trkpt lat="47.5747" lon="6.79896">
        <ele>408</ele>
        <time>2019-04-14T09:52:56Z</time>
      </trkpt>
      <trkpt lat="47.57467" lon="6.79908">
        <ele>408</ele>
        <time>2019-04-14T09:53:01Z</time>
      </trkpt>
      <trkpt lat="47.57464" lon="6.79922">
        <ele>409</ele>
        <time>2019-04-14T09:53:06Z</time>
      </trkpt>
      <trkpt lat="47.57461" lon="6.79933">
        <ele>409</ele>
        <time>2019-04-14T09:53:11Z</time>
      </trkpt>
      <trkpt lat="47.57458" lon="6.79947">
        <ele>410</ele>
        <time>2019-04-14T09:53:16Z</time>
      </trkpt>
      <trkpt lat="47.57452" lon="6.79965">
        <ele>411</ele>
        <time>2019-04-14T09:53:21Z</time>
      </trkpt>
      <trkpt lat="47.57445" lon="6.79983">
        <ele>412</ele>
        <time>2019-04-14T09:53:26Z</time>
      </trkpt>
      <trkpt lat="47.57436" lon="6.80005">
        <ele>413</ele>
        <time>2019-04-14T09:53:31Z</time>
      </trkpt>
      <trkpt lat="47.57422" lon="6.80024">
        <ele>414</ele>
        <time>2019-04-14T09:53:36Z</time>
      </trkpt>
      <trkpt lat="47.574" lon="6.80042">
        <ele>415</ele>
        <time>2019-04-14T09:53:41Z</time>
      </trkpt>
      <trkpt lat="47.57373" lon="6.80062">
        <ele>417</ele>
        <time>2019-04-14T09:53:46Z</time>
      </trkpt>
      <trkpt lat="47.57345" lon="6.80087">
        <ele>417</ele>
        <time>2019-04-14T09:53:51Z</time>
      </trkpt>
      <trkpt lat="47.57318" lon="6.80114">
        <ele>418</ele>
        <time>2019-04-14T09:53:56Z</time>
      </trkpt>
      <trkpt lat="47.57295" lon="6.80144">
        <ele>417</ele>
        <time>2019-04-14T09:54:01Z</time>
      </trkpt>
      <trkpt lat="47.57267" lon="6.80164">
        <ele>416</ele>
        <time>2019-04-14T09:54:06Z</time>
      </trkpt>
      <trkpt lat="47.57233" lon="6.80167">
        <ele>414</ele>
        <time>2019-04-14T09:54:11Z</time>
      </trkpt>
      <trkpt lat="47.57203" lon="6.80177">
        <ele>413</ele>
        <time>2019-04-14T09:54:16Z</time>
      </trkpt>
      <trkpt lat="47.57173" lon="6.80198">
        <ele>412</ele>
        <time>2019-04-14T09:54:21Z</time>
      </trkpt>
      <trkpt lat="47.5715" lon="6.80226">
        <ele>410</ele>
        <time>2019-04-14T09:54:26Z</time>
      </trkpt>
      <trkpt lat="47.57134" lon="6.80249">
        <ele>409</ele>
        <time>2019-04-14T09:54:31Z</time>
      </trkpt>
      <trkpt lat="47.57116" lon="6.80264">
        <ele>409</ele>
        <time>2019-04-14T09:54:36Z</time>
      </trkpt>
      <trkpt lat="47.57097" lon="6.80276">
        <ele>410</ele>
        <time>2019-04-14T09:54:41Z</time>
      </trkpt>
      <trkpt lat="47.57077" lon="6.80288">
        <ele>410</ele>
        <time>2019-04-14T09:54:46Z</time>
      </trkpt>
      <trkpt lat="47.57056" lon="6.80302">
        <ele>411</ele>
        <time>2019-04-14T09:54:51Z</time>
      </trkpt>
      <trkpt lat="47.57037" lon="6.80312">
        <ele>412</ele>
        <time>2019-04-14T09:54:56Z</time>
      </trkpt>
      <trkpt lat="47.57019" lon="6.80322">
        <ele>412</ele>
        <time>2019-04-14T09:55:01Z</time>
      </trkpt>
      <trkpt lat="47.57001" lon="6.80326">
        <ele>413</ele>
        <time>2019-04-14T09:55:06Z</time>
      </trkpt>
      <trkpt lat="47.56983" lon="6.80328">
        <ele>413</ele>
        <time>2019-04-14T09:55:11Z</time>
      </trkpt>
      <trkpt lat="47.56965" lon="6.80326">
        <ele>413</ele>
        <time>2019-04-14T09:55:16Z</time>
      </trkpt>
      <trkpt lat="47.56942" lon="6.80327">
        <ele>414</ele>
        <time>2019-04-14T09:55:21Z</time>
      </trkpt>
      <trkpt lat="47.56921" lon="6.80328">
        <ele>414</ele>
        <time>2019-04-14T09:55:26Z</time>
      </trkpt>
      <trkpt lat="47.56895" lon="6.80327">
        <ele>413</ele>
        <time>2019-04-14T09:55:31Z</time>
      </trkpt>
      <trkpt lat="47.5686" lon="6.80316">
        <ele>412</ele>
        <time>2019-04-14T09:55:36Z</time>
      </trkpt>
      <trkpt lat="47.56817" lon="6.8029">
        <ele>411</ele>
        <time>2019-04-14T09:55:41Z</time>
      </trkpt>
      <trkpt lat="47.5677" lon="6.80253">
        <ele>408</ele>
        <time>2019-04-14T09:55:46Z</time>
      </trkpt>
      <trkpt lat="47.56722" lon="6.80207">
        <ele>405</ele>
        <time>2019-04-14T09:55:51Z</time>
      </trkpt>
      <trkpt lat="47.56671" lon="6.80158">
        <ele>400</ele>
        <time>2019-04-14T09:55:56Z</time>
      </trkpt>
      <trkpt lat="47.56621" lon="6.80126">
        <ele>396</ele>
        <time>2019-04-14T09:56:01Z</time>
      </trkpt>
      <trkpt lat="47.56574" lon="6.80109">
        <ele>392</ele>
        <time>2019-04-14T09:56:06Z</time>
      </trkpt>
      <trkpt lat="47.5652" lon="6.8012">
        <ele>388</ele>
        <time>2019-04-14T09:56:11Z</time>
      </trkpt>
      <trkpt lat="47.56472" lon="6.80133">
        <ele>385</ele>
        <time>2019-04-14T09:56:16Z</time>
      </trkpt>
      <trkpt lat="47.56429" lon="6.8014">
        <ele>382</ele>
        <time>2019-04-14T09:56:21Z</time>
      </trkpt>
      <trkpt lat="47.56385" lon="6.80132">
        <ele>380</ele>
        <time>2019-04-14T09:56:26Z</time>
      </trkpt>
      <trkpt lat="47.56344" lon="6.80117">
        <ele>377</ele>
        <time>2019-04-14T09:56:31Z</time>
      </trkpt>
      <trkpt lat="47.56301" lon="6.80121">
        <ele>375</ele>
        <time>2019-04-14T09:56:36Z</time>
      </trkpt>
      <trkpt lat="47.56261" lon="6.80141">
        <ele>373</ele>
        <time>2019-04-14T09:56:41Z</time>
      </trkpt>
      <trkpt lat="47.56224" lon="6.8016">
        <ele>371</ele>
        <time>2019-04-14T09:56:46Z</time>
      </trkpt>
      <trkpt lat="47.56194" lon="6.80159">
        <ele>369</ele>
        <time>2019-04-14T09:56:51Z</time>
      </trkpt>
      <trkpt lat="47.56168" lon="6.80143">
        <ele>369</ele>
        <time>2019-04-14T09:56:56Z</time>
      </trkpt>
      <trkpt lat="47.56141" lon="6.80149">
        <ele>368</ele>
        <time>2019-04-14T09:57:01Z</time>
      </trkpt>
      <trkpt lat="47.56118" lon="6.80158">
        <ele>369</ele>
        <time>2019-04-14T09:57:06Z</time>
      </trkpt>
      <trkpt lat="47.56103" lon="6.80176">
        <ele>369</ele>
        <time>2019-04-14T09:57:11Z</time>
      </trkpt>
      <trkpt lat="47.56096" lon="6.80189">
        <ele>370</ele>
        <time>2019-04-14T09:57:16Z</time>
      </trkpt>
      <trkpt lat="47.5609" lon="6.80199">
        <ele>371</ele>
        <time>2019-04-14T09:57:21Z</time>
      </trkpt>
      <trkpt lat="47.56079" lon="6.80206">
        <ele>371</ele>
        <time>2019-04-14T09:57:26Z</time>
      </trkpt>
      <trkpt lat="47.56066" lon="6.8021">
        <ele>372</ele>
        <time>2019-04-14T09:57:31Z</time>
      </trkpt>
      <trkpt lat="47.56056" lon="6.80215">
        <ele>372</ele>
        <time>2019-04-14T09:57:36Z</time>
      </trkpt>
      <trkpt lat="47.56032" lon="6.80213">
        <ele>373</ele>
        <time>2019-04-14T09:57:41Z</time>
      </trkpt>
      <trkpt lat="47.56017" lon="6.80201">
        <ele>374</ele>
        <time>2019-04-14T09:57:46Z</time>
      </trkpt>
      <trkpt lat="47.56004" lon="6.8018">
        <ele>374</ele>
        <time>2019-04-14T09:57:51Z</time>
      </trkpt>
      <trkpt lat="47.55993" lon="6.80172">
        <ele>375</ele>
        <time>2019-04-14T09:57:56Z</time>
      </trkpt>
      <trkpt lat="47.55979" lon="6.80168">
        <ele>375</ele>
        <time>2019-04-14T09:58:01Z</time>
      </trkpt>
      <trkpt lat="47.55961" lon="6.80169">
        <ele>375</ele>
        <time>2019-04-14T09:58:06Z</time>
      </trkpt>
      <trkpt lat="47.55947" lon="6.80176">
        <ele>375</ele>
        <time>2019-04-14T09:58:11Z</time>
      </trkpt>
      <trkpt lat="47.55936" lon="6.80178">
        <ele>374</ele>
        <time>2019-04-14T09:58:16Z</time>
      </trkpt>
      <trkpt lat="47.55923" lon="6.80182">
        <ele>374</ele>
        <time>2019-04-14T09:58:21Z</time>
      </trkpt>
      <trkpt lat="47.55916" lon="6.80197">
        <ele>374</ele>
        <time>2019-04-14T09:58:26Z</time>
      </trkpt>
      <trkpt lat="47.55906" lon="6.8021">
        <ele>374</ele>
        <time>2019-04-14T09:58:31Z</time>
      </trkpt>
      <trkpt lat="47.55897" lon="6.80219">
        <ele>375</ele>
        <time>2019-04-14T09:58:36Z</time>
      </trkpt>
      <trkpt lat="47.55885" lon="6.80222">
        <ele>376</ele>
        <time>2019-04-14T09:58:41Z</time>
      </trkpt>
      <trkpt lat="47.55872" lon="6.80223">
        <ele>377</ele>
        <time>2019-04-14T09:58:46Z</time>
      </trkpt>
      <trkpt lat="47.55864" lon="6.80223">
        <ele>379</ele>
        <time>2019-04-14T09:58:51Z</time>
      </trkpt>
      <trkpt lat="47.55853" lon="6.80221">
        <ele>380</ele>
        <time>2019-04-14T09:58:56Z</time>
      </trkpt>
      <trkpt lat="47.55841" lon="6.80215">
        <ele>381</ele>
        <time>2019-04-14T09:59:01Z</time>
      </trkpt>
      <trkpt lat="47.55831" lon="6.80208">
        <ele>383</ele>
        <time>2019-04-14T09:59:06Z</time>
      </trkpt>
      <trkpt lat="47.55821" lon="6.80203">
        <ele>384</ele>
        <time>2019-04-14T09:59:11Z</time>
      </trkpt>
      <trkpt lat="47.55804" lon="6.80189">
        <ele>384</ele>
        <time>2019-04-14T09:59:16Z</time>
      </trkpt>
      <trkpt lat="47.55784" lon="6.80183">
        <ele>385</ele>
        <time>2019-04-14T09:59:21Z</time>
      </trkpt>
      <trkpt lat="47.55769" lon="6.80186">
        <ele>385</ele>
        <time>2019-04-14T09:59:26Z</time>
      </trkpt>
      <trkpt lat="47.55756" lon="6.80189">
        <ele>385</ele>
        <time>2019-04-14T09:59:31Z</time>
      </trkpt>
      <trkpt lat="47.55744" lon="6.80195">
        <ele>385</ele>
        <time>2019-04-14T09:59:36Z</time>
      </trkpt>
      <trkpt lat="47.55731" lon="6.80194">
        <ele>385</ele>
        <time>2019-04-14T09:59:41Z</time>
      </trkpt>
      <trkpt lat="47.55714" lon="6.802">
        <ele>385</ele>
        <time>2019-04-14T09:59:46Z</time>
      </trkpt>
      <trkpt lat="47.5569" lon="6.80224">
        <ele>385</ele>
        <time>2019-04-14T09:59:51Z</time>
      </trkpt>
      <trkpt lat="47.55656" lon="6.80242">
        <ele>385</ele>
        <time>2019-04-14T09:59:56Z</time>
      </trkpt>
      <trkpt lat="47.55607" lon="6.80255">
        <ele>384</ele>
        <time>2019-04-14T10:00:01Z</time>
      </trkpt>
      <trkpt lat="47.55564" lon="6.80246">
        <ele>382</ele>
        <time>2019-04-14T10:00:06Z</time>
      </trkpt>
      <trkpt lat="47.55528" lon="6.80233">
        <ele>379</ele>
        <time>2019-04-14T10:00:11Z</time>
      </trkpt>
      <trkpt lat="47.5549" lon="6.80248">
        <ele>375</ele>
        <time>2019-04-14T10:00:16Z</time>
      </trkpt>
      <trkpt lat="47.55458" lon="6.80277">
        <ele>372</ele>
        <time>2019-04-14T10:00:21Z</time>
      </trkpt>
      <trkpt lat="47.55428" lon="6.80285">
        <ele>368</ele>
        <time>2019-04-14T10:00:26Z</time>
      </trkpt>
      <trkpt lat="47.55403" lon="6.80299">
        <ele>365</ele>
        <time>2019-04-14T10:00:31Z</time>
      </trkpt>
      <trkpt lat="47.55373" lon="6.80315">
        <ele>363</ele>
        <time>2019-04-14T10:00:36Z</time>
      </trkpt>
      <trkpt lat="47.55352" lon="6.80308">
        <ele>361</ele>
        <time>2019-04-14T10:00:41Z</time>
      </trkpt>
      <trkpt lat="47.55331" lon="6.803">
        <ele>360</ele>
        <time>2019-04-14T10:00:46Z</time>
      </trkpt>
      <trkpt lat="47.55315" lon="6.80282">
        <ele>358</ele>
        <time>2019-04-14T10:00:51Z</time>
      </trkpt>
      <trkpt lat="47.55299" lon="6.8028">
        <ele>358</ele>
        <time>2019-04-14T10:00:56Z</time>
      </trkpt>
      <trkpt lat="47.55282" lon="6.80282">
        <ele>359</ele>
        <time>2019-04-14T10:01:01Z</time>
      </trkpt>
      <trkpt lat="47.55268" lon="6.80287">
        <ele>359</ele>
        <time>2019-04-14T10:01:06Z</time>
      </trkpt>
      <trkpt lat="47.55258" lon="6.80286">
        <ele>360</ele>
        <time>2019-04-14T10:01:11Z</time>
      </trkpt>
      <trkpt lat="47.55246" lon="6.80291">
        <ele>361</ele>
        <time>2019-04-14T10:01:16Z</time>
      </trkpt>
      <trkpt lat="47.55238" lon="6.80298">
        <ele>361</ele>
        <time>2019-04-14T10:01:21Z</time>
      </trkpt>
      <trkpt lat="47.55228" lon="6.80306">
        <ele>361</ele>
        <time>2019-04-14T10:01:26Z</time>
      </trkpt>
      <trkpt lat="47.5522" lon="6.80315">
        <ele>360</ele>
        <time>2019-04-14T10:01:31Z</time>
      </trkpt>
      <trkpt lat="47.55211" lon="6.80325">
        <ele>360</ele>
        <time>2019-04-14T10:01:36Z</time>
      </trkpt>
      <trkpt lat="47.55199" lon="6.80336">
        <ele>359</ele>
        <time>2019-04-14T10:01:41Z</time>
      </trkpt>
      <trkpt lat="47.55193" lon="6.80345">
        <ele>359</ele>
        <time>2019-04-14T10:01:46Z</time>
      </trkpt>
      <trkpt lat="47.55182" lon="6.80362">
        <ele>359</ele>
        <time>2019-04-14T10:01:51Z</time>
      </trkpt>
      <trkpt lat="47.5517" lon="6.80372">
        <ele>359</ele>
        <time>2019-04-14T10:01:56Z</time>
      </trkpt>
      <trkpt lat="47.55158" lon="6.80382">
        <ele>359</ele>
        <time>2019-04-14T10:02:01Z</time>
      </trkpt>
      <trkpt lat="47.55144" lon="6.8039">
        <ele>359</ele>
        <time>2019-04-14T10:02:06Z</time>
      </trkpt>
      <trkpt lat="47.5513" lon="6.80396">
        <ele>359</ele>
        <time>2019-04-14T10:02:11Z</time>
      </trkpt>
      <trkpt lat="47.55112" lon="6.80413">
        <ele>360</ele>
        <time>2019-04-14T10:02:16Z</time>
      </trkpt>
      <trkpt lat="47.55095" lon="6.80438">
        <ele>360</ele>
        <time>2019-04-14T10:02:21Z</time>
      </trkpt>
      <trkpt lat="47.55073" lon="6.80463">
        <ele>360</ele>
        <time>2019-04-14T10:02:26Z</time>
      </trkpt>
      <trkpt lat="47.55051" lon="6.8049">
        <ele>361</ele>
        <time>2019-04-14T10:02:31Z</time>
      </trkpt>
      <trkpt lat="47.55032" lon="6.80517">
        <ele>361</ele>
        <time>2019-04-14T10:02:36Z</time>
      </trkpt>
      <trkpt lat="47.55013" lon="6.80538">
        <ele>362</ele>
        <time>2019-04-14T10:02:41Z</time>
      </trkpt>
      <trkpt lat="47.54994" lon="6.8055">
        <ele>363</ele>
        <time>2019-04-14T10:02:46Z</time>
      </trkpt>
      <trkpt lat="47.54969" lon="6.80563">
        <ele>365</ele>
        <time>2019-04-14T10:02:51Z</time>
      </trkpt>
      <trkpt lat="47.54944" lon="6.80578">
        <ele>367</ele>
        <time>2019-04-14T10:02:56Z</time>
      </trkpt>
      <trkpt lat="47.54916" lon="6.80594">
        <ele>368</ele>
        <time>2019-04-14T10:03:01Z</time>
      </trkpt>
      <trkpt lat="47.549" lon="6.806">
        <ele>368</ele>
        <time>2019-04-14T10:03:06Z</time>
      </trkpt>
      <trkpt lat="47.54886" lon="6.80604">
        <ele>368</ele>
        <time>2019-04-14T10:03:11Z</time>
      </trkpt>
      <trkpt lat="47.54875" lon="6.80612">
        <ele>367</ele>
        <time>2019-04-14T10:03:16Z</time>
      </trkpt>
      <trkpt lat="47.54863" lon="6.8062">
        <ele>367</ele>
        <time>2019-04-14T10:03:21Z</time>
      </trkpt>
      <trkpt lat="47.54851" lon="6.80624">
        <ele>367</ele>
        <time>2019-04-14T10:03:26Z</time>
      </trkpt>
      <trkpt lat="47.54825" lon="6.80635">
        <ele>367</ele>
        <time>2019-04-14T10:03:31Z</time>
      </trkpt>
      <trkpt lat="47.54803" lon="6.80644">
        <ele>367</ele>
        <time>2019-04-14T10:03:36Z</time>
      </trkpt>
      <trkpt lat="47.54784" lon="6.80651">
        <ele>368</ele>
        <time>2019-04-14T10:03:41Z</time>
      </trkpt>
      <trkpt lat="47.5478" lon="6.80655">
        <ele>369</ele>
        <time>2019-04-14T10:03:46Z</time>
      </trkpt>
      <trkpt lat="47.54762" lon="6.80666">
        <ele>369</ele>
        <time>2019-04-14T10:03:51Z</time>
      </trkpt>
      <trkpt lat="47.54746" lon="6.80671">
        <ele>371</ele>
        <time>2019-04-14T10:03:56Z</time>
      </trkpt>
      <trkpt lat="47.54733" lon="6.8067">
        <ele>371</ele>
        <time>2019-04-14T10:04:01Z</time>
      </trkpt>
      <trkpt lat="47.54725" lon="6.8067">
        <ele>372</ele>
        <time>2019-04-14T10:04:06Z</time>
      </trkpt>
      <trkpt lat="47.54713" lon="6.80669">
        <ele>372</ele>
        <time>2019-04-14T10:04:11Z</time>
      </trkpt>
      <trkpt lat="47.54705" lon="6.80662">
        <ele>372</ele>
        <time>2019-04-14T10:04:16Z</time>
      </trkpt>
      <trkpt lat="47.54695" lon="6.80654">
        <ele>372</ele>
        <time>2019-04-14T10:04:21Z</time>
      </trkpt>
      <trkpt lat="47.54683" lon="6.80643">
        <ele>372</ele>
        <time>2019-04-14T10:04:26Z</time>
      </trkpt>
      <trkpt lat="47.54664" lon="6.80639">
        <ele>371</ele>
        <time>2019-04-14T10:04:31Z</time>
      </trkpt>
      <trkpt lat="47.54634" lon="6.80638">
        <ele>369</ele>
        <time>2019-04-14T10:04:36Z</time>
      </trkpt>
      <trkpt lat="47.54607" lon="6.80636">
        <ele>367</ele>
        <time>2019-04-14T10:04:41Z</time>
      </trkpt>
      <trkpt lat="47.54588" lon="6.80641">
        <ele>365</ele>
        <time>2019-04-14T10:04:46Z</time>
      </trkpt>
      <trkpt lat="47.54573" lon="6.80646">
        <ele>362</ele>
        <time>2019-04-14T10:04:51Z</time>
      </trkpt>
      <trkpt lat="47.54556" lon="6.8065">
        <ele>360</ele>
        <time>2019-04-14T10:04:56Z</time>
      </trkpt>
      <trkpt lat="47.54536" lon="6.80658">
        <ele>359</ele>
        <time>2019-04-14T10:05:01Z</time>
      </trkpt>
      <trkpt lat="47.54514" lon="6.80671">
        <ele>359</ele>
        <time>2019-04-14T10:05:06Z</time>
      </trkpt>
      <trkpt lat="47.54485" lon="6.80689">
        <ele>359</ele>
        <time>2019-04-14T10:05:11Z</time>
      </trkpt>
      <trkpt lat="47.54456" lon="6.80715">
        <ele>358</ele>
        <time>2019-04-14T10:05:16Z</time>
      </trkpt>
      <trkpt lat="47.54432" lon="6.80738">
        <ele>358</ele>
        <time>2019-04-14T10:05:21Z</time>
      </trkpt>
      <trkpt lat="47.54417" lon="6.80759">
        <ele>357</ele>
        <time>2019-04-14T10:05:26Z</time>
      </trkpt>
      <trkpt lat="47.54401" lon="6.80775">
        <ele>357</ele>
        <time>2019-04-14T10:05:31Z</time>
      </trkpt>
      <trkpt lat="47.54378" lon="6.80769">
        <ele>356</ele>
        <time>2019-04-14T10:05:36Z</time>
      </trkpt>
      <trkpt lat="47.54355" lon="6.80751">
        <ele>356</ele>
        <time>2019-04-14T10:05:41Z</time>
      </trkpt>
      <trkpt lat="47.54335" lon="6.80736">
        <ele>356</ele>
        <time>2019-04-14T10:05:46Z</time>
      </trkpt>
      <trkpt lat="47.54318" lon="6.80721">
        <ele>357</ele>
        <time>2019-04-14T10:05:51Z</time>
      </trkpt>
      <trkpt lat="47.54301" lon="6.8071">
        <ele>357</ele>
        <time>2019-04-14T10:05:56Z</time>
      </trkpt>
      <trkpt lat="47.54287" lon="6.80701">
        <ele>357</ele>
        <time>2019-04-14T10:06:01Z</time>
      </trkpt>
      <trkpt lat="47.5427" lon="6.80691">
        <ele>358</ele>
        <time>2019-04-14T10:06:06Z</time>
      </trkpt>
      <trkpt lat="47.5425" lon="6.80674">
        <ele>359</ele>
        <time>2019-04-14T10:06:11Z</time>
      </trkpt>
      <trkpt lat="47.54227" lon="6.80654">
        <ele>359</ele>
        <time>2019-04-14T10:06:16Z</time>
      </trkpt>
      <trkpt lat="47.54205" lon="6.80632">
        <ele>359</ele>
        <time>2019-04-14T10:06:21Z</time>
      </trkpt>
      <trkpt lat="47.54187" lon="6.80612">
        <ele>358</ele>
        <time>2019-04-14T10:06:26Z</time>
      </trkpt>
      <trkpt lat="47.5417" lon="6.80591">
        <ele>357</ele>
        <time>2019-04-14T10:06:31Z</time>
      </trkpt>
      <trkpt lat="47.54157" lon="6.80571">
        <ele>356</ele>
        <time>2019-04-14T10:06:36Z</time>
      </trkpt>
      <trkpt lat="47.54141" lon="6.8055">
        <ele>355</ele>
        <time>2019-04-14T10:06:41Z</time>
      </trkpt>
      <trkpt lat="47.5412" lon="6.80529">
        <ele>355</ele>
        <time>2019-04-14T10:06:46Z</time>
      </trkpt>
      <trkpt lat="47.54097" lon="6.80509">
        <ele>355</ele>
        <time>2019-04-14T10:06:51Z</time>
      </trkpt>
      <trkpt lat="47.5407" lon="6.80489">
        <ele>355</ele>
        <time>2019-04-14T10:06:56Z</time>
      </trkpt>
      <trkpt lat="47.54049" lon="6.80466">
        <ele>354</ele>
        <time>2019-04-14T10:07:01Z</time>
      </trkpt>
      <trkpt lat="47.5403" lon="6.80438">
        <ele>354</ele>
        <time>2019-04-14T10:07:06Z</time>
      </trkpt>
      <trkpt lat="47.54014" lon="6.80408">
        <ele>354</ele>
        <time>2019-04-14T10:07:11Z</time>
      </trkpt>
      <trkpt lat="47.53998" lon="6.80375">
        <ele>354</ele>
        <time>2019-04-14T10:07:16Z</time>
      </trkpt>
      <trkpt lat="47.53984" lon="6.80349">
        <ele>354</ele>
        <time>2019-04-14T10:07:21Z</time>
      </trkpt>
      <trkpt lat="47.53967" lon="6.80323">
        <ele>354</ele>
        <time>2019-04-14T10:07:26Z</time>
      </trkpt>
      <trkpt lat="47.53953" lon="6.80296">
        <ele>353</ele>
        <time>2019-04-14T10:07:31Z</time>
      </trkpt>
      <trkpt lat="47.53939" lon="6.80265">
        <ele>354</ele>
        <time>2019-04-14T10:07:36Z</time>
      </trkpt>
      <trkpt lat="47.53927" lon="6.80236">
        <ele>354</ele>
        <time>2019-04-14T10:07:41Z</time>
      </trkpt>
      <trkpt lat="47.53915" lon="6.80206">
        <ele>353</ele>
        <time>2019-04-14T10:07:46Z</time>
      </trkpt>
      <trkpt lat="47.53901" lon="6.80179">
        <ele>353</ele>
        <time>2019-04-14T10:07:51Z</time>
      </trkpt>
      <trkpt lat="47.5389" lon="6.80153">
        <ele>354</ele>
        <time>2019-04-14T10:07:56Z</time>
      </trkpt>
      <trkpt lat="47.53879" lon="6.8013">
        <ele>354</ele>
        <time>2019-04-14T10:08:01Z</time>
      </trkpt>
      <trkpt lat="47.53869" lon="6.80106">
        <ele>354</ele>
        <time>2019-04-14T10:08:06Z</time>
      </trkpt>
      <trkpt lat="47.53858" lon="6.8008">
        <ele>355</ele>
        <time>2019-04-14T10:08:11Z</time>
      </trkpt>
      <trkpt lat="47.53848" lon="6.80055">
        <ele>356</ele>
        <time>2019-04-14T10:08:16Z</time>
      </trkpt>
      <trkpt lat="47.53841" lon="6.80031">
        <ele>357</ele>
        <time>2019-04-14T10:08:21Z</time>
      </trkpt>
      <trkpt lat="47.53832" lon="6.80012">
        <ele>358</ele>
        <time>2019-04-14T10:08:26Z</time>
      </trkpt>
      <trkpt lat="47.53834" lon="6.79995">
        <ele>358</ele>
        <time>2019-04-14T10:08:31Z</time>
      </trkpt>
      <trkpt lat="47.5386" lon="6.7997">
        <ele>358</ele>
        <time>2019-04-14T10:08:36Z</time>
      </trkpt>
      <trkpt lat="47.53878" lon="6.79923">
        <ele>357</ele>
        <time>2019-04-14T10:08:41Z</time>
      </trkpt>
      <trkpt lat="47.5388" lon="6.79873">
        <ele>355</ele>
        <time>2019-04-14T10:08:46Z</time>
      </trkpt>
      <trkpt lat="47.53895" lon="6.79852">
        <ele>353</ele>
        <time>2019-04-14T10:08:51Z</time>
      </trkpt>
      <trkpt lat="47.53893" lon="6.79823">
        <ele>351</ele>
        <time>2019-04-14T10:08:56Z</time>
      </trkpt>
      <trkpt lat="47.53881" lon="6.79793">
        <ele>349</ele>
        <time>2019-04-14T10:09:01Z</time>
      </trkpt>
      <trkpt lat="47.53868" lon="6.7975">
        <ele>347</ele>
        <time>2019-04-14T10:09:06Z</time>
      </trkpt>
      <trkpt lat="47.5385" lon="6.79701">
        <ele>346</ele>
        <time>2019-04-14T10:09:11Z</time>
      </trkpt>
      <trkpt lat="47.53827" lon="6.79651">
        <ele>345</ele>
        <time>2019-04-14T10:09:16Z</time>
      </trkpt>
      <trkpt lat="47.53794" lon="6.79616">
        <ele>342</ele>
        <time>2019-04-14T10:09:21Z</time>
      </trkpt>
      <trkpt lat="47.53763" lon="6.79576">
        <ele>340</ele>
        <time>2019-04-14T10:09:26Z</time>
      </trkpt>
      <trkpt lat="47.53733" lon="6.79534">
        <ele>338</ele>
        <time>2019-04-14T10:09:31Z</time>
      </trkpt>
      <trkpt lat="47.53698" lon="6.79496">
        <ele>336</ele>
        <time>2019-04-14T10:09:36Z</time>
      </trkpt>
      <trkpt lat="47.53663" lon="6.79456">
        <ele>334</ele>
        <time>2019-04-14T10:09:41Z</time>
      </trkpt>
      <trkpt lat="47.53629" lon="6.79415">
        <ele>332</ele>
        <time>2019-04-14T10:09:46Z</time>
      </trkpt>
      <trkpt lat="47.53604" lon="6.79374">
        <ele>331</ele>
        <time>2019-04-14T10:09:51Z</time>
      </trkpt>
      <trkpt lat="47.53593" lon="6.79353">
        <ele>329</ele>
        <time>2019-04-14T10:09:56Z</time>
      </trkpt>
      <trkpt lat="47.53584" lon="6.79353">
        <ele>328</ele>
        <time>2019-04-14T10:10:01Z</time>
      </trkpt>
      <trkpt lat="47.53569" lon="6.79355">
        <ele>328</ele>
        <time>2019-04-14T10:10:06Z</time>
      </trkpt>
      <trkpt lat="47.53571" lon="6.79349">
        <ele>327</ele>
        <time>2019-04-14T10:10:11Z</time>
      </trkpt>
      <trkpt lat="47.5359" lon="6.79342">
        <ele>327</ele>
        <time>2019-04-14T10:10:16Z</time>
      </trkpt>
      <trkpt lat="47.53602" lon="6.79317">
        <ele>328</ele>
        <time>2019-04-14T10:10:21Z</time>
      </trkpt>
      <trkpt lat="47.53609" lon="6.79277">
        <ele>328</ele>
        <time>2019-04-14T10:10:26Z</time>
      </trkpt>
      <trkpt lat="47.53592" lon="6.79237">
        <ele>328</ele>
        <time>2019-04-14T10:10:31Z</time>
      </trkpt>
      <trkpt lat="47.53566" lon="6.79202">
        <ele>326</ele>
        <time>2019-04-14T10:10:36Z</time>
      </trkpt>
      <trkpt lat="47.5354" lon="6.79159">
        <ele>324</ele>
        <time>2019-04-14T10:10:41Z</time>
      </trkpt>
      <trkpt lat="47.53523" lon="6.79125">
        <ele>322</ele>
        <time>2019-04-14T10:10:46Z</time>
      </trkpt>
      <trkpt lat="47.53505" lon="6.79092">
        <ele>320</ele>
        <time>2019-04-14T10:10:51Z</time>
      </trkpt>
      <trkpt lat="47.53489" lon="6.79077">
        <ele>318</ele>
        <time>2019-04-14T10:10:56Z</time>
      </trkpt>
      <trkpt lat="47.53472" lon="6.79072">
        <ele>318</ele>
        <time>2019-04-14T10:11:01Z</time>
      </trkpt>
      <trkpt lat="47.53456" lon="6.79086">
        <ele>318</ele>
        <time>2019-04-14T10:11:06Z</time>
      </trkpt>
      <trkpt lat="47.53439" lon="6.79102">
        <ele>318</ele>
        <time>2019-04-14T10:11:11Z</time>
      </trkpt>
      <trkpt lat="47.53439" lon="6.79129">
        <ele>318</ele>
        <time>2019-04-14T10:11:16Z</time>
      </trkpt>
      <trkpt lat="47.53455" lon="6.7915">
        <ele>319</ele>
        <time>2019-04-14T10:11:21Z</time>
      </trkpt>
      <trkpt lat="47.53477" lon="6.79159">
        <ele>319</ele>
        <time>2019-04-14T10:11:26Z</time>
      </trkpt>
      <trkpt lat="47.53486" lon="6.79186">
        <ele>320</ele>
        <time>2019-04-14T10:11:31Z</time>
      </trkpt>
      <trkpt lat="47.53497" lon="6.79211">
        <ele>321</ele>
        <time>2019-04-14T10:11:36Z</time>
      </trkpt>
      <trkpt lat="47.53508" lon="6.79233">
        <ele>321</ele>
        <time>2019-04-14T10:11:41Z</time>
      </trkpt>
      <trkpt lat="47.53513" lon="6.79256">
        <ele>322</ele>
        <time>2019-04-14T10:11:46Z</time>
      </trkpt>
      <trkpt lat="47.53503" lon="6.79279">
        <ele>321</ele>
        <time>2019-04-14T10:11:51Z</time>
      </trkpt>
      <trkpt lat="47.53489" lon="6.79299">
        <ele>321</ele>
        <time>2019-04-14T10:11:56Z</time>
      </trkpt>
      <trkpt lat="47.53473" lon="6.79313">
        <ele>321</ele>
        <time>2019-04-14T10:12:01Z</time>
      </trkpt>
      <trkpt lat="47.53456" lon="6.79318">
        <ele>321</ele>
        <time>2019-04-14T10:12:06Z</time>
      </trkpt>
      <trkpt lat="47.53438" lon="6.79311">
        <ele>321</ele>
        <time>2019-04-14T10:12:11Z</time>
      </trkpt>
      <trkpt lat="47.53423" lon="6.79303">
        <ele>321</ele>
        <time>2019-04-14T10:12:16Z</time>
      </trkpt>
      <trkpt lat="47.5341" lon="6.79309">
        <ele>321</ele>
        <time>2019-04-14T10:12:21Z</time>
      </trkpt>
      <trkpt lat="47.53392" lon="6.79322">
        <ele>320</ele>
        <time>2019-04-14T10:12:26Z</time>
      </trkpt>
      <trkpt lat="47.53387" lon="6.79339">
        <ele>320</ele>
        <time>2019-04-14T10:12:31Z</time>
      </trkpt>
      <trkpt lat="47.53385" lon="6.79358">
        <ele>320</ele>
        <time>2019-04-14T10:12:36Z</time>
      </trkpt>
      <trkpt lat="47.53374" lon="6.79378">
        <ele>320</ele>
        <time>2019-04-14T10:12:41Z</time>
      </trkpt>
      <trkpt lat="47.53362" lon="6.79398">
        <ele>320</ele>
        <time>2019-04-14T10:12:46Z</time>
      </trkpt>
      <trkpt lat="47.5335" lon="6.79416">
        <ele>320</ele>
        <time>2019-04-14T10:12:51Z</time>
      </trkpt>
      <trkpt lat="47.53334" lon="6.79425">
        <ele>320</ele>
        <time>2019-04-14T10:12:56Z</time>
      </trkpt>
      <trkpt lat="47.53315" lon="6.79426">
        <ele>321</ele>
        <time>2019-04-14T10:13:01Z</time>
      </trkpt>
      <trkpt lat="47.53301" lon="6.7943">
        <ele>321</ele>
        <time>2019-04-14T10:13:06Z</time>
      </trkpt>
      <trkpt lat="47.53284" lon="6.79428">
        <ele>322</ele>
        <time>2019-04-14T10:13:11Z</time>
      </trkpt>
      <trkpt lat="47.53266" lon="6.79429">
        <ele>322</ele>
        <time>2019-04-14T10:13:16Z</time>
      </trkpt>
      <trkpt lat="47.53252" lon="6.7943">
        <ele>322</ele>
        <time>2019-04-14T10:13:21Z</time>
      </trkpt>
      <trkpt lat="47.53236" lon="6.79434">
        <ele>321</ele>
        <time>2019-04-14T10:13:26Z</time>
      </trkpt>
      <trkpt lat="47.53228" lon="6.79447">
        <ele>321</ele>
        <time>2019-04-14T10:13:31Z</time>
      </trkpt>
      <trkpt lat="47.53215" lon="6.79461">
        <ele>321</ele>
        <time>2019-04-14T10:13:36Z</time>
      </trkpt>
      <trkpt lat="47.53201" lon="6.79476">
        <ele>321</ele>
        <time>2019-04-14T10:13:41Z</time>
      </trkpt>
      <trkpt lat="47.53189" lon="6.79492">
        <ele>321</ele>
        <time>2019-04-14T10:13:46Z</time>
      </trkpt>
      <trkpt lat="47.53176" lon="6.79509">
        <ele>321</ele>
        <time>2019-04-14T10:13:51Z</time>
      </trkpt>
      <trkpt lat="47.53164" lon="6.79519">
        <ele>322</ele>
        <time>2019-04-14T10:13:56Z</time>
      </trkpt>
      <trkpt lat="47.5315" lon="6.79515">
        <ele>322</ele>
        <time>2019-04-14T10:14:01Z</time>
      </trkpt>
      <trkpt lat="47.53141" lon="6.79498">
        <ele>323</ele>
        <time>2019-04-14T10:14:06Z</time>
      </trkpt>
      <trkpt lat="47.53125" lon="6.79479">
        <ele>323</ele>
        <time>2019-04-14T10:14:11Z</time>
      </trkpt>
      <trkpt lat="47.53116" lon="6.79467">
        <ele>323</ele>
        <time>2019-04-14T10:14:16Z</time>
      </trkpt>
      <trkpt lat="47.53108" lon="6.79456">
        <ele>323</ele>
        <time>2019-04-14T10:14:21Z</time>
      </trkpt>
      <trkpt lat="47.53096" lon="6.79447">
        <ele>323</ele>
        <time>2019-04-14T10:14:26Z</time>
      </trkpt>
      <trkpt lat="47.53084" lon="6.79438">
        <ele>323</ele>
        <time>2019-04-14T10:14:31Z</time>
      </trkpt>
      <trkpt lat="47.53083" lon="6.79421">
        <ele>323</ele>
        <time>2019-04-14T10:14:36Z</time>
      </trkpt>
      <trkpt lat="47.53086" lon="6.79399">
        <ele>324</ele>
        <time>2019-04-14T10:14:41Z</time>
      </trkpt>
      <trkpt lat="47.53087" lon="6.79376">
        <ele>324</ele>
        <time>2019-04-14T10:14:46Z</time>
      </trkpt>
      <trkpt lat="47.53088" lon="6.79349">
        <ele>323</ele>
        <time>2019-04-14T10:14:51Z</time>
      </trkpt>
      <trkpt lat="47.53089" lon="6.79332">
        <ele>323</ele>
        <time>2019-04-14T10:14:56Z</time>
      </trkpt>
      <trkpt lat="47.5309" lon="6.79316">
        <ele>323</ele>
        <time>2019-04-14T10:15:01Z</time>
      </trkpt>
      <trkpt lat="47.5309" lon="6.79316">
        <ele>322</ele>
        <time>2019-04-14T10:15:16Z</time>
      </trkpt>
      <trkpt lat="47.5309" lon="6.79316">
        <ele>322</ele>
        <time>2019-04-14T10:15:18Z</time>
      </trkpt>
      <trkpt lat="47.53089" lon="6.79305">
        <ele>322</ele>
        <time>2019-04-14T10:15:32Z</time>
      </trkpt>
      <trkpt lat="47.53093" lon="6.79307">
        <ele>323</ele>
        <time>2019-04-14T10:16:01Z</time>
      </trkpt>
      <trkpt lat="47.53095" lon="6.79307">
        <ele>323</ele>
        <time>2019-04-14T10:16:03Z</time>
      </trkpt>
    </trkseg>
  </trk>
</gpx>